[[{"header":{"parameterUnit":"m.s-1","parameterCategory":1,"la1":30.6,"la2":28.766,"lo1":-90.7593,"lo2":-88.6598,"dy":0.0162,"dx":0.0183,"nx":116,"ny":114,"refTime":"2023-04-11T06:00:00:Z","depth":0,"parameterNumber":2,"parameterNumberName":"U-component_of_WINDS"},"data":[0.0,0.0,0.0,0.0,0.0,0.0,0.0,0.0,0.0,0.0,0.0,0.0,0.0,0.0,0.0,0.0,0.0,0.0,0.0,0.0,0.0,0.0,0.0,0.0,0.0,0.0,0.0,0.0,0.0,0.0,0.0,0.0,0.0,0.0,0.0,0.0,0.0,0.0,0.0,0.0,0.0,0.0,0.0,0.0,0.0,0.0,0.0,0.0,0.0,0.0,0.0,0.0,0.0,0.0,0.0,0.0,0.0,0.0,0.0,0.0,0.0,0.0,0.0,0.0,0.0,0.0,0.0,0.0,0.0,0.0,0.0,0.0,0.0,0.0,0.0,0.0,0.0,0.0,0.0,0.0,0.0,0.0,0.0,0.0,0.0,0.0,0.0,0.0,0.0,0.0,0.0,0.0,0.0,0.0,0.0,0.0,0.0,0.0,0.0,0.0,0.0,0.0,0.0,0.0,0.0,0.0,0.0,0.0,0.0,0.0,0.0,0.0,0.0,0.0,0.0,0.0,0.0,0.0,0.0,0.0,0.0,0.0,0.0,0.0,0.0,0.0,0.0,0.0,0.0,0.0,0.0,0.0,0.0,0.0,0.0,0.0,0.0,0.0,0.0,0.0,0.0,0.0,0.0,0.0,0.0,0.0,0.0,0.0,0.0,0.0,0.0,0.0,0.0,0.0,0.0,0.0,0.0,0.0,0.0,0.0,0.0,0.0,0.0,0.0,0.0,0.0,0.0,0.0,0.0,0.0,0.0,0.0,0.0,0.0,0.0,0.0,0.0,0.0,0.0,0.0,0.0,0.0,0.0,0.0,0.0,0.0,0.0,0.0,0.0,0.0,0.0,0.0,0.0,0.0,0.0,0.0,0.0,0.0,0.0,0.0,0.0,0.0,0.0,0.0,0.0,0.0,0.0,0.0,0.0,0.0,0.0,0.0,0.0,0.0,0.0,0.0,0.0,0.0,0.0,0.0,0.0,0.0,0.0,0.0,0.0,0.0,0.0,0.0,0.0,0.0,0.0,0.0,0.0,0.0,0.0,0.0,0.0,0.0,0.0,0.0,0.0,0.0,0.0,0.0,0.0,0.0,0.0,0.0,0.0,0.0,0.0,0.0,0.0,0.0,0.0,0.0,0.0,0.0,0.0,0.0,0.0,0.0,0.0,0.0,0.0,0.0,0.0,0.0,0.0,0.0,0.0,0.0,0.0,0.0,0.0,0.0,0.0,0.0,0.0,0.0,0.0,0.0,0.0,0.0,0.0,0.0,0.0,0.0,0.0,0.0,0.0,0.0,0.0,0.0,0.0,0.0,0.0,0.0,0.0,0.0,0.0,0.0,0.0,0.0,0.0,0.0,0.0,0.0,0.0,0.0,0.0,0.0,0.0,0.0,0.0,0.0,0.0,0.0,0.0,0.0,0.0,0.0,0.0,0.0,0.0,0.0,0.0,0.0,0.0,0.0,0.0,0.0,0.0,0.0,0.0,0.0,0.0,0.0,0.0,0.0,0.0,0.0,0.0,0.0,0.0,0.0,0.0,0.0,0.0,0.0,0.0,0.0,0.0,0.0,0.0,0.0,0.0,0.0,0.0,0.0,0.0,0.0,0.0,0.0,0.0,0.0,0.0,0.0,0.0,0.0,0.0,0.0,0.0,0.0,0.0,0.0,0.0,0.0,0.0,0.0,0.0,0.0,0.0,0.0,0.0,0.0,0.0,0.0,0.0,0.0,0.0,0.0,0.0,0.0,0.0,0.0,0.0,0.0,0.0,0.0,0.0,0.0,0.0,0.0,0.0,0.0,0.0,0.0,0.0,0.0,0.0,0.0,0.0,0.0,0.0,0.0,0.0,0.0,0.0,0.0,0.0,0.0,0.0,0.0,0.0,0.0,0.0,0.0,0.0,0.0,0.0,0.0,0.0,0.0,0.0,0.0,0.0,0.0,0.0,0.0,0.0,0.0,0.0,0.0,0.0,0.0,0.0,0.0,0.0,0.0,0.0,0.0,0.0,0.0,0.0,0.0,0.0,0.0,0.0,0.0,0.0,0.0,0.0,0.0,0.0,0.0,0.0,0.0,0.0,0.0,0.0,0.0,0.0,0.0,0.0,0.0,0.0,0.0,0.0,0.0,0.0,0.0,0.0,0.0,0.0,0.0,0.0,0.0,0.0,0.0,0.0,0.0,0.0,0.0,0.0,0.0,0.0,0.0,0.0,0.0,0.0,0.0,0.0,0.0,0.0,0.0,0.0,0.0,0.0,0.0,0.0,0.0,0.0,0.0,0.0,0.0,0.0,0.0,0.0,0.0,0.0,0.0,0.0,0.0,0.0,0.0,0.0,0.0,0.0,0.0,0.0,0.0,0.0,0.0,0.0,0.0,0.0,0.0,0.0,0.0,0.0,0.0,0.0,0.0,0.0,0.0,0.0,0.0,0.0,0.0,0.0,0.0,0.0,0.0,0.0,0.0,0.0,0.0,0.0,0.0,0.0,0.0,0.0,0.0,0.0,0.0,0.0,0.0,0.0,0.0,0.0,0.0,0.0,0.0,0.0,0.0,0.0,0.0,0.0,0.0,0.0,0.0,0.0,0.0,0.0,0.0,0.0,0.0,0.0,0.0,0.0,0.0,0.0,0.0,0.0,0.0,0.0,0.0,0.0,0.0,0.0,0.0,0.0,0.0,0.0,0.0,0.0,0.0,0.0,0.0,0.0,0.0,0.0,0.0,0.0,0.0,0.0,0.0,0.0,0.0,0.0,0.0,0.0,0.0,0.0,0.0,0.0,0.0,0.0,0.0,0.0,0.0,0.0,0.0,0.0,0.0,0.0,0.0,0.0,0.0,0.0,0.0,0.0,0.0,0.0,0.0,0.0,0.0,0.0,0.0,0.0,0.0,0.0,0.0,0.0,0.0,0.0,0.0,0.0,0.0,0.0,0.0,0.0,0.0,0.0,0.0,0.0,0.0,0.0,0.0,0.0,0.0,0.0,0.0,0.0,0.0,0.0,0.0,0.0,0.0,0.0,0.0,0.0,0.0,0.0,0.0,0.0,0.0,0.0,0.0,0.0,0.0,0.0,0.0,0.0,0.0,0.0,0.0,0.0,0.0,0.0,0.0,0.0,0.0,0.0,0.0,0.0,0.0,0.0,0.0,0.0,0.0,0.0,0.0,0.0,0.0,0.0,0.0,0.0,0.0,0.0,0.0,0.0,0.0,0.0,0.0,0.0,0.0,0.0,0.0,0.0,0.0,0.0,0.0,0.0,0.0,0.0,0.0,0.0,0.0,0.0,0.0,0.0,0.0,0.0,0.0,0.0,0.0,0.0,0.0,0.0,0.0,0.0,0.0,0.0,0.0,0.0,0.0,0.0,0.0,0.0,0.0,0.0,0.0,0.0,0.0,0.0,0.0,0.0,0.0,0.0,0.0,0.0,0.0,0.0,0.0,0.0,0.0,0.0,0.0,0.0,0.0,0.0,0.0,0.0,0.0,0.0,0.0,0.0,0.0,0.0,0.0,0.0,0.0,0.0,0.0,0.0,0.0,0.0,0.0,0.0,0.0,0.0,0.0,0.0,0.0,0.0,0.0,0.0,0.0,0.0,0.0,0.0,0.0,0.0,0.0,0.0,0.0,0.0,0.0,0.0,0.0,0.0,0.0,0.0,0.0,0.0,0.0,0.0,0.0,0.0,0.0,0.0,0.0,0.0,0.0,0.0,0.0,0.0,0.0,0.0,0.0,0.0,0.0,0.0,0.0,0.0,0.0,0.0,0.0,0.0,0.0,0.0,0.0,0.0,0.0,0.0,0.0,0.0,0.0,0.0,0.0,0.0,0.0,0.0,0.0,0.0,0.0,0.0,0.0,0.0,0.0,0.0,0.0,0.0,0.0,0.0,0.0,0.0,0.0,0.0,0.0,0.0,0.0,0.0,0.0,0.0,0.0,0.0,0.0,0.0,0.0,0.0,0.0,0.0,0.0,0.0,0.0,0.0,0.0,0.0,0.0,0.0,0.0,0.0,0.0,0.0,0.0,0.0,0.0,0.0,0.0,0.0,0.0,0.0,0.0,0.0,0.0,0.0,0.0,0.0,0.0,0.0,0.0,0.0,0.0,0.0,0.0,0.0,0.0,0.0,0.0,0.0,0.0,0.0,0.0,0.0,0.0,0.0,0.0,0.0,0.0,0.0,0.0,0.0,0.0,0.0,0.0,0.0,0.0,0.0,0.0,0.0,0.0,0.0,0.0,0.0,0.0,0.0,0.0,0.0,0.0,0.0,0.0,0.0,0.0,0.0,0.0,0.0,0.0,0.0,0.0,0.0,0.0,0.0,0.0,0.0,0.0,0.0,0.0,0.0,0.0,0.0,0.0,0.0,0.0,0.0,0.0,0.0,0.0,0.0,0.0,0.0,0.0,0.0,0.0,0.0,0.0,0.0,0.0,0.0,0.0,0.0,0.0,0.0,0.0,0.0,0.0,0.0,0.0,0.0,0.0,0.0,0.0,0.0,0.0,0.0,0.0,0.0,0.0,0.0,0.0,0.0,0.0,0.0,0.0,0.0,0.0,0.0,0.0,0.0,0.0,0.0,0.0,0.0,0.0,0.0,0.0,0.0,0.0,0.0,0.0,0.0,0.0,0.0,0.0,0.0,0.0,0.0,0.0,0.0,0.0,0.0,0.0,0.0,0.0,0.0,0.0,0.0,0.0,0.0,0.0,0.0,0.0,0.0,0.0,0.0,0.0,0.0,0.0,0.0,0.0,0.0,0.0,0.0,0.0,0.0,0.0,0.0,0.0,0.0,0.0,0.0,0.0,0.0,0.0,0.0,0.0,0.0,0.0,0.0,0.0,0.0,0.0,0.0,0.0,0.0,0.0,0.0,0.0,0.0,0.0,0.0,0.0,0.0,0.0,0.0,0.0,0.0,0.0,0.0,0.0,0.0,0.0,0.0,0.0,0.0,0.0,0.0,0.0,0.0,0.0,0.0,0.0,0.0,0.0,0.0,0.0,0.0,0.0,0.0,0.0,0.0,0.0,0.0,0.0,0.0,0.0,0.0,0.0,0.0,0.0,0.0,0.0,0.0,0.0,0.0,0.0,0.0,0.0,0.0,0.0,0.0,0.0,0.0,0.0,0.0,0.0,0.0,0.0,0.0,0.0,0.0,0.0,0.0,0.0,0.0,0.0,0.0,0.0,0.0,0.0,0.0,0.0,0.0,0.0,0.0,0.0,0.0,0.0,0.0,0.0,0.0,0.0,0.0,0.0,0.0,0.0,0.0,0.0,0.0,0.0,0.0,0.0,0.0,0.0,0.0,0.0,0.0,0.0,0.0,0.0,0.0,0.0,0.0,0.0,0.0,0.0,0.0,0.0,0.0,0.0,0.0,0.0,0.0,0.0,0.0,0.0,0.0,0.0,0.0,0.0,0.0,0.0,0.0,0.0,0.0,0.0,0.0,0.0,0.0,0.0,0.0,0.0,0.0,0.0,0.0,0.0,0.0,0.0,0.0,0.0,0.0,0.0,0.0,0.0,0.0,0.0,0.0,0.0,0.0,0.0,0.0,0.0,0.0,0.0,0.0,0.0,0.0,0.0,0.0,0.0,0.0,0.0,0.0,0.0,0.0,0.0,0.0,0.0,0.0,0.0,0.0,0.0,0.0,0.0,0.0,0.0,0.0,0.0,0.0,0.0,0.0,0.0,0.0,0.0,0.0,0.0,0.0,0.0,0.0,0.0,0.0,0.0,0.0,0.0,0.0,0.0,0.0,0.0,0.0,0.0,0.0,0.0,0.0,0.0,0.0,0.0,0.0,0.0,0.0,0.0,0.0,0.0,0.0,0.0,0.0,0.0,0.0,0.0,0.0,0.0,0.0,0.0,0.0,0.0,0.0,0.0,0.0,0.0,0.0,0.0,0.0,0.0,0.0,0.0,0.0,0.0,0.0,0.0,0.0,0.0,0.0,0.0,0.0,0.0,0.0,0.0,0.0,0.0,0.0,0.0,0.0,0.0,0.0,0.0,0.0,0.0,0.0,0.0,0.0,0.0,0.0,0.0,0.0,0.0,0.0,0.0,0.0,0.0,0.0,0.0,0.0,0.0,0.0,0.0,0.0,0.0,0.0,0.0,2.7073,0.0,0.0,0.0,0.0,0.0,0.0,0.0,0.0,0.0,0.0,0.0,0.0,0.0,0.0,0.0,0.0,0.0,0.0,0.0,0.0,0.0,0.0,0.0,0.0,0.0,0.0,0.0,0.0,0.0,0.0,0.0,0.0,0.0,0.0,0.0,0.0,0.0,0.0,3.2591,3.2939,3.3366,3.385,3.3498,3.3691,3.4301,0.0,0.0,0.0,0.0,0.0,0.0,0.0,0.0,0.0,0.0,0.0,0.0,0.0,0.0,0.0,0.0,0.0,0.0,0.0,0.0,0.0,0.0,0.0,0.0,0.0,0.0,0.0,0.0,0.0,0.0,0.0,0.0,0.0,0.0,0.0,0.0,0.0,0.0,0.0,0.0,0.0,0.0,0.0,0.0,0.0,0.0,0.0,0.0,0.0,0.0,0.0,0.0,0.0,0.0,0.0,0.0,0.0,0.0,0.0,0.0,0.0,0.0,0.0,0.0,0.0,0.0,0.0,0.0,0.0,0.0,0.0,2.7233,0.0,0.0,0.0,0.0,0.0,0.0,0.0,0.0,0.0,0.0,0.0,0.0,0.0,0.0,0.0,0.0,0.0,0.0,0.0,0.0,0.0,0.0,0.0,3.2021,3.2191,3.2796,3.1928,3.1291,0.0,0.0,0.0,0.0,0.0,0.0,3.2365,3.2466,3.2968,3.3897,3.3646,3.389,3.4589,3.3572,3.331,3.3703,3.3996,0.0,0.0,0.0,0.0,0.0,0.0,0.0,0.0,0.0,0.0,0.0,0.0,0.0,0.0,0.0,0.0,0.0,0.0,0.0,0.0,0.0,0.0,0.0,0.0,0.0,0.0,0.0,0.0,0.0,0.0,0.0,0.0,0.0,0.0,0.0,0.0,0.0,0.0,0.0,0.0,0.0,0.0,0.0,0.0,0.0,0.0,0.0,0.0,0.0,0.0,0.0,0.0,0.0,0.0,0.0,0.0,0.0,0.0,0.0,0.0,0.0,0.0,0.0,2.7487,2.6783,2.5033,2.5146,2.4429,2.3207,2.4918,2.5681,2.5894,0.0,0.0,0.0,0.0,0.0,0.0,0.0,0.0,0.0,0.0,0.0,0.0,0.0,0.0,0.0,0.0,0.0,0.0,0.0,0.0,3.28,3.3625,3.2975,3.2845,3.3739,3.2654,3.1702,3.1238,0.0,0.0,0.0,0.0,3.2914,3.2989,3.3445,3.3746,3.3897,3.4753,3.4877,3.4268,3.4574,3.407,3.2924,3.2231,3.3108,3.511,0.0,0.0,0.0,0.0,0.0,0.0,0.0,0.0,0.0,0.0,0.0,0.0,0.0,0.0,0.0,0.0,0.0,0.0,0.0,0.0,0.0,0.0,0.0,0.0,0.0,0.0,0.0,0.0,0.0,0.0,0.0,0.0,0.0,0.0,0.0,0.0,0.0,0.0,0.0,0.0,0.0,2.4837,2.3743,0.0,0.0,0.0,0.0,0.0,0.0,0.0,0.0,0.0,0.0,0.0,0.0,0.0,2.3625,2.1632,2.3071,2.2555,2.0099,2.059,2.0504,1.997,1.997,2.0137,2.0442,2.0598,0.0,2.6409,2.5719,0.0,0.0,0.0,0.0,0.0,0.0,0.0,0.0,0.0,0.0,0.0,0.0,0.0,0.0,0.0,0.0,0.0,0.0,0.0,0.0,0.0,3.4272,3.4055,3.4485,3.3835,3.3021,3.2158,3.2751,0.0,0.0,3.2943,3.3567,3.3567,3.4073,3.4653,3.5303,3.5794,3.5881,3.5465,3.4343,3.3469,3.2818,3.1674,3.2313,3.428,3.3823,0.0,0.0,0.0,0.0,0.0,0.0,0.0,0.0,0.0,0.0,0.0,0.0,0.0,0.0,0.0,0.0,0.0,0.0,0.0,0.0,0.0,0.0,0.0,0.0,0.0,0.0,0.0,0.0,0.0,0.0,0.0,0.0,0.0,0.0,0.0,0.0,0.0,0.0,0.0,2.4255,2.3723,2.3424,2.4682,2.5691,0.0,0.0,0.0,0.0,0.0,0.0,0.0,0.0,0.0,2.0679,2.1346,2.1365,2.0562,2.1557,2.1624,2.0657,2.1214,2.0779,1.9471,1.9459,1.9648,1.9932,1.9527,2.124,2.4358,2.458,2.4775,2.5051,0.0,0.0,0.0,0.0,2.8743,3.0173,0.0,0.0,0.0,0.0,0.0,0.0,0.0,0.0,0.0,0.0,0.0,0.0,3.5524,3.5304,3.521,3.5334,3.5237,3.4648,3.3507,3.3726,3.347,3.2466,3.3244,3.3746,3.3897,3.444,3.532,3.6579,3.6493,3.6341,3.6022,3.4368,3.3393,3.2977,3.186,3.2146,3.3451,3.2994,3.2914,3.2975,0.0,0.0,0.0,0.0,0.0,0.0,0.0,0.0,0.0,0.0,0.0,0.0,0.0,0.0,0.0,0.0,0.0,0.0,0.0,0.0,0.0,0.0,0.0,0.0,0.0,0.0,0.0,0.0,0.0,0.0,0.0,0.0,0.0,0.0,0.0,0.0,0.0,2.2233,2.1996,2.238,2.2988,2.3488,0.0,0.0,0.0,0.0,0.0,0.0,1.9876,1.9046,1.8585,1.8535,1.9455,1.9813,1.956,2.0697,2.1166,2.092,2.1415,2.0772,1.9206,1.9173,1.924,1.9343,1.9536,2.0571,2.2183,2.313,2.3421,2.3417,2.5954,2.7351,2.7982,2.8192,2.9163,3.0407,0.0,0.0,0.0,0.0,0.0,0.0,0.0,0.0,0.0,0.0,0.0,3.4502,3.5569,3.5795,3.6044,3.6572,3.6759,3.6389,3.5236,3.439,3.3646,3.309,3.3115,3.3391,3.3897,3.4486,3.5535,3.7071,3.6617,3.5896,3.4888,3.5257,3.4738,3.3356,3.2902,3.2854,3.3085,3.249,3.2819,3.3667,3.3023,0.0,0.0,0.0,0.0,0.0,0.0,0.0,0.0,0.0,0.0,0.0,0.0,0.0,0.0,0.0,0.0,0.0,0.0,0.0,0.0,0.0,0.0,0.0,0.0,0.0,0.0,0.0,0.0,0.0,0.0,0.0,0.0,0.0,0.0,0.0,0.0,0.0,0.0,1.9197,1.8555,0.0,0.0,0.0,0.0,1.8818,1.8987,1.8724,1.7961,1.8024,1.7552,1.6471,1.9123,1.9513,1.7376,2.0111,2.0213,1.7646,1.7811,1.7764,1.7519,1.7512,1.7512,1.7666,1.9995,2.0867,2.0709,2.0907,2.2362,2.4344,2.3719,2.505,2.7351,2.7365,2.8903,3.0895,0.0,0.0,0.0,0.0,0.0,0.0,0.0,0.0,3.5277,3.461,3.4865,3.5291,3.5755,3.6285,3.6944,3.7834,3.7738,3.7026,3.5548,3.5133,3.4377,3.3165,3.3746,3.4396,3.4993,3.5831,3.658,3.7162,3.6622,3.6324,3.628,3.5402,3.4735,3.4238,3.4082,3.3911,3.3626,3.2044,3.1729,3.2194,3.0833,3.028,0.0,0.0,0.0,0.0,0.0,0.0,0.0,0.0,0.0,0.0,0.0,0.0,0.0,0.0,0.0,0.0,0.0,0.0,0.0,0.0,0.0,0.0,0.0,0.0,0.0,0.0,0.0,0.0,0.0,0.0,0.0,0.0,0.0,0.0,0.0,0.0,0.0,1.9175,1.9499,0.0,1.8532,1.7602,1.733,1.7894,1.7243,1.7032,1.7538,1.7797,1.7946,1.7915,1.8927,1.9034,1.8255,1.9262,1.9277,1.8287,1.8233,1.9304,2.1326,2.093,2.1932,2.3965,2.44,2.45,2.4402,2.4265,2.4811,2.5816,2.6835,2.7853,2.8754,2.8898,2.9764,3.0876,0.0,0.0,0.0,0.0,0.0,0.0,0.0,3.5198,3.4756,3.4092,3.4746,3.5518,3.6196,3.7247,3.832,3.9406,3.8517,3.7295,3.5814,3.4747,3.3615,3.2404,3.3472,3.4481,3.5343,3.5457,3.5837,3.6545,3.5094,3.468,3.522,3.404,3.3566,3.3626,3.3418,3.3176,3.2792,3.1093,3.0794,3.1406,3.0098,2.957,2.95,0.0,0.0,0.0,0.0,0.0,0.0,0.0,0.0,0.0,0.0,0.0,0.0,0.0,0.0,0.0,0.0,0.0,0.0,0.0,0.0,0.0,0.0,0.0,0.0,0.0,0.0,0.0,0.0,0.0,0.0,0.0,0.0,0.0,0.0,0.0,1.8542,1.8721,1.905,1.9017,1.8369,1.7336,1.6984,1.7561,1.6884,1.6924,1.7968,1.8213,1.8552,1.9106,1.912,1.9047,1.8993,1.8993,1.8938,1.8888,1.8742,1.9792,2.1947,2.259,2.41,2.6272,2.7663,2.8264,2.8296,2.8938,2.9182,2.9272,2.9534,3.0087,3.0849,3.1142,3.1503,3.1824,0.0,0.0,0.0,0.0,0.0,0.0,3.5441,3.4627,3.3979,3.391,3.4298,3.5178,3.6843,3.858,4.0096,4.1171,3.9033,3.7159,3.6108,3.3176,3.1292,3.0892,3.2056,3.3365,3.4703,3.3175,3.326,3.5092,3.2047,3.0901,3.1586,3.1248,3.1281,3.1607,3.0942,3.0651,3.0582,2.9737,3.0174,3.1431,3.0956,3.0266,2.9536,0.0,0.0,0.0,0.0,0.0,0.0,0.0,0.0,0.0,0.0,0.0,0.0,0.0,0.0,0.0,0.0,0.0,0.0,0.0,0.0,0.0,0.0,0.0,0.0,0.0,0.0,0.0,0.0,0.0,0.0,0.0,0.0,0.0,1.7757,1.7467,1.7208,1.7553,1.6848,1.6266,1.6024,1.6527,1.7066,1.7595,1.7968,1.8464,1.9183,1.9237,1.9379,1.9739,1.9739,1.961,1.9447,1.9447,1.9305,1.9027,1.9027,1.8997,1.9094,2.2168,2.3564,2.3997,2.9378,3.1723,3.1894,3.4273,3.507,3.4541,3.1258,3.1375,3.348,3.3788,3.3895,3.3855,0.0,0.0,0.0,0.0,0.0,0.0,3.3943,3.3888,3.3515,3.2146,3.4119,3.6033,3.7028,3.8058,3.9298,4.0829,3.7321,3.4294,3.2615,3.1614,3.0844,3.0425,3.0831,3.1204,3.1502,3.1769,3.207,3.2421,3.0222,3.0119,3.194,3.0159,3.0251,3.1961,3.1766,3.1684,3.1651,3.1051,3.0874,3.0804,2.87,2.7779,2.7639,0.0,0.0,0.0,0.0,0.0,0.0,0.0,0.0,0.0,0.0,0.0,0.0,0.0,0.0,0.0,0.0,0.0,0.0,0.0,0.0,0.0,0.0,0.0,0.0,0.0,0.0,0.0,0.0,0.0,0.0,0.0,0.0,1.5348,1.5808,1.6259,1.6807,1.7531,1.775,1.7935,1.801,1.8213,1.8477,1.8762,1.9061,1.9413,1.9834,1.9963,2.0064,2.0139,2.0153,2.0064,1.9922,1.9922,1.9875,1.98,1.9678,2.0926,2.3258,2.377,2.5298,2.7688,3.1062,3.2417,3.2532,3.5084,3.6099,3.5872,3.4046,3.364,3.4082,3.4162,3.4202,3.4189,0.0,0.0,0.0,0.0,0.0,0.0,3.3698,3.3443,3.297,3.1716,3.4271,3.6557,3.7435,3.8423,3.9356,4.0185,3.5358,3.1583,2.9896,2.8571,2.7969,2.8267,2.812,2.8252,2.8818,2.8127,2.7842,2.8029,2.6148,2.601,2.7418,2.584,2.5998,2.7554,2.8419,2.8773,2.8758,2.9508,2.9571,2.8949,2.7137,2.6886,2.7605,2.7365,2.7459,2.7935,2.9282,2.9801,2.9815,2.9822,0.0,0.0,0.0,0.0,0.0,0.0,0.0,0.0,0.0,0.0,0.0,0.0,0.0,0.0,0.0,0.0,0.0,0.0,0.0,0.0,0.0,0.0,0.0,0.0,1.587,1.6103,1.6585,1.689,1.7344,1.8124,1.862,1.8972,1.9135,1.9271,1.9447,1.9657,1.9834,2.0051,2.0275,2.0363,2.0354,2.0354,2.0354,2.0349,2.0207,2.0187,2.0173,2.0098,2.001,2.0978,2.2905,2.3979,2.5502,0.0,3.0046,3.1901,3.3173,3.4532,3.5776,0.0,0.0,0.0,0.0,0.0,3.3902,3.2682,0.0,0.0,0.0,0.0,0.0,0.0,3.3909,3.3007,3.2291,3.1882,3.4445,3.6637,3.7517,3.872,3.9347,3.8947,3.3127,2.8932,2.7689,2.5001,2.3998,2.52,2.4834,2.5066,2.6122,2.3504,2.2508,2.3227,2.129,2.059,2.1072,2.0416,2.0673,2.1781,2.3598,2.4491,2.4799,2.6961,2.7602,2.7068,2.6493,2.7058,2.8193,2.76,2.7415,2.7733,2.9453,2.9707,2.9275,2.9979,0.0,0.0,0.0,0.0,0.0,0.0,0.0,0.0,0.0,0.0,0.0,0.0,0.0,0.0,0.0,0.0,0.0,0.0,0.0,0.0,0.0,0.0,0.0,0.0,1.6612,1.7684,1.8959,1.8694,1.8565,1.9081,1.9379,1.9624,1.98,1.9929,2.0119,2.0383,2.0404,2.0451,2.053,0.0,0.0,0.0,0.0,2.0462,2.0404,2.0363,2.0295,2.0173,2.0153,2.0153,2.0222,2.3091,2.4426,2.4516,2.7325,3.0361,3.3276,3.3164,3.4643,3.6838,3.5981,3.5665,3.5571,3.4905,3.2718,3.0039,0.0,0.0,0.0,0.0,0.0,0.0,3.238,3.1721,3.1329,3.0922,3.3658,3.5533,3.5138,3.5864,3.6049,3.5205,3.0064,2.6351,2.5247,2.3546,2.2715,2.3069,2.354,2.3071,2.147,2.1316,2.1552,2.218,1.9923,1.9834,2.1671,1.9698,2.0974,2.4921,2.5329,2.6697,2.8783,2.9057,2.9072,2.8898,2.8098,2.708,2.6136,2.6486,2.6499,2.6698,2.9609,2.9669,2.8643,3.0073,3.0692,3.0679,2.9398,2.9911,0.0,0.0,0.0,0.0,0.0,0.0,0.0,0.0,0.0,0.0,0.0,0.0,0.0,0.0,0.0,0.0,0.0,0.0,0.0,1.7044,1.7948,1.9081,1.9942,2.0064,2.0064,2.0064,2.0158,2.0438,2.0716,2.077,2.0804,2.0858,2.0878,2.0878,2.0912,2.0912,2.0912,2.0912,2.079,2.077,2.0878,2.0627,2.0539,2.0648,0.0,0.0,2.0451,2.1069,2.1258,2.1388,2.4517,2.7629,3.0709,3.2757,3.3732,3.3887,3.322,3.2936,3.2622,2.9821,2.8383,2.7791,0.0,0.0,0.0,0.0,0.0,0.0,3.2354,3.1604,3.1152,3.1024,3.2624,3.385,3.403,3.3659,3.3014,3.2146,2.7303,2.3822,2.2662,2.1374,2.1179,2.2347,2.0939,1.98,1.9079,1.8439,1.8229,1.8551,1.7452,1.7491,1.8647,1.8732,2.0123,2.2753,2.5229,2.7157,2.8556,2.9538,2.9972,2.9918,2.9272,2.8497,2.7631,2.6895,2.7124,2.7961,2.9242,2.9699,2.9752,2.9968,3.0055,3.0003,2.9816,3.0257,3.0934,0.0,0.0,0.0,0.0,0.0,0.0,0.0,0.0,0.0,0.0,0.0,0.0,0.0,0.0,2.1231,0.0,0.0,1.8253,1.821,1.8952,1.9766,2.0451,2.0614,2.0668,2.0668,2.0736,2.0824,2.098,2.1001,2.1001,2.1001,2.1001,2.1001,2.1001,2.1001,2.1001,2.1001,2.0933,2.0933,2.1001,2.0845,2.0804,2.0878,2.0736,2.0668,2.0648,2.0573,2.0442,2.0501,2.2032,2.4475,2.7661,3.0443,3.1406,3.0941,2.9057,2.9009,2.9846,2.8198,2.6478,2.5066,0.0,0.0,0.0,0.0,0.0,0.0,0.0,3.1646,3.1002,3.1231,3.1558,3.2031,3.2629,3.1559,3.0144,2.8604,2.5012,2.214,2.0488,1.9754,1.9963,2.1239,1.8544,1.7175,1.747,1.6011,1.5269,1.5357,1.5479,1.5554,1.5629,1.7622,1.893,1.9822,2.4345,2.6759,2.7511,2.9778,3.0748,3.0721,3.0314,3.014,2.9887,2.8054,2.8229,2.937,2.9105,2.9443,2.995,2.9559,2.9349,2.9365,3.0085,3.0855,3.161,3.2346,3.2715,0.0,0.0,0.0,0.0,0.0,0.0,0.0,0.0,2.8095,2.5769,2.438,2.2042,1.9929,1.9012,1.837,1.8335,1.9271,1.98,2.0282,2.0824,2.0899,2.0967,2.1143,2.1123,2.1109,2.1157,2.1177,2.1177,2.1177,2.1177,2.1157,2.1123,2.1123,2.1123,2.1089,2.1055,2.1055,2.1089,2.1034,2.1021,2.1034,2.0892,2.0811,2.077,2.0648,2.051,2.0539,2.1097,2.3059,2.6221,2.9189,2.994,2.9,2.6335,2.5757,2.636,2.6285,2.4544,2.2203,0.0,0.0,0.0,0.0,0.0,0.0,0.0,0.0,3.0141,3.0633,3.0748,3.037,2.9308,2.8999,2.7306,2.3332,2.3678,2.2692,1.9393,2.0184,1.9836,1.7775,1.8006,1.7377,1.554,1.5438,1.5581,1.5981,1.6001,1.6076,1.6212,1.6485,1.7876,2.0264,2.3228,2.5951,2.843,3.0892,3.1904,3.1864,3.1303,3.0929,3.0608,2.986,2.9189,2.8862,3.0127,2.8489,2.6111,2.8325,2.9713,3.0524,3.0669,3.3142,3.5704,3.4303,3.3613,3.3164,3.2324,3.0973,2.9614,2.8921,2.8892,2.9123,0.0,2.8067,2.5982,2.3764,2.1732,2.0012,1.8748,1.9021,1.961,2.0119,2.058,2.098,2.1319,2.1301,2.1475,2.176,2.155,2.1496,2.176,2.1774,2.1774,2.1774,2.1774,2.1726,2.1604,2.1597,2.153,2.1387,2.1265,2.1245,2.1321,2.1123,2.1068,2.1197,2.1034,2.0899,2.077,2.0756,2.0668,2.0673,2.3653,2.6495,2.9379,3.2668,3.2153,2.9341,2.8842,2.5439,2.0762,2.0483,2.013,1.9782,0.0,0.0,0.0,0.0,0.0,0.0,0.0,0.0,2.974,2.9618,2.9002,2.8221,2.7367,2.6616,2.4895,2.172,2.2798,2.2392,1.9427,1.9484,1.9095,1.789,1.7088,1.631,1.5615,1.5723,1.5934,1.6218,1.63,1.6368,1.6435,1.7987,1.9285,2.0527,2.4793,2.741,2.8831,3.1331,3.2452,3.2572,3.2158,3.1965,3.1764,3.0782,3.0421,3.0368,3.0037,3.0375,0.0,2.8762,2.8693,2.9606,3.1043,3.1456,3.2009,3.4812,3.3385,3.0822,3.0272,2.9828,2.9497,2.947,2.9755,3.0317,3.1113,2.9597,2.7274,2.484,2.3449,2.1952,1.9716,1.9854,2.0404,0.0,2.0946,2.1197,2.1341,2.1375,2.1509,2.174,2.1652,2.1686,2.1991,2.2025,2.2025,2.2025,2.1937,2.1862,2.1794,2.1726,2.1638,2.1584,2.1509,2.1462,2.1375,2.1408,2.1374,2.1333,2.1197,2.1055,2.0892,2.0875,2.0682,2.061,2.1977,2.3222,2.4471,2.784,2.8278,2.7114,2.8949,2.6919,2.2651,2.0394,1.9501,1.9434,0.0,0.0,0.0,0.0,0.0,0.0,0.0,0.0,0.0,0.0,2.7395,2.6217,2.5486,2.4806,2.3444,2.1031,2.2316,2.214,1.9473,1.8751,1.8367,1.8245,1.6407,1.5533,1.5791,1.6022,1.6218,1.6368,1.6517,1.6554,1.6697,1.8576,1.989,2.0799,2.5473,2.8088,2.9164,3.1754,3.2906,3.308,3.2915,3.2634,3.2219,3.0996,3.1179,3.1786,2.9876,3.0969,3.2755,2.8562,2.8015,2.9294,3.0387,3.0377,3.0634,3.3932,3.2098,2.8916,2.848,2.878,2.9371,2.9892,3.0528,3.141,3.2774,3.126,2.8957,2.6704,2.5271,2.3586,2.0706,2.0539,2.0912,2.1143,2.1299,2.1455,2.1597,2.1584,2.1564,2.155,2.155,2.1638,2.1848,2.2004,2.2127,2.216,2.2079,2.1991,2.195,2.1848,2.1774,2.1794,2.1794,2.1672,2.1564,2.1672,2.1652,2.1509,2.1387,2.1245,2.1055,2.0858,2.0716,2.0594,2.0496,2.1462,2.3168,2.5618,2.7085,2.8043,3.0473,2.885,2.4833,2.2168,2.0522,1.9569,0.0,0.0,0.0,0.0,0.0,0.0,0.0,0.0,0.0,0.0,0.0,2.4445,2.3317,2.3926,2.3332,2.0658,2.224,2.2141,1.9185,1.8326,1.7872,1.7831,1.6251,1.5486,1.5593,1.6076,1.6374,1.6517,1.6615,1.677,1.6965,1.707,1.8514,2.119,2.4064,2.6791,2.9459,3.2208,3.3387,3.34,3.3387,3.2706,3.1617,3.0394,3.1193,3.2617,2.9835,2.8713,2.8366,2.6792,2.8333,3.0543,2.825,3.1304,3.5032,3.1375,2.9491,2.8478,2.7907,2.8193,2.8759,2.9353,3.0383,3.1711,3.3771,3.2776,3.0911,2.9264,2.6849,2.4256,2.1489,2.098,2.1143,2.1584,2.1774,2.1916,2.2072,2.1971,2.1706,2.1285,2.1231,2.1231,0.0,2.1774,2.2181,2.2254,2.2323,2.22,2.2113,2.2093,2.2025,2.1882,2.1882,2.1882,2.1862,2.1882,2.1815,2.1672,2.1719,2.1496,2.1197,2.0912,2.077,2.0756,2.0614,2.4053,2.98,2.9933,3.1813,3.4699,3.4672,3.0819,2.5229,2.5051,2.2781,1.9916,0.0,0.0,0.0,0.0,0.0,0.0,0.0,0.0,0.0,0.0,0.0,0.0,0.0,0.0,0.0,0.0,2.2142,2.1598,1.8294,1.9333,1.9075,1.6848,1.7055,1.6711,1.5479,1.5832,1.6178,1.6524,1.6621,1.6777,1.6978,1.6978,1.7496,1.8581,2.3165,2.5727,2.6853,3.1466,3.3414,3.336,3.2772,3.2305,3.177,2.9962,3.0444,3.175,0.0,3.0167,3.135,2.8843,2.8246,2.8502,2.8159,2.7709,2.7072,2.5697,2.6937,2.8451,2.7167,2.84,3.0318,3.1544,3.2986,3.4589,3.6259,3.6596,3.5825,3.3224,3.1912,2.9692,2.4644,2.3543,2.2928,2.1339,2.1508,2.1828,2.2079,2.2147,2.195,2.1285,2.1387,0.0,0.0,0.0,0.0,2.216,2.222,2.2254,2.2269,2.22,2.2201,2.2038,2.2038,2.2038,2.2038,2.2038,2.195,2.1815,2.1509,2.1319,2.1197,2.0912,2.1975,2.4047,2.3866,2.6305,3.0515,3.2746,3.3042,3.2243,3.4434,3.1245,2.5432,2.5381,2.3145,2.0153,0.0,0.0,0.0,0.0,0.0,0.0,0.0,0.0,0.0,0.0,0.0,0.0,0.0,0.0,0.0,0.0,0.0,2.2091,1.8744,2.0,1.9931,1.7812,1.7904,1.7518,1.6467,1.6766,1.7125,1.7507,1.7736,1.8053,1.8486,1.8598,1.9338,2.0612,2.4277,2.6417,2.7573,3.1129,3.2452,3.2091,3.1316,3.0621,2.9873,2.8081,2.8567,0.0,2.7987,2.9145,3.1219,2.8722,2.781,2.7487,2.6341,2.4548,2.3152,2.4349,2.6321,2.8131,2.8365,2.9242,3.0531,3.2327,3.2953,3.3768,3.6136,3.7074,3.6903,3.4785,3.4108,3.1899,2.5497,2.4031,2.3066,2.0922,2.0858,2.1333,2.2025,2.2004,2.176,2.1265,2.1245,2.1109,0.0,0.0,0.0,2.1991,2.216,2.2303,2.2411,2.2466,2.2445,2.2357,2.2357,2.2357,2.2357,2.2289,2.2147,2.1882,2.153,2.1353,2.1285,2.2327,2.3883,2.585,2.6974,2.9283,3.2455,3.4591,3.4244,3.2484,3.4652,3.137,2.5479,2.5479,2.3308,2.0295,0.0,0.0,0.0,0.0,0.0,0.0,0.0,0.0,0.0,0.0,0.0,0.0,0.0,0.0,0.0,0.0,0.0,0.0,2.0561,2.0393,2.0459,2.0516,1.8792,1.7969,1.833,1.8595,1.8915,1.9226,1.9623,2.0213,2.1084,2.1377,2.3266,2.6329,2.6712,2.8344,3.079,3.0929,3.0587,2.986,2.9212,2.8036,2.6501,2.5275,2.6105,2.7572,2.5083,2.5992,2.814,2.653,2.7004,2.7475,2.3081,2.2305,2.3703,2.7035,2.7563,2.7801,3.1089,3.0589,2.9639,3.1733,3.0526,2.9827,3.3754,3.4578,3.4461,3.4204,3.3478,3.0883,2.4231,2.2672,2.186,2.0298,2.0119,2.0627,2.195,2.1652,2.1299,0.0,0.0,0.0,0.0,0.0,0.0,2.1848,0.0,2.2255,2.2624,2.271,2.2784,2.2784,2.2784,2.2784,2.2798,2.2642,2.2392,2.1882,2.174,2.1584,2.1494,2.471,2.6204,2.6476,2.9569,3.2721,3.5743,3.5608,3.5401,3.5228,3.5032,3.0999,2.5236,2.5236,2.3135,2.0315,0.0,0.0,0.0,0.0,0.0,0.0,0.0,0.0,0.0,0.0,0.0,0.0,0.0,0.0,0.0,0.0,0.0,0.0,2.2516,2.2229,2.1601,2.0539,1.9965,1.8921,1.7398,1.7776,1.8084,1.8279,1.835,1.868,1.9255,1.9354,1.9942,2.1058,2.3236,2.457,2.5353,2.7451,2.8838,2.9697,2.8882,2.8993,2.9556,2.8408,2.864,2.929,2.7214,2.7291,2.814,2.653,2.6053,2.5727,2.3535,2.3928,2.5579,2.7566,2.9366,3.0668,3.0125,3.1121,3.1978,3.0431,2.9925,3.0772,3.4132,3.4426,3.4416,3.6188,3.5162,3.2054,2.6005,2.4947,2.3792,2.0155,2.0438,0.0,2.2466,2.2567,0.0,2.1937,0.0,2.1862,2.1421,2.1509,0.0,0.0,2.2147,2.2289,2.2767,2.2873,2.2907,2.2784,2.2784,2.2832,2.2961,2.2696,2.2392,2.1882,2.174,2.1584,2.1441,2.2178,2.525,3.0048,3.0556,3.4076,3.9315,3.6624,3.4048,3.1505,2.9029,2.547,2.1794,2.1794,2.121,2.0408,0.0,0.0,0.0,0.0,0.0,0.0,0.0,0.0,0.0,0.0,0.0,0.0,0.0,0.0,0.0,0.0,0.0,0.0,0.0,2.3549,2.335,2.2229,2.1456,2.0518,1.9424,1.9012,1.8943,1.9304,1.9315,1.9711,2.049,2.049,2.0769,2.1366,2.3835,2.4982,2.5228,2.7479,2.876,0.0,0.0,2.8408,2.8795,2.801,2.8414,2.9083,2.658,2.5818,2.5737,2.4195,2.4357,2.5221,2.5242,2.6373,2.8125,3.0119,3.1952,3.2999,3.1717,3.1654,3.1233,2.8479,2.8037,2.8952,3.1269,3.2391,3.3351,3.4806,3.4042,3.1322,2.5331,2.4676,2.3692,1.9659,1.9997,2.1211,2.25,2.2588,2.2479,0.0,2.25,0.0,2.2004,2.2093,2.2269,0.0,2.2391,2.2479,2.2873,2.3029,2.3063,2.2974,2.2974,2.2961,2.2907,2.2676,2.2392,2.1882,2.174,2.1584,2.1441,2.2915,2.5608,2.917,0.0,3.2988,3.6233,3.4139,3.1329,2.8146,2.6224,2.3472,2.0476,2.0476,2.0476,2.0462,0.0,0.0,0.0,0.0,0.0,0.0,0.0,0.0,0.0,0.0,0.0,0.0,0.0,0.0,0.0,0.0,0.0,0.0,0.0,0.0,2.5152,2.4551,2.3103,2.2417,2.2659,2.1411,2.0967,2.1448,2.1448,2.2025,2.3171,2.3171,2.3605,2.4492,2.621,2.7081,2.7401,2.879,2.9075,2.8522,2.7999,2.7465,2.6968,0.0,2.7374,2.7979,2.481,2.3282,2.2661,2.1857,2.3382,2.5866,2.7199,2.8978,3.1062,3.3601,3.4803,3.5159,3.4379,3.2503,3.01,2.7341,2.6478,2.6655,2.7982,2.9952,3.1611,3.1809,3.1517,2.9491,2.3764,2.3305,2.2739,1.951,1.9532,2.0594,2.2391,2.2303,2.2269,2.2798,2.2764,2.2642,2.25,2.2608,2.278,2.2832,2.278,2.2764,2.3029,2.3151,2.3219,2.3219,2.3219,2.3083,2.2784,2.2692,2.2392,2.1882,2.174,2.1584,2.1508,2.4532,2.6008,2.6362,0.0,0.0,3.068,3.0052,2.8146,2.547,2.503,2.3037,2.0476,2.0476,2.0476,2.0462,0.0,0.0,0.0,0.0,0.0,0.0,0.0,0.0,0.0,0.0,2.3159,2.3113,0.0,0.0,0.0,0.0,0.0,0.0,0.0,0.0,0.0,2.5761,2.4569,2.3796,2.3569,2.3575,2.3495,2.3321,2.3321,2.3734,2.4545,2.4545,2.4943,2.5706,2.6053,2.6212,2.6292,2.6575,2.7382,2.8425,2.8331,2.9015,3.0116,3.0088,0.0,0.0,2.5015,2.3182,2.2551,2.5256,2.7109,2.8214,2.7563,3.0336,3.4244,3.6206,3.7382,3.7596,3.5766,3.5369,3.4586,3.0977,2.9586,2.951,3.0948,3.0168,2.9397,3.0509,2.9691,2.7775,2.4489,2.3421,2.266,2.1686,2.088,2.1055,2.2852,2.3042,2.3083,0.0,2.3415,2.3436,2.3201,2.3273,0.0,0.0,0.0,2.313,2.3185,2.3205,2.3219,2.3219,2.3219,2.3083,2.2784,2.2692,2.2392,2.1882,2.174,2.1584,2.1441,2.1892,2.3692,2.6401,2.6582,0.0,3.0637,2.7612,2.6044,2.5227,2.2483,2.0984,2.0476,2.0476,2.0476,2.0476,0.0,0.0,0.0,0.0,0.0,0.0,0.0,2.3454,2.3532,2.3747,2.4351,2.4426,2.3563,2.4344,2.4877,0.0,0.0,0.0,0.0,0.0,0.0,2.723,2.5951,2.5148,2.4986,2.4351,2.4157,2.4355,0.0,2.4539,2.5264,2.5082,2.528,2.5824,2.6662,2.7111,2.7314,2.8188,2.9009,2.9707,2.9707,3.0301,3.1122,3.0195,0.0,0.0,2.4923,2.3899,2.3276,2.4053,2.6923,3.028,3.1134,3.3783,3.6794,3.7956,3.8945,3.9044,3.6319,3.6093,3.5697,3.191,3.1462,3.1715,3.0544,2.9966,2.9416,2.8317,2.7536,2.6379,2.4199,2.3973,2.4033,2.362,2.2162,2.1904,2.4208,2.3157,2.25,2.3275,2.3646,2.37,2.3397,2.3524,2.347,0.0,0.0,2.3219,2.3219,2.3219,2.3219,2.3219,2.3151,2.3008,2.2784,2.2479,2.2181,2.1882,2.1652,2.1509,2.1375,2.1279,2.2122,2.3704,2.332,0.0,2.5494,2.3684,2.2919,2.2729,2.116,2.0476,2.0476,2.0476,2.0476,2.0476,0.0,0.0,0.0,0.0,0.0,0.0,0.0,2.4551,2.4816,2.5136,2.6475,2.6657,2.4716,2.5462,2.5954,0.0,0.0,0.0,0.0,0.0,0.0,0.0,0.0,0.0,2.7162,0.0,0.0,0.0,2.5692,0.0,0.0,0.0,0.0,0.0,2.8063,2.8744,2.9009,3.0333,3.0898,0.0,0.0,3.0927,0.0,0.0,0.0,0.0,0.0,2.4182,2.3803,2.2987,2.6161,3.0929,3.3521,3.6019,3.8076,3.8611,3.9493,3.9816,3.7471,3.7203,3.6862,3.3812,3.3772,3.3649,3.0385,2.9969,2.9436,2.6506,2.5904,2.5492,2.4206,2.4557,2.4949,2.4572,2.2786,2.2266,2.4467,2.284,2.1916,2.3221,2.3734,0.0,2.3524,2.3612,0.0,0.0,0.0,0.0,2.3219,2.3219,2.3219,2.3219,2.3083,2.294,2.2784,2.2344,2.2038,2.1882,2.1584,2.1375,2.1375,2.1279,2.1197,2.1157,2.0892,0.0,0.0,2.0594,2.0476,2.0476,2.0476,2.0476,2.0476,2.0476,2.0476,2.0476,0.0,0.0,0.0,0.0,0.0,0.0,0.0,2.7078,2.772,2.7765,2.9612,2.987,2.7101,2.7806,2.8007,0.0,0.0,0.0,0.0,0.0,0.0,0.0,0.0,0.0,0.0,0.0,0.0,0.0,0.0,0.0,0.0,0.0,0.0,0.0,0.0,3.0636,3.0674,3.082,0.0,0.0,0.0,0.0,0.0,0.0,0.0,0.0,0.0,2.2795,2.3367,2.5581,2.7062,2.8444,3.0835,3.4057,3.7128,3.7448,3.8544,3.9794,4.0316,4.0642,4.0686,3.9801,3.7903,3.5599,3.3187,3.0464,2.7884,2.5945,2.5558,2.5575,2.5738,2.4873,2.4016,2.3647,2.2126,2.11,2.1559,2.1827,2.2378,2.3269,0.0,0.0,2.368,2.368,0.0,0.0,0.0,0.0,2.3219,2.3219,2.3219,2.3219,2.3083,2.294,2.2784,2.2344,2.2038,2.1882,2.1584,2.1375,2.1375,2.1279,2.1143,2.1021,0.0,0.0,0.0,2.0539,2.0476,2.0476,2.0476,2.0476,2.0476,2.0476,2.0476,2.0476,0.0,0.0,0.0,0.0,0.0,0.0,2.6759,2.7491,2.8185,2.8813,3.0599,3.1107,2.9182,3.008,2.9443,2.6113,0.0,0.0,0.0,0.0,0.0,0.0,0.0,0.0,0.0,0.0,0.0,3.1303,0.0,0.0,0.0,0.0,0.0,0.0,0.0,0.0,3.0898,3.0898,0.0,0.0,0.0,0.0,0.0,0.0,0.0,0.0,0.0,0.0,2.3273,2.4142,2.5424,2.6693,2.672,2.9245,3.2643,3.5297,3.7235,3.8758,3.9813,4.0722,4.1061,4.0187,3.7956,3.5311,3.2786,2.9553,2.6734,2.5277,2.4703,2.4807,2.581,2.5722,2.5355,2.5067,2.2971,2.1505,2.1872,2.069,2.0526,2.2356,2.2961,0.0,0.0,0.0,2.3449,0.0,0.0,0.0,2.3219,2.3219,2.3185,2.3097,2.2961,2.2798,2.2712,2.2201,2.1937,2.1882,2.1584,2.1375,2.1375,2.1279,2.1177,2.1109,0.0,0.0,0.0,2.0573,2.0476,2.0476,2.0476,2.0476,2.0476,2.0476,2.0594,2.0682,0.0,0.0,0.0,0.0,0.0,2.7192,2.7784,2.863,2.9417,3.0138,3.1451,3.1807,3.0369,3.0997,2.9984,2.6172,2.7864,0.0,0.0,0.0,0.0,0.0,0.0,0.0,0.0,0.0,3.3895,3.3268,3.3268,0.0,0.0,0.0,0.0,0.0,0.0,0.0,0.0,0.0,0.0,0.0,0.0,0.0,0.0,0.0,0.0,0.0,0.0,0.0,0.0,0.0,0.0,2.5168,2.4138,2.5651,2.8575,3.2398,3.5191,3.7301,3.8584,4.0,4.0802,3.964,3.7275,3.4563,3.1998,2.8804,2.6052,2.4839,2.4382,2.4539,2.5663,2.6132,2.5959,2.4672,2.2972,2.1621,2.1068,1.9567,1.9291,2.1408,2.195,2.2432,0.0,2.3307,2.3275,0.0,0.0,0.0,2.3219,2.3219,2.3171,2.3083,2.2886,2.273,2.2692,2.2127,2.1882,2.1882,2.1584,2.1355,2.1367,2.1265,2.1157,2.1068,0.0,0.0,0.0,2.053,2.0476,2.0539,2.0594,2.0573,2.0496,2.0584,2.0716,2.0834,0.0,0.0,0.0,0.0,0.0,0.0,2.9585,3.112,3.2173,3.2173,3.2583,3.2207,3.0414,3.0205,2.9511,2.7739,2.9602,0.0,0.0,0.0,0.0,0.0,0.0,0.0,0.0,0.0,3.6217,3.5288,3.5288,3.5261,3.5233,3.5233,0.0,0.0,0.0,0.0,0.0,0.0,0.0,0.0,0.0,0.0,2.7182,0.0,0.0,0.0,0.0,0.0,0.0,0.0,0.0,0.0,0.0,2.4432,2.5705,2.8671,3.2238,3.5538,3.7021,3.8905,4.0214,3.9012,3.65,3.3708,3.1343,2.8511,2.6052,2.4839,2.4863,2.5157,2.5464,2.5999,2.5165,2.1476,2.1565,2.1056,1.8079,1.8423,1.9379,2.0374,2.0946,2.1462,2.2072,2.2798,0.0,0.0,0.0,0.0,2.3219,2.3219,2.3219,2.3219,2.294,2.2784,2.2784,2.2181,2.1882,2.1882,2.1584,2.1353,2.1211,2.1211,2.1055,0.0,0.0,0.0,0.0,2.0476,2.0476,2.0496,2.0702,2.0682,2.051,2.0878,2.0892,2.079,0.0,0.0,0.0,0.0,0.0,0.0,0.0,3.0859,3.1788,3.2144,3.2288,3.1807,3.0369,3.0205,3.013,2.9952,3.136,0.0,0.0,0.0,0.0,0.0,0.0,0.0,0.0,0.0,3.7735,3.6784,3.6784,3.6298,3.5288,3.5288,3.4515,0.0,0.0,0.0,0.0,0.0,0.0,0.0,0.0,2.8196,2.7279,0.0,0.0,0.0,0.0,0.0,0.0,0.0,0.0,0.0,0.0,0.0,0.0,2.5237,2.862,3.226,3.3731,3.5151,3.5979,3.4803,3.3089,3.1203,2.9423,2.7321,2.5625,2.505,2.485,2.4983,2.573,2.6293,2.5507,2.1998,2.1984,2.1265,1.7798,1.8287,1.9413,2.056,2.2004,2.294,0.0,0.0,0.0,0.0,0.0,0.0,2.3219,2.313,2.3083,2.3083,2.2886,2.2676,2.2479,2.2079,2.1828,2.174,2.153,2.1355,2.1301,2.1265,0.0,0.0,0.0,0.0,0.0,2.058,2.0614,2.0702,2.0756,2.0804,2.0858,2.0967,2.1034,2.1068,0.0,0.0,0.0,0.0,0.0,0.0,0.0,3.1068,3.1587,3.2139,3.1553,3.102,3.0859,3.0281,3.0302,3.1271,3.3135,0.0,0.0,0.0,0.0,0.0,0.0,0.0,0.0,3.9711,3.9145,3.8321,3.854,3.8161,3.725,3.7461,3.6649,3.5057,3.5057,0.0,0.0,0.0,0.0,0.0,2.9947,2.865,2.7573,0.0,0.0,0.0,0.0,0.0,0.0,0.0,0.0,0.0,0.0,0.0,0.0,0.0,2.6078,2.8848,3.0881,3.2492,3.3414,3.25,3.1162,2.9677,2.8192,2.6747,2.5571,2.5157,2.5024,2.5197,2.6011,2.6507,2.5586,2.1958,2.1978,2.1169,1.7477,1.8023,1.9325,2.0702,2.2181,0.0,0.0,2.3151,0.0,0.0,0.0,0.0,2.3219,2.313,2.3063,2.3008,2.2798,2.2588,2.2268,2.2038,2.1815,2.1672,2.1455,2.1267,2.1265,2.1123,0.0,0.0,0.0,0.0,0.0,2.0573,2.0627,2.0834,2.0845,2.0912,2.1021,2.1123,2.119,2.1211,0.0,0.0,0.0,0.0,0.0,0.0,0.0,3.163,3.1612,3.219,3.0695,3.0194,3.1755,3.0514,3.024,3.1892,0.0,0.0,0.0,0.0,0.0,0.0,0.0,0.0,4.0665,4.0676,4.035,3.9697,4.0249,4.0499,4.0499,4.1051,4.0252,3.8292,3.8292,3.6429,0.0,0.0,0.0,0.0,2.9946,2.8689,0.0,0.0,0.0,0.0,0.0,0.0,0.0,0.0,0.0,0.0,0.0,0.0,0.0,0.0,0.0,0.0,0.0,3.0641,3.2019,3.143,3.0207,2.8845,2.7496,2.6546,0.0,2.5315,2.5384,2.5772,2.64,2.672,2.5561,2.1565,2.1741,2.098,1.711,1.7751,1.9305,2.0946,2.1794,0.0,2.2391,2.2907,0.0,0.0,0.0,0.0,2.3219,2.3205,2.313,2.2974,2.2676,2.2466,2.2323,2.2025,2.1794,2.1652,2.1353,2.1143,2.1021,2.0845,0.0,0.0,0.0,0.0,0.0,2.0476,2.0648,2.0811,2.0946,2.1021,2.1068,2.1333,2.1353,2.1179,0.0,0.0,0.0,0.0,0.0,0.0,0.0,0.0,0.0,0.0,3.2067,3.1616,3.2007,3.1708,3.1931,0.0,0.0,0.0,0.0,0.0,0.0,0.0,0.0,0.0,4.1322,4.1344,4.0814,3.9697,4.0249,4.0499,4.0499,4.1051,4.0252,3.8292,3.8292,3.6978,0.0,0.0,0.0,0.0,3.1446,2.9413,0.0,0.0,0.0,0.0,2.2893,2.2893,0.0,0.0,0.0,0.0,0.0,0.0,0.0,0.0,2.4128,2.4609,2.5531,0.0,2.7696,2.7108,2.6707,2.636,0.0,2.5758,2.5705,2.6012,2.6132,2.6493,2.7576,2.7643,2.6373,2.2901,2.2507,2.1365,1.7583,1.8993,2.0946,2.2378,2.3097,2.3347,2.3042,2.3239,0.0,0.0,0.0,2.3219,2.3219,2.3008,2.2818,2.2732,2.2378,2.2201,2.216,2.1862,2.1652,2.1496,2.1299,2.1197,2.1157,2.0892,0.0,0.0,0.0,0.0,2.0476,2.0476,2.0702,2.0946,2.098,2.1143,2.1287,2.1355,2.1355,2.0997,0.0,0.0,0.0,0.0,0.0,0.0,0.0,0.0,0.0,0.0,0.0,3.2687,3.3235,3.2802,0.0,0.0,0.0,0.0,0.0,0.0,0.0,0.0,0.0,4.3458,4.1539,4.1842,4.1229,3.9697,4.0474,4.0876,4.0876,4.1679,4.1223,3.9626,3.8443,3.7311,0.0,0.0,0.0,3.3249,3.1788,0.0,0.0,0.0,0.0,0.0,2.302,2.368,0.0,2.4932,2.5771,2.6672,0.0,0.0,0.0,0.0,2.6061,2.5697,2.6755,2.6448,2.5772,2.5732,2.5611,2.5545,2.5692,2.5825,2.6012,2.6319,2.66,2.7068,2.7844,2.7016,2.5376,2.2795,2.1773,2.0604,1.8685,1.9963,2.1597,2.294,2.3395,2.3537,0.0,0.0,0.0,0.0,0.0,2.3219,2.3219,2.3008,2.2784,2.2624,2.2269,2.2038,2.1916,2.1686,2.1496,2.1333,2.1109,2.1021,2.1001,2.077,0.0,0.0,0.0,0.0,2.0476,2.0476,2.0716,2.1001,2.1001,2.1177,2.1375,2.1375,2.1375,2.0897,0.0,0.0,0.0,0.0,0.0,0.0,0.0,0.0,0.0,0.0,0.0,0.0,0.0,0.0,0.0,0.0,0.0,0.0,0.0,0.0,0.0,0.0,4.4027,4.3629,4.1834,4.2556,4.2013,4.0107,4.1194,4.1693,4.1578,4.271,4.2635,4.1449,3.9033,3.7969,0.0,0.0,0.0,3.3767,3.1805,0.0,0.0,0.0,0.0,0.0,0.0,0.0,0.0,2.7391,2.8837,3.047,3.08,0.0,0.0,0.0,0.0,0.0,2.9846,2.8389,2.6333,2.6254,2.6085,2.5954,2.5941,2.6185,2.6413,2.6507,2.7001,2.7373,2.7409,2.6256,2.4541,2.2079,2.035,1.9509,2.001,2.0756,2.176,2.3042,2.3273,0.0,2.3592,0.0,0.0,0.0,0.0,2.3219,2.3219,2.3042,2.2818,2.2534,2.2215,2.1903,2.1604,2.1475,2.1267,2.1177,2.0899,2.077,2.077,2.0614,2.0476,0.0,0.0,0.0,2.0476,2.0476,2.0716,2.1001,2.1001,2.1177,2.1375,2.1375,2.105,1.9987,0.0,0.0,0.0,0.0,0.0,0.0,0.0,0.0,0.0,0.0,0.0,0.0,0.0,0.0,0.0,0.0,0.0,0.0,0.0,0.0,0.0,4.329,4.4496,4.4499,4.3154,4.4326,4.3978,4.2002,4.3101,4.3349,4.276,4.3865,4.379,4.266,4.0864,4.0059,3.9825,0.0,0.0,3.4841,3.2394,0.0,0.0,0.0,0.0,0.0,0.0,0.0,0.0,2.9355,2.971,3.0018,3.0312,0.0,0.0,0.0,0.0,0.0,3.1968,3.2238,3.1255,2.808,2.771,2.7679,2.5979,2.5999,2.6533,2.7068,2.7443,2.7307,2.6289,2.7725,2.7196,2.1541,1.9501,1.9182,2.0644,2.1265,2.195,2.292,0.0,2.3666,2.3327,0.0,0.0,0.0,0.0,2.3219,0.0,2.2832,2.2554,2.2378,2.195,2.1597,2.1285,2.1265,2.1177,2.1034,2.0858,2.077,2.077,2.0614,2.0476,0.0,0.0,2.0476,2.0476,2.0476,2.0716,2.1001,2.1001,2.1177,2.1375,2.1375,1.9492,1.6002,0.0,0.0,0.0,0.0,0.0,0.0,0.0,0.0,0.0,0.0,0.0,0.0,0.0,0.0,0.0,0.0,0.0,0.0,0.0,0.0,4.3439,4.3818,4.4796,4.4702,4.3415,4.4704,4.4709,4.3308,4.4493,4.4835,4.4371,4.4242,4.374,4.2939,4.1528,4.0926,4.0689,3.7219,3.5876,3.5791,0.0,0.0,0.0,0.0,0.0,0.0,0.0,0.0,0.0,0.0,3.2433,3.3248,3.3648,0.0,0.0,0.0,0.0,0.0,3.3747,3.3909,3.2998,3.058,3.0146,2.9656,2.7075,2.6787,2.7268,2.7869,2.8217,2.7892,2.6326,2.6363,2.5145,2.0497,1.965,1.9935,2.1089,2.155,2.2093,0.0,0.0,2.3395,2.3347,0.0,0.0,0.0,0.0,0.0,0.0,0.0,2.2378,2.2215,2.1774,2.1408,2.1109,2.1021,2.0946,2.0878,2.0716,2.0648,2.0648,2.051,2.0476,2.0476,0.0,2.053,2.0668,2.0668,1.9728,1.8403,2.0384,2.0048,1.856,1.856,1.6276,1.2445,0.0,0.0,0.0,0.0,0.0,0.0,0.0,0.0,0.0,0.0,0.0,0.0,0.0,0.0,0.0,0.0,0.0,0.0,0.0,0.0,4.3609,4.4267,4.4796,4.4768,4.4088,4.5678,4.6201,4.5546,4.6651,4.6782,4.6024,4.4644,4.3765,4.3313,4.2082,4.1503,4.1264,3.7729,3.6437,3.6407,0.0,0.0,0.0,0.0,0.0,0.0,0.0,0.0,0.0,0.0,0.0,0.0,0.0,0.0,0.0,3.4989,3.4402,3.3613,3.5009,3.4759,3.3731,3.2108,3.1471,3.0632,2.8344,2.7963,2.8323,2.9072,2.9348,2.8738,2.6178,2.4108,2.2266,2.0687,2.0658,2.1055,2.1618,2.1937,2.2344,2.3029,2.3117,2.3205,2.3356,0.0,0.0,0.0,0.0,0.0,0.0,0.0,2.2181,2.2059,2.1618,2.1265,2.1001,2.0845,2.0756,2.0716,2.0594,2.0476,2.0476,2.0476,2.0476,2.0476,2.0476,2.0614,2.0716,2.0756,1.9346,1.7389,2.0128,1.9637,1.7147,1.5434,1.3074,1.009,0.0,0.0,0.0,0.0,0.0,0.0,0.0,0.0,0.0,0.0,0.0,0.0,0.0,0.0,0.0,0.0,0.0,0.0,0.0,0.0,4.3609,4.4267,4.4356,4.4913,4.6054,4.8559,4.981,4.9771,5.0598,4.9868,4.7682,4.5518,4.4514,4.4414,4.2838,4.2135,4.1893,3.8212,3.6671,3.6474,3.3781,0.0,0.0,0.0,0.0,0.0,0.0,0.0,0.0,0.0,0.0,0.0,0.0,0.0,3.5695,3.5474,3.5563,3.5697,3.5387,3.5176,3.4292,3.1337,3.0085,2.9555,2.9403,2.9339,2.9673,3.0808,3.1002,2.9661,2.5106,2.1562,2.0363,2.3528,2.2737,2.195,2.2481,0.0,2.2886,2.3289,2.3343,2.3356,0.0,0.0,0.0,0.0,0.0,0.0,0.0,0.0,0.0,2.1903,2.1462,2.1157,2.1001,2.0845,2.0702,2.0496,2.0539,2.0476,2.0476,2.0476,2.0476,2.0476,2.0476,2.0539,2.051,2.0716,2.0743,2.0702,2.1026,2.1095,2.018,1.3561,1.089,0.9685,0.0,0.0,0.0,0.0,0.0,0.0,0.0,0.0,0.0,0.0,0.0,0.0,0.0,0.0,0.0,0.0,0.0,0.0,0.0,4.3698,4.4207,4.4885,4.5313,4.5971,4.6899,4.9471,5.1753,5.3683,5.3778,5.2358,4.9469,4.7458,4.5642,4.4066,4.314,4.2688,4.2443,3.8826,3.7394,3.7392,3.437,3.3594,0.0,0.0,0.0,0.0,0.0,0.0,0.0,0.0,3.3001,3.4001,3.3774,3.4746,3.5903,3.5527,3.4852,3.4179,3.3684,3.2665,3.157,3.0775,3.0128,2.9752,3.003,3.0595,3.1557,3.3106,3.3574,3.2149,2.7204,2.2588,2.0181,2.2093,2.236,2.2466,2.2907,2.3008,2.3117,2.3293,2.3307,2.3307,0.0,0.0,0.0,0.0,0.0,0.0,0.0,0.0,0.0,2.1597,2.1177,2.0912,2.0858,2.0702,2.0594,2.0476,2.0476,2.0476,2.0476,2.0476,2.0476,2.0476,2.0476,2.0648,2.0824,2.0892,1.9732,1.7952,1.7992,1.9381,2.0519,1.3368,1.0722,0.9677,0.0,0.0,0.0,0.0,0.0,0.0,0.0,0.0,0.0,0.0,0.0,0.0,0.0,0.0,0.0,0.0,0.0,0.0,4.3638,4.4237,4.4915,4.5603,4.6061,4.6988,4.8506,5.1109,5.3603,5.5925,5.5388,5.3323,4.9814,4.8008,4.5953,4.3793,4.3663,4.3584,4.324,3.9564,3.8186,3.82,3.5039,3.4101,0.0,0.0,0.0,0.0,0.0,0.0,0.0,0.0,3.0736,3.177,3.1629,3.2733,3.4001,3.3557,3.282,3.1948,3.0926,2.982,2.8987,2.9217,2.9547,3.0127,3.145,3.2372,3.3467,3.5338,3.4314,3.166,2.709,2.2878,2.0329,2.1089,2.2038,2.2818,2.3171,2.3219,2.3219,2.3219,2.3185,2.3151,0.0,0.0,0.0,0.0,0.0,0.0,0.0,0.0,0.0,0.0,2.0967,2.077,2.077,2.0614,2.0476,2.0476,2.0476,2.0476,2.0476,2.0476,2.0476,2.0476,2.0594,2.0736,2.0933,2.1034,1.976,1.7745,1.77,1.9273,2.059,1.338,1.1423,1.1416,0.0,0.0,0.0,0.0,0.0,0.0,0.0,0.0,0.0,0.0,0.0,0.0,0.0,0.0,0.0,0.0,0.0,0.0,4.4296,4.4915,4.5603,4.6271,4.63,4.7826,5.1086,5.3803,5.5508,5.6196,5.5281,5.2623,4.8479,4.6736,4.5172,4.385,4.4659,4.4856,4.4307,4.0495,3.8932,3.8734,3.5863,3.4453,0.0,0.0,0.0,0.0,0.0,0.0,0.0,0.0,2.9371,2.8842,2.9087,2.9519,2.9836,2.9352,2.9535,2.9402,2.7207,2.6962,2.7173,2.6575,2.7976,3.0448,3.3911,3.4763,3.5364,3.7352,3.2858,2.7461,2.3959,2.1761,2.0638,2.1143,2.2215,2.3063,2.3205,2.3219,2.3219,2.3219,2.3097,2.3008,0.0,0.0,0.0,0.0,0.0,0.0,0.0,0.0,0.0,0.0,2.0845,2.077,2.077,2.0614,2.0476,2.0476,2.0476,2.0476,2.0476,2.0476,2.0476,2.0539,2.0702,2.077,2.079,2.1089,2.1299,2.1421,2.1265,2.1408,2.0794,1.3469,1.3113,1.5232,0.0,0.0,0.0,0.0,0.0,0.0,0.0,0.0,0.0,0.0,0.0,0.0,0.0,0.0,0.0,0.0,0.0,0.0,4.3638,4.5104,4.5882,4.5603,4.6501,4.7459,4.8446,5.1498,5.4327,5.6897,5.6155,5.3245,4.8353,4.7833,4.6303,4.4061,4.5202,4.4405,4.2062,3.9847,3.8429,3.7519,3.5869,3.5117,3.486,0.0,0.0,0.0,0.0,0.0,0.0,0.0,0.0,0.0,2.7501,2.9202,3.1208,3.0244,2.9653,2.9017,2.783,2.754,2.7687,2.8129,3.0229,3.2866,3.5164,3.5685,3.5764,3.6006,3.2784,2.8833,2.5346,2.2778,2.1211,2.1353,2.2201,2.294,2.3185,2.3219,2.3185,2.3083,2.3029,2.292,0.0,0.0,0.0,0.0,0.0,0.0,0.0,0.0,0.0,0.0,2.0682,2.0614,2.0614,2.056,2.0476,2.0476,2.0476,2.0476,2.0476,2.0476,2.0476,2.0539,2.0702,2.0824,2.0946,2.1143,2.1299,2.1421,2.1265,2.1333,2.091,1.6209,1.523,1.5461,0.0,0.0,0.0,0.0,0.0,0.0,0.0,0.0,0.0,0.0,4.0718,4.1753,0.0,0.0,0.0,0.0,0.0,0.0,0.0,4.5882,4.651,4.6112,4.6377,4.7022,4.8076,5.0307,5.2314,5.4062,5.3638,5.129,4.7214,4.8211,4.7373,4.5151,4.7534,4.6444,4.2746,4.0904,3.9078,3.7323,3.6329,3.5225,3.4113,0.0,0.0,0.0,0.0,0.0,0.0,0.0,0.0,0.0,2.5589,2.7065,2.8774,2.8227,2.751,2.6961,2.7092,2.7252,2.7736,2.9339,3.1643,3.4242,3.658,3.7569,3.7644,3.6276,3.4363,3.1516,2.6641,2.4617,2.3214,2.188,2.2357,2.294,2.3117,2.313,2.3083,2.294,2.2818,2.2676,0.0,0.0,0.0,0.0,0.0,0.0,0.0,0.0,0.0,0.0,2.053,2.0476,2.0476,2.0476,2.0476,2.0476,2.0476,2.0476,2.0476,2.0476,2.0476,2.0539,2.0702,2.0892,2.1089,2.1123,2.1211,2.1333,2.1245,2.1333,2.107,1.7422,1.7041,1.7796,0.0,0.0,0.0,0.0,0.0,0.0,0.0,0.0,0.0,0.0,4.1691,4.2152,0.0,0.0,0.0,0.0,0.0,0.0,0.0,0.0,4.7236,4.7038,4.5862,4.6384,4.888,4.9622,4.9651,4.9024,4.9129,4.7947,4.5532,4.8015,4.8273,4.6762,5.036,4.9411,4.4933,4.2629,4.0127,3.766,3.6768,3.4878,3.2427,3.1197,0.0,0.0,0.0,0.0,0.0,0.0,0.0,0.0,2.3998,2.4165,2.4329,2.4532,2.4342,2.4352,2.577,2.66,2.7749,3.0448,3.2759,3.5164,3.821,3.996,4.0161,3.7501,3.689,3.4813,2.8174,2.7079,2.6153,2.3117,2.2838,2.3008,2.3008,2.2995,2.292,2.2764,2.25,2.2323,0.0,0.0,0.0,0.0,0.0,0.0,0.0,2.0756,0.0,2.0539,2.0476,2.0476,2.0476,2.0476,2.0476,0.0,2.0476,2.0476,2.0476,2.0496,2.051,2.053,2.0716,2.0946,2.1197,2.1055,2.1089,2.1231,2.1211,2.1387,2.1236,1.7847,1.8725,2.1169,0.0,0.0,0.0,0.0,0.0,0.0,0.0,0.0,0.0,0.0,0.0,0.0,0.0,0.0,0.0,0.0,0.0,0.0,0.0,0.0,4.6628,4.5075,4.4303,4.4649,4.6195,4.6899,4.7182,4.7014,4.8554,4.7978,4.5458,4.7808,4.8349,4.7379,4.7827,4.6032,4.2564,3.9845,3.7831,3.6271,3.4845,3.3792,3.2733,2.9697,0.0,0.0,0.0,0.0,0.0,0.0,0.0,0.0,2.6296,2.5662,2.4863,2.4653,2.5197,2.6039,2.7054,2.827,2.994,3.2839,3.5751,3.8437,4.0067,4.0869,4.0291,3.7019,3.6825,3.5953,3.1813,2.9156,2.7482,2.6825,2.4633,2.3008,2.3008,2.2907,2.273,2.2466,2.2308,2.2201,0.0,0.0,0.0,0.0,0.0,0.0,2.077,2.0668,0.0,2.0476,2.0476,2.0476,2.0476,2.0476,2.0476,0.0,2.0476,2.0476,2.0539,2.0668,2.079,2.0892,2.0811,2.0946,2.1197,2.1055,2.1157,2.1321,2.1265,2.1319,2.1356,2.0538,2.0744,2.1356,0.0,0.0,0.0,0.0,0.0,0.0,0.0,0.0,0.0,0.0,0.0,0.0,0.0,0.0,0.0,0.0,0.0,0.0,0.0,0.0,4.5678,4.4037,4.3667,4.4093,4.5366,4.6068,4.6362,4.6293,4.7659,4.741,4.5805,4.8543,4.9392,4.8711,4.8604,4.6552,4.304,4.0397,3.7569,3.4824,3.4411,3.2802,3.048,2.8863,0.0,2.8828,2.7852,0.0,0.0,0.0,0.0,0.0,0.0,0.0,2.6089,2.5272,2.5384,2.6132,2.7869,2.9419,3.149,3.5444,3.8103,3.9967,4.0909,4.135,4.1078,3.9414,3.9513,3.8829,3.5523,3.3758,3.1818,2.851,2.6625,2.4892,2.3073,2.2656,2.2479,2.2249,2.2113,2.1937,0.0,0.0,0.0,0.0,0.0,2.0736,2.0668,2.058,2.0476,2.0476,2.0476,2.0476,2.0476,2.0476,2.0476,2.0476,2.0476,2.0573,2.0648,2.0668,2.0756,2.0878,2.0736,2.079,2.1001,2.0933,2.098,2.1123,2.1197,2.1265,2.1333,2.1408,2.1375,2.1375,0.0,0.0,0.0,0.0,0.0,0.0,0.0,0.0,0.0,0.0,0.0,0.0,0.0,0.0,0.0,0.0,0.0,0.0,0.0,0.0,0.0,4.3575,4.3504,4.4093,4.5366,4.6183,4.6512,4.6367,4.7161,4.7281,4.6824,4.9365,5.0257,4.968,4.9529,4.7471,4.3942,4.1358,3.7742,3.3732,3.4195,3.1772,2.7955,0.0,0.0,2.8032,2.8357,2.9544,3.1011,3.1196,0.0,0.0,0.0,0.0,2.746,2.6367,2.5742,2.5905,2.8268,3.0474,3.3133,3.7595,3.9599,4.0615,4.1101,4.1497,4.1777,4.2004,4.2338,4.175,3.9061,3.8416,3.6412,3.0639,2.8812,2.7224,2.4686,2.3124,2.2428,2.287,2.2192,2.1618,0.0,0.0,0.0,0.0,0.0,2.0682,2.0539,2.0476,2.0476,2.0476,2.0476,2.0476,2.0476,2.0476,2.0476,2.0476,2.0476,2.0614,2.0736,2.0594,2.0627,2.077,2.0614,2.0627,2.077,2.0804,2.0811,2.0845,2.1143,2.1211,2.1197,2.1367,2.1421,2.1341,0.0,0.0,0.0,0.0,0.0,0.0,0.0,0.0,0.0,0.0,4.2815,0.0,0.0,0.0,0.0,0.0,0.0,0.0,0.0,0.0,0.0,4.3575,4.3504,4.4093,4.5366,4.6639,4.7192,4.7075,4.8326,4.9136,4.9458,4.9323,4.9066,4.8697,4.6698,4.4591,4.2301,3.9147,3.6363,3.4001,3.2742,3.0495,2.7955,0.0,0.0,0.0,3.1808,3.3637,3.5184,3.5207,3.4362,0.0,0.0,0.0,2.841,2.8237,2.7421,2.6894,2.8283,3.1971,3.5952,3.8183,3.9599,4.0548,4.0909,4.1203,4.1354,4.1394,4.1884,4.2225,4.207,3.9802,3.765,3.6733,3.179,2.8776,3.0884,2.5917,2.3182,2.5922,2.3421,2.1421,0.0,0.0,0.0,0.0,2.0668,2.056,2.0476,2.0476,2.0476,2.0476,2.0476,2.0476,2.0476,2.0476,2.0476,2.0476,2.0476,2.0496,2.051,2.0496,2.0627,2.077,2.0614,2.0627,2.079,2.0912,2.0967,2.1001,2.1299,2.1245,2.1068,2.1333,2.1353,2.1265,0.0,0.0,0.0,0.0,0.0,0.0,0.0,0.0,0.0,0.0,0.0,4.4126,0.0,0.0,0.0,0.0,0.0,0.0,0.0,0.0,0.0,4.4581,4.4558,4.5161,4.6432,4.7004,4.6881,4.601,4.6924,4.8339,5.0218,5.0288,5.0699,5.1261,4.6666,4.4512,4.3957,3.9278,3.6247,3.4522,3.3821,3.2207,0.0,0.0,0.0,0.0,0.0,0.0,0.0,3.6387,3.612,3.5583,3.4518,0.0,0.0,0.0,2.7742,2.7241,3.0234,3.3146,3.5952,3.8571,3.9706,4.0361,4.0802,4.1122,4.1274,4.1274,4.1501,4.1857,4.2325,4.1391,4.0026,3.8272,3.5447,3.2573,3.0031,2.8402,2.7219,2.6669,2.5027,2.3934,0.0,0.0,0.0,0.0,2.0627,2.0476,2.0476,2.0476,2.0476,2.0476,2.0476,2.0476,2.0476,2.0476,2.0476,2.0476,2.0476,2.0476,2.0412,1.8549,1.8713,2.0648,2.051,2.0573,2.0648,2.0716,2.0736,2.077,2.098,2.1034,2.1021,2.1231,2.1319,2.1353,0.0,0.0,0.0,0.0,0.0,0.0,0.0,0.0,0.0,0.0,0.0,0.0,0.0,0.0,0.0,0.0,0.0,0.0,0.0,0.0,0.0,4.5389,4.5711,4.6322,4.7287,4.7234,4.6357,4.4662,4.5257,4.7034,4.9821,5.0225,5.1832,5.4197,4.848,4.5935,4.5617,4.0455,3.7344,3.5823,3.528,3.3813,0.0,0.0,0.0,0.0,0.0,0.0,0.0,0.0,0.0,3.7384,3.5856,3.4175,0.0,0.0,0.0,2.7415,3.1089,3.3066,3.4711,3.7635,3.8985,3.9746,4.0321,4.0802,4.1122,4.1122,4.1229,4.1394,4.1817,4.2258,4.1827,3.9545,3.8305,3.6139,3.1746,3.0669,2.9655,2.7817,2.5912,2.4685,0.0,0.0,0.0,0.0,2.0614,2.0476,2.0476,2.0476,2.0476,2.0476,2.0476,2.0476,2.0476,2.0476,2.0476,2.0476,2.0476,2.0476,2.0412,1.7848,1.8091,2.0476,1.9579,1.9706,2.0476,2.058,2.0573,2.0496,2.0756,2.0858,2.0912,2.1123,2.1265,2.1333,0.0,0.0,0.0,0.0,0.0,0.0,0.0,0.0,0.0,0.0,0.0,0.0,0.0,0.0,4.203,4.2467,0.0,0.0,0.0,0.0,0.0,4.5434,4.6572,0.0,4.7309,4.7234,4.5982,4.3494,4.4285,4.5885,4.8208,4.8049,5.0997,5.6287,5.2235,4.8803,4.5783,4.2421,4.002,3.833,3.6274,0.0,0.0,0.0,0.0,0.0,0.0,0.0,0.0,0.0,0.0,0.0,0.0,3.7164,3.6009,0.0,0.0,0.0,2.9219,3.0929,3.2692,3.4484,3.6687,3.8504,3.906,3.986,4.0508,4.0508,4.0949,4.1208,4.1016,4.167,4.2181,4.2005,3.9576,3.8461,4.0754,3.2886,2.7864,3.0614,2.5069,2.1105,2.1105,0.0,0.0,0.0,2.0539,2.0476,2.0476,2.0476,2.0476,2.0476,2.0476,2.0476,2.0476,2.0476,2.0476,2.0476,2.0476,2.0476,2.0476,2.0342,2.0342,2.0342,1.7066,1.7518,2.0496,2.0702,2.0668,2.051,2.0878,2.0824,2.0614,2.1055,2.1123,2.1068,0.0,0.0,0.0,0.0,0.0,0.0,0.0,0.0,0.0,0.0,0.0,0.0,0.0,4.1099,4.0709,3.9687,4.157,0.0,0.0,0.0,0.0,4.6638,4.7062,4.7065,4.6593,4.6489,4.5347,4.3141,4.3649,4.4958,4.7045,4.8131,5.0476,5.3551,4.9825,4.785,4.6982,4.1762,3.9351,3.8899,3.757,0.0,0.0,0.0,0.0,0.0,0.0,0.0,0.0,0.0,0.0,0.0,0.0,0.0,0.0,3.2433,2.9529,2.7869,2.9352,3.0354,3.1543,3.3895,3.5538,3.6834,3.7782,3.7319,3.6708,3.6708,3.7139,3.7607,3.7668,3.9844,4.171,4.1897,4.1011,3.987,3.8607,3.5276,3.2383,3.104,2.6694,2.3818,2.3818,0.0,0.0,0.0,0.0,2.0476,2.0476,2.0476,2.0476,2.0476,2.0476,2.0476,2.0476,2.0476,2.0476,2.0476,2.0476,2.0476,2.0412,1.8224,1.8421,2.0278,1.6886,1.7327,2.0539,2.0594,2.053,2.0496,2.0597,2.0702,2.0702,2.0878,2.1021,2.1157,0.0,0.0,0.0,0.0,0.0,0.0,0.0,0.0,0.0,0.0,0.0,0.0,0.0,0.0,3.998,3.9615,4.1501,4.397,4.7089,4.7309,4.7309,4.7309,4.7309,4.6956,4.6217,4.5611,4.4382,4.2398,4.2427,4.3339,4.5095,4.6583,4.8535,5.0633,4.7236,4.6804,4.8338,4.3001,4.0723,4.0586,0.0,0.0,3.9723,0.0,0.0,0.0,0.0,0.0,0.0,0.0,0.0,0.0,0.0,0.0,0.0,0.0,2.9815,2.7909,2.8898,2.9459,3.0381,3.2933,3.3935,3.479,3.666,3.525,3.3993,3.5616,3.561,3.5749,3.7164,3.9395,4.1163,4.1563,4.1644,4.0378,3.6842,3.5324,3.3178,2.9429,2.5916,2.385,2.385,0.0,0.0,0.0,0.0,0.0,2.0476,2.0476,2.0476,2.0476,2.0476,2.0476,2.0476,2.0476,2.0476,2.0476,2.0476,2.0476,2.0412,1.8155,1.8352,2.0349,1.8091,1.8415,2.0476,2.0476,2.0476,2.0476,2.0476,2.0614,2.0702,2.0811,2.0967,2.1157,0.0,0.0,0.0,0.0,0.0,0.0,0.0,0.0,0.0,3.8015,0.0,0.0,0.0,0.0,0.0,4.2503,4.3721,4.52,4.7163,4.7309,4.7309,4.7309,0.0,0.0,4.6205,4.4769,4.309,4.1212,4.0601,4.098,4.2323,4.3242,4.5215,4.793,4.5039,4.5983,4.9561,4.6245,4.4436,4.3519,0.0,4.0214,4.1147,0.0,0.0,0.0,4.5214,4.3808,0.0,0.0,0.0,0.0,0.0,0.0,0.0,0.0,0.0,0.0,0.0,0.0,0.0,3.1436,3.1824,3.2514,3.5645,3.3763,3.274,3.7517,3.6596,3.6043,3.9656,4.0407,4.0655,4.1168,4.1212,3.9877,3.6393,3.2964,2.952,2.5936,2.2532,2.0476,2.0476,0.0,0.0,0.0,2.0476,2.0476,2.0476,2.0476,2.0476,2.0476,2.0476,2.0476,2.0476,2.0476,2.0476,2.0476,2.0476,2.0476,2.0476,2.0476,2.0476,2.0476,2.0476,2.0476,2.0476,2.0476,2.0476,2.0476,2.0476,2.0476,2.051,2.0878,2.1001,2.1034,0.0,0.0,0.0,0.0,0.0,0.0,3.6452,3.7287,3.8015,0.0,0.0,0.0,0.0,0.0,4.0097,4.3011,4.319,4.4367,4.7119,4.7309,4.7309,4.7309,4.7758,4.7411,4.6083,4.5288,4.375,4.1492,4.0504,4.0208,4.0625,4.1777,4.3105,4.4492,4.4609,4.55,4.6675,4.2544,4.2539,4.4964,4.0994,4.1995,0.0,0.0,0.0,0.0,0.0,4.3695,0.0,0.0,4.2773,4.1869,0.0,0.0,0.0,0.0,0.0,0.0,2.7762,0.0,0.0,0.0,0.0,0.0,3.2652,3.106,3.0066,3.292,3.329,3.3828,3.6068,3.8695,4.0569,4.0695,3.8877,3.6951,3.58,3.087,2.6929,2.563,2.245,2.0383,2.0383,2.0383,0.0,0.0,2.0422,2.0476,2.0476,2.0476,2.0476,2.0476,2.0476,2.0476,2.0476,2.0476,2.0476,2.0476,2.0476,2.0476,2.0476,2.0476,2.0476,2.0476,2.0476,2.0476,2.0476,2.0476,2.0476,2.0476,2.0476,2.0476,2.056,2.0756,2.0912,2.1021,0.0,0.0,0.0,0.0,0.0,3.6867,3.6235,3.6898,3.7236,0.0,0.0,0.0,3.9946,0.0,4.1595,4.4059,4.3966,4.5024,4.7955,4.7878,4.7728,4.7728,4.8087,4.7601,4.6031,4.5661,4.4227,4.1614,4.0635,3.9937,3.9629,4.0566,4.1269,4.1817,4.334,4.4151,4.4332,4.2167,0.0,0.0,4.3392,0.0,0.0,4.6372,4.5832,0.0,0.0,0.0,4.5937,4.5566,4.413,0.0,0.0,0.0,0.0,0.0,0.0,0.0,0.0,0.0,0.0,2.9312,0.0,0.0,3.135,2.9453,2.8322,3.1769,3.1958,3.2379,3.5283,3.7749,3.9025,3.7865,3.5194,3.3282,3.337,2.8986,2.5101,2.352,2.1508,2.0241,2.0241,2.0241,2.0241,2.0241,2.0315,2.0383,2.0388,2.0442,2.0476,2.0476,2.0476,2.0476,2.0476,2.0476,2.0476,2.0476,2.0476,2.0476,2.0476,2.0476,2.0476,2.0476,2.0476,2.0476,2.0476,2.0476,2.0476,2.0476,2.0476,2.0573,2.0648,2.0804,2.0967,2.1109,0.0,0.0,4.0685,4.0294,3.9044,3.7668,3.6358,3.6506,3.6417,0.0,3.6989,3.9021,4.0944,0.0,0.0,0.0,4.5492,4.6534,4.9208,4.8858,4.8476,4.8409,4.8335,4.7585,4.6114,4.5707,4.4235,4.1703,4.0737,3.9922,3.9219,3.9726,3.9941,3.9958,4.1575,4.2397,4.2622,4.3561,0.0,4.6847,4.6656,4.7164,0.0,0.0,5.0416,0.0,5.1799,5.1138,4.8555,4.7514,4.4568,0.0,0.0,0.0,0.0,0.0,2.9648,0.0,0.0,0.0,0.0,0.0,0.0,0.0,3.0822,2.8706,2.7638,3.2573,3.1904,3.168,3.5915,3.7235,3.6775,3.3967,3.1251,2.9601,2.9893,2.6931,2.3668,2.0636,2.0173,2.0085,2.0085,2.0085,2.0085,2.0085,2.0085,2.0173,2.0266,2.0388,2.0462,2.0476,2.0476,2.0476,2.0476,2.0476,2.0476,2.0476,2.0476,2.0476,2.0476,2.0476,2.0476,2.0476,2.0476,2.0476,2.0476,2.0476,2.0476,2.0476,2.0476,2.0627,2.077,2.0912,2.1068,2.1211,0.0,0.0,4.164,4.2084,4.0249,3.8617,3.8339,3.7733,3.7966,3.9717,4.1877,4.37,4.5041,4.4267,0.0,0.0,4.6572,4.7234,4.9849,4.992,4.9613,4.9127,4.8529,4.7722,4.667,4.4187,4.2685,4.2226,4.0044,3.9056,3.9219,4.0019,4.0215,3.994,4.0277,4.108,4.2165,4.2788,0.0,4.7232,4.5983,0.0,5.2927,5.0099,4.9932,5.1288,5.1632,5.1755,5.1543,0.0,4.6476,4.2577,0.0,0.0,0.0,0.0,0.0,0.0,0.0,0.0,0.0,0.0,0.0,0.0,2.9299,2.9162,2.9586,3.1362,3.1715,3.2424,3.4765,3.6046,3.5806,3.2978,3.0371,2.8192,2.6717,2.3465,2.1006,2.0392,2.0085,1.9922,1.9922,1.9922,1.9922,1.9922,2.0031,2.0173,2.0266,2.0349,2.0417,2.0476,2.0476,2.0476,2.0476,2.0476,2.0476,2.0476,2.0476,2.0476,2.0476,2.0476,2.0476,2.0476,2.0476,2.0476,2.0476,2.0476,2.0476,2.0476,2.0476,2.0496,2.0614,2.0756,2.0912,2.1068,0.0,4.3572,4.238,4.3338,4.1394,3.9639,3.9476,3.9044,3.9229,4.0569,4.3589,4.5791,4.6235,4.5799,0.0,0.0,0.0,0.0,0.0,5.065,5.0548,5.0242,4.9183,4.8194,4.733,4.5077,4.3412,4.2415,4.048,3.9442,3.9219,3.9902,3.9746,3.8982,4.0775,4.151,4.1481,4.3322,4.5274,4.7165,4.7432,0.0,5.3387,5.151,5.1719,5.3047,5.3047,5.332,5.3242,5.0215,4.6568,0.0,0.0,3.4139,3.0981,0.0,2.8698,2.8524,0.0,0.0,0.0,2.8821,0.0,0.0,0.0,3.0636,3.128,3.3442,3.31,3.2873,3.4435,3.4378,3.2853,2.9122,2.7749,2.592,2.2646,2.0954,2.0098,2.0098,1.9908,1.9827,1.9827,1.9827,1.9827,1.9827,1.9908,2.0051,2.0207,2.0232,2.0334,2.0476,2.0476,2.0476,2.0476,2.0476,2.0476,2.0476,2.0476,2.0476,2.0476,2.0476,2.0476,2.0476,2.0476,2.0476,2.0476,2.0476,2.0476,2.0476,2.0476,2.053,2.0682,2.0824,2.098,2.1123,0.0,0.0,4.3023,4.4125,4.2367,4.0778,4.0587,4.0506,4.0697,4.1353,4.488,4.7392,4.7558,0.0,0.0,0.0,0.0,0.0,0.0,0.0,0.0,5.056,4.9406,4.8091,4.6569,4.5518,4.4065,4.2168,4.1039,4.0088,3.9355,3.9883,3.9531,3.8513,4.122,4.1772,4.0803,4.3121,4.4975,4.6518,0.0,5.0375,5.1849,5.2706,5.332,5.3887,5.4746,5.4941,5.4277,5.0829,0.0,4.2188,3.8036,3.4037,0.0,0.0,0.0,0.0,0.0,0.0,0.0,0.0,0.0,2.9635,0.0,0.0,0.0,3.4584,3.3738,3.2835,3.3554,3.2501,3.02,2.6031,2.5868,2.4842,0.0,2.018,0.0,1.9705,1.9562,1.9494,1.9582,1.9562,1.9582,1.9671,1.9678,1.982,2.0085,2.0227,2.03,2.0476,2.0476,2.0476,2.0476,2.0476,2.0476,2.0476,2.0476,2.0476,2.0476,2.0476,2.0476,2.0476,2.0476,2.0476,2.0476,2.0476,2.0476,2.0476,2.0476,2.0614,2.0756,2.0892,2.1055,2.1197,4.6181,4.4662,0.0,4.418,4.3048,4.213,4.259,4.2379,4.3023,4.5549,4.8265,5.0522,0.0,0.0,0.0,0.0,0.0,0.0,5.4482,0.0,0.0,4.8191,4.8029,4.6167,4.2139,4.2467,4.2257,4.132,4.078,4.0267,3.9824,4.0644,4.0742,4.0176,3.9441,3.965,4.0497,3.9711,4.1433,0.0,4.6982,4.8329,0.0,5.0952,5.2148,5.3164,5.5527,5.5879,5.4941,0.0,4.8273,4.2789,0.0,3.556,0.0,0.0,0.0,0.0,0.0,0.0,0.0,0.0,3.1156,0.0,0.0,0.0,3.2617,3.0035,0.0,3.1857,0.0,0.0,0.0,0.0,0.0,0.0,2.5175,2.2975,2.0916,1.9114,1.864,1.864,1.9027,1.8997,1.9027,1.9434,1.9237,1.9379,2.0064,2.0119,2.0261,2.0476,2.0476,2.0476,2.0476,2.0476,2.0476,2.0476,2.0476,2.0476,2.0476,2.0476,2.0476,2.0476,2.0476,2.0476,2.0476,2.0476,2.0476,2.0476,2.0476,2.0496,2.053,2.0736,2.0892,2.1055,4.5331,4.4271,0.0,4.3637,4.2837,4.2688,4.422,4.6488,4.8443,4.966,5.1827,0.0,0.0,0.0,0.0,0.0,0.0,5.1392,0.0,0.0,0.0,0.0,0.0,0.0,4.4315,4.3281,4.2242,4.1205,4.0484,4.0195,4.0273,4.0625,4.043,3.9766,3.998,4.0234,4.0508,4.0996,4.2422,0.0,0.0,0.0,0.0,5.2237,5.4219,5.5058,5.5898,5.5976,5.4934,0.0,4.6648,0.0,0.0,0.0,0.0,0.0,0.0,0.0,0.0,0.0,0.0,0.0,0.0,0.0,0.0,0.0,3.5256,0.0,0.0,0.0,0.0,0.0,0.0,0.0,2.7071,0.0,0.0,0.0,2.0669,0.0,0.0,0.0,1.8565,1.8552,1.8586,1.8776,1.883,1.9061,1.9556,1.982,2.0098,2.0404,2.0442,2.0476,2.0476,2.0476,2.0476,2.0476,2.0476,2.0476,2.0476,2.0476,2.0476,2.0476,2.0476,2.0476,2.0476,2.0476,2.0476,2.0476,2.0476,2.0476,2.051,2.0804,2.0946,2.1034,4.4088,0.0,0.0,0.0,4.2646,4.3039,4.5547,4.8686,0.0,0.0,0.0,0.0,5.5767,5.4838,0.0,0.0,0.0,5.3515,0.0,0.0,5.1143,0.0,0.0,0.0,0.0,0.0,4.2514,4.0833,4.034,4.0293,4.0703,4.0703,4.0351,3.9785,4.0859,4.1367,4.1504,4.3105,4.457,4.5957,4.7656,4.8965,5.0234,5.3516,5.5527,5.6523,5.6094,5.5287,5.3682,4.8553,4.5217,0.0,3.7757,0.0,0.0,0.0,0.0,0.0,3.3029,0.0,0.0,0.0,0.0,0.0,0.0,0.0,0.0,0.0,0.0,0.0,0.0,0.0,0.0,0.0,0.0,2.6256,0.0,0.0,0.0,0.0,0.0,0.0,0.0,1.8091,1.8124,1.8247,1.8342,1.862,1.9115,1.9488,1.9875,2.0261,2.0388,2.0476,2.0476,2.0476,2.0476,2.0476,2.0476,2.0476,2.0476,2.0476,2.0476,2.0476,2.0476,2.0476,2.0476,2.0476,2.0476,2.0476,2.0476,2.0476,2.051,2.0892,2.1001,2.1034,4.271,4.302,0.0,0.0,4.2646,4.3291,0.0,0.0,0.0,0.0,0.0,0.0,0.0,0.0,0.0,0.0,0.0,5.5293,5.6542,0.0,5.0489,0.0,0.0,0.0,0.0,0.0,0.0,3.9919,4.0293,4.0723,4.1191,4.1191,4.1172,4.1133,4.1582,4.2461,4.3691,4.5019,4.7051,4.9512,5.123,5.3418,5.5455,0.0,5.4798,5.6523,5.6094,0.0,0.0,4.9121,4.478,0.0,0.0,0.0,0.0,0.0,0.0,0.0,0.0,0.0,0.0,0.0,0.0,0.0,0.0,0.0,3.8166,0.0,0.0,0.0,0.0,0.0,0.0,0.0,0.0,0.0,0.0,0.0,0.0,0.0,0.0,0.0,0.0,1.7534,1.7629,1.807,1.7704,1.7914,1.8938,1.9149,1.9501,2.0085,2.0383,2.0476,2.0476,2.0476,2.0476,2.0476,2.0476,2.0476,2.0476,2.0476,2.0476,2.0476,2.0476,2.0476,2.0476,2.0476,2.0476,2.0476,2.0476,2.0476,2.051,2.0892,2.1001,2.1034,0.0,0.0,0.0,0.0,0.0,0.0,0.0,4.9389,0.0,0.0,0.0,0.0,0.0,0.0,6.2647,0.0,0.0,5.9935,5.8165,5.5809,0.0,0.0,0.0,4.8437,0.0,0.0,0.0,0.0,4.1216,4.1035,4.1211,4.1211,4.1211,4.125,4.2207,4.3359,4.4726,4.6894,0.0,0.0,0.0,5.457,5.6308,0.0,0.0,5.6484,5.5781,5.3522,0.0,4.7287,4.3515,3.9709,3.7286,3.5628,3.4911,3.6345,3.7642,0.0,0.0,0.0,4.3884,4.2044,0.0,0.0,0.0,0.0,0.0,0.0,0.0,0.0,0.0,0.0,0.0,0.0,0.0,0.0,0.0,0.0,0.0,0.0,0.0,0.0,0.0,0.0,0.0,1.7122,1.7007,1.725,1.8057,1.8708,1.9237,1.9644,2.0139,2.0388,2.0476,2.0476,2.0485,2.0397,2.0485,2.0422,2.0397,2.0442,2.0476,2.0476,2.0476,2.0476,2.0476,2.0476,2.0476,2.0476,2.0476,2.0476,2.051,2.0892,2.1001,2.1034,4.4192,0.0,0.0,0.0,0.0,0.0,0.0,0.0,0.0,0.0,5.9985,0.0,6.6086,0.0,6.7015,0.0,6.576,6.3676,5.9533,5.8303,0.0,5.411,5.2653,0.0,0.0,0.0,0.0,0.0,0.0,4.1211,4.1211,4.1211,4.1211,4.1289,4.2988,4.4414,4.5683,4.8906,5.0762,0.0,0.0,5.5605,0.0,0.0,5.6445,5.6377,0.0,5.1858,4.8557,4.4887,4.2261,4.0095,3.7957,3.7747,3.853,3.9918,4.1271,4.2648,4.4428,4.5532,0.0,4.4556,4.3271,0.0,4.0516,0.0,0.0,0.0,0.0,0.0,0.0,0.0,0.0,0.0,0.0,0.0,0.0,0.0,0.0,0.0,0.0,0.0,0.0,0.0,1.632,1.6304,1.6398,1.6675,0.0,1.8145,1.885,1.9257,1.9963,2.0334,2.0476,2.0476,2.0408,2.0329,2.0417,2.0383,2.0261,2.0397,2.0408,2.0408,2.0462,2.0476,2.0476,2.0476,2.0476,2.0476,2.0476,2.0476,2.051,2.0892,2.1068,2.1177,0.0,0.0,0.0,0.0,4.5405,0.0,0.0,0.0,5.5677,0.0,6.227,6.5735,6.8547,6.928,6.9607,6.9556,6.9004,0.0,6.104,6.1617,0.0,0.0,5.4336,5.3293,4.9849,0.0,0.0,0.0,0.0,4.1328,4.1308,4.1113,4.1055,4.1152,4.3721,4.5336,4.6411,5.0831,5.3262,5.4206,5.5918,5.6601,5.6562,5.6113,5.6191,5.6164,5.2863,4.9226,4.5497,4.262,4.1397,4.0958,4.0627,4.2456,4.4634,4.4458,4.6279,4.832,4.827,4.8137,4.7795,4.725,0.0,0.0,0.0,0.0,3.7769,0.0,0.0,0.0,0.0,0.0,0.0,0.0,0.0,0.0,0.0,0.0,0.0,0.0,0.0,0.0,0.0,0.0,1.6076,1.5621,1.5886,1.6171,0.0,1.7494,1.8342,1.8952,1.9834,2.032,2.0476,2.0476,2.0408,2.0329,2.0266,2.0241,2.0098,2.0261,2.0315,2.0329,2.0408,2.0462,2.0462,2.0476,2.0476,2.0476,2.0476,2.0496,2.053,2.0892,2.119,2.1375,4.5698,4.7915,4.9718,0.0,4.8319,4.8159,0.0,0.0,0.0,0.0,6.5157,6.8773,7.1962,7.2439,7.2364,7.1865,7.0631,0.0,0.0,0.0,0.0,6.0373,5.9357,5.8025,5.6327,5.3131,0.0,4.8769,0.0,4.3506,4.2558,3.9963,3.8745,3.8875,4.1791,4.3185,4.38,5.005,5.3769,5.5455,5.6269,5.6777,0.0,0.0,5.5943,5.5929,5.4744,5.2115,4.9054,4.8312,4.6392,4.4205,4.3903,4.4548,4.57,4.7143,4.8716,4.9954,4.9728,4.9944,4.9456,4.6504,4.3205,4.0389,0.0,0.0,0.0,0.0,0.0,0.0,0.0,0.0,0.0,0.0,0.0,0.0,0.0,0.0,0.0,0.0,0.0,0.0,0.0,0.0,1.5404,1.5573,1.5499,1.5642,1.6164,0.0,1.7981,1.864,1.9413,2.0064,2.0476,2.0374,2.03,2.0329,2.0207,2.0139,2.0098,2.0139,2.0153,2.0173,2.0315,2.032,2.0334,2.0442,2.0476,2.0476,2.0476,2.0618,2.0892,2.0967,2.119,2.1375,4.6954,0.0,0.0,5.2518,0.0,0.0,5.4517,0.0,0.0,6.2621,6.6545,0.0,7.1912,7.3443,7.4071,7.3519,7.1937,0.0,0.0,0.0,0.0,6.4002,6.2546,6.1391,6.0498,5.5506,0.0,5.0782,0.0,4.3578,4.246,3.935,3.7896,3.7964,3.9486,4.0385,4.1158,4.8285,5.3223,5.625,5.6484,5.6719,0.0,5.6138,5.5885,5.5826,5.5449,5.3186,5.0237,4.9333,4.843,4.7645,4.7629,4.8561,4.9892,5.1214,5.1154,5.0701,5.0757,4.899,4.6618,4.4491,4.1448,3.8658,3.7647,3.6697,3.5562,0.0,0.0,0.0,0.0,0.0,0.0,0.0,0.0,0.0,0.0,0.0,0.0,0.0,0.0,0.0,0.0,0.0,1.4977,1.5181,1.533,1.5445,0.0,0.0,1.7683,1.8068,1.9128,1.9888,2.0349,2.0471,2.0417,2.0227,2.0207,2.0139,1.9997,2.0064,2.0064,2.001,2.0241,2.0329,2.0286,2.0422,2.0476,2.0476,2.0476,2.0682,2.0912,2.098,2.119,2.1375,4.8134,0.0,0.0,0.0,0.0,0.0,0.0,5.9798,0.0,6.4203,0.0,7.0606,7.1129,7.3594,7.4976,7.4473,0.0,7.1133,6.9074,6.8949,6.802,6.5936,6.4931,6.4153,6.3459,5.7118,0.0,0.0,0.0,4.3319,4.1913,3.8906,3.7516,3.7539,3.7146,3.7736,3.9466,4.5991,5.1467,5.5771,5.5926,5.6203,5.6523,5.6035,5.5615,5.5278,5.4853,5.3081,5.0679,4.8783,4.9438,5.0994,5.1285,5.2991,5.485,5.4725,5.2926,5.0885,5.0522,4.6384,4.2093,4.177,3.956,3.7235,3.6687,3.658,3.5958,3.3607,3.2737,0.0,0.0,0.0,0.0,0.0,0.0,0.0,0.0,0.0,0.0,0.0,0.0,0.0,0.0,0.0,0.0,1.4782,1.5249,0.0,0.0,0.0,1.7419,1.7615,1.8905,1.9827,2.0187,0.0,2.0539,2.0227,2.0275,2.0153,1.9908,2.001,1.9997,1.9916,2.0153,2.0275,2.0246,2.0388,2.0462,2.0476,2.0476,2.0627,2.079,2.0946,2.1177,2.1408,0.0,0.0,0.0,0.0,0.0,6.4591,6.7939,6.7836,6.7951,6.9577,7.3167,7.5603,7.5752,7.5427,7.4976,7.4473,7.3245,0.0,0.0,0.0,0.0,6.8728,6.8503,6.7925,6.694,6.3466,5.9415,0.0,0.0,0.0,4.2751,3.7657,3.5386,3.5591,3.5403,3.775,4.2025,4.411,0.0,5.139,5.2225,5.4162,5.6504,5.5723,5.409,5.2196,5.174,5.2589,5.3891,5.3486,5.3656,5.3866,5.3596,5.4487,5.5171,5.243,5.1728,5.0839,4.5982,4.3631,4.1941,3.9236,3.7976,3.7301,3.6941,3.7048,3.7176,3.6905,3.6626,3.6194,3.5485,0.0,0.0,0.0,0.0,0.0,0.0,0.0,0.0,0.0,0.0,0.0,0.0,0.0,0.0,0.0,0.0,0.0,0.0,0.0,1.7032,0.0,1.8654,0.0,0.0,0.0,2.056,2.0845,2.0363,2.0119,2.0064,1.9963,1.9841,1.9712,1.9875,2.0031,2.0153,2.0246,2.0374,2.0476,2.0476,2.0627,2.079,2.0946,2.1109,2.1265,0.0,0.0,0.0,0.0,0.0,0.0,0.0,7.2823,0.0,7.1309,7.2966,7.4197,7.3895,7.495,7.5452,7.4826,7.3496,7.274,7.2816,7.1987,7.1535,7.1585,7.0757,0.0,6.9526,0.0,6.0504,5.5759,0.0,0.0,4.2322,3.7282,3.499,3.4998,3.3129,3.532,4.0435,0.0,0.0,4.8242,4.9207,5.0528,5.1891,5.1459,5.0555,4.9423,4.8854,4.9404,5.0525,5.0722,5.0668,5.0507,5.0454,5.0849,5.1027,4.9544,4.8437,4.7049,4.4012,4.1931,4.0232,3.8459,3.7716,3.7342,3.7195,3.7382,3.7595,3.7595,3.7595,3.6765,3.4012,2.9679,0.0,0.0,0.0,0.0,0.0,0.0,0.0,0.0,0.0,0.0,0.0,0.0,0.0,0.0,0.0,0.0,0.0,0.0,1.672,0.0,0.0,0.0,0.0,0.0,0.0,2.0648,2.0438,2.0241,2.0098,2.0031,1.9875,1.9739,1.9888,2.0031,2.0119,2.0349,2.0422,2.0476,2.0476,2.053,2.0682,2.0912,2.1034,2.1143,0.0,6.1174,0.0,0.0,6.9616,0.0,7.3536,7.6212,7.6808,7.3318,7.3217,7.3318,7.2891,7.4923,7.6004,7.5452,7.4048,7.3546,7.4372,7.3167,7.2841,7.372,7.2514,7.1736,7.161,6.644,6.1316,0.0,0.0,0.0,0.0,3.7829,3.551,3.452,3.1628,0.0,0.0,0.0,4.1044,4.5265,4.6167,4.6964,4.7588,4.7505,4.7188,4.6646,4.5943,4.5301,4.4758,4.5083,4.5846,4.6636,4.6917,4.7099,4.7059,4.6644,4.5067,4.3328,4.2389,4.0414,3.8544,3.82,3.7772,3.7382,3.7382,3.7555,3.7702,3.7595,3.7635,3.6417,3.202,2.868,0.0,0.0,0.0,0.0,0.0,0.0,0.0,0.0,0.0,0.0,0.0,0.0,0.0,0.0,0.0,0.0,1.487,0.0,0.0,0.0,0.0,1.8918,1.9752,0.0,2.0614,0.0,2.0462,2.0397,2.0153,2.0153,2.001,1.9827,1.9997,2.0139,2.0207,2.0388,2.056,2.053,2.0496,2.0476,2.051,2.0892,2.1001,2.1034,0.0,0.0,0.0,0.0,0.0,0.0,7.6366,7.8151,7.9068,7.8666,7.8666,7.8666,7.8616,7.7536,7.6632,7.6079,7.5377,7.4776,7.4448,7.4272,7.4222,7.4322,7.4197,7.387,7.3368,7.0869,6.5749,0.0,0.0,0.0,0.0,0.0,0.0,0.0,0.0,0.0,0.0,3.5017,3.8081,4.1575,4.2714,4.4928,4.7538,4.7203,4.5655,4.3554,4.3079,4.104,3.863,3.8671,4.2189,4.6587,4.6489,4.6972,4.6916,4.3881,4.309,4.256,3.9548,3.8577,3.8183,3.7595,3.7422,3.7382,3.7382,3.7422,3.7569,3.8133,3.7782,3.6243,3.235,3.097,2.9341,0.0,0.0,0.0,0.0,0.0,0.0,0.0,0.0,0.0,0.0,0.0,0.0,0.0,0.0,0.0,0.0,0.0,0.0,1.6702,1.7859,1.9027,2.0051,2.0261,2.056,2.0933,2.0661,2.0388,2.0246,2.0246,2.0227,2.0064,2.0085,2.0261,2.0442,2.0462,2.0627,2.0736,2.0594,2.0476,2.051,2.0892,2.1001,2.1034,0.0,0.0,0.0,0.0,0.0,0.0,0.0,7.905,8.0097,8.075,8.0574,8.0122,7.9469,7.8792,7.7888,7.6707,7.6356,7.5979,7.5427,7.5402,7.5402,7.5402,7.5075,7.4751,7.4598,7.2062,6.7055,0.0,0.0,0.0,0.0,0.0,0.0,0.0,0.0,3.2438,3.3547,3.5191,3.7115,3.9182,4.0386,4.153,4.2453,4.2321,4.1503,4.0441,4.0091,3.9198,3.8076,3.8076,3.9461,4.109,4.1224,4.1589,4.1799,4.0588,4.0439,4.0391,3.8715,3.8174,3.7929,3.7702,3.7128,3.6782,3.7275,3.7235,3.7235,3.7692,3.7585,3.6849,3.4952,3.2804,3.1408,0.0,0.0,0.0,0.0,0.0,0.0,0.0,0.0,0.0,0.0,0.0,0.0,0.0,0.0,0.0,0.0,0.0,0.0,1.6863,0.0,1.8488,1.9698,2.0119,2.0408,2.0716,2.053,2.0408,2.0329,2.0329,2.0295,2.0241,2.0241,2.0349,2.0476,2.0476,2.0573,2.0627,2.056,2.0476,2.056,2.079,2.0933,2.1034,6.9655,0.0,7.1461,0.0,7.5987,7.6501,7.8844,7.9947,8.0901,8.2156,8.1855,8.1152,8.0198,7.967,7.8917,7.7712,7.731,7.6959,7.6607,7.6581,7.6506,7.6355,7.5929,0.0,7.4219,7.1995,6.7343,6.0133,5.7352,0.0,0.0,0.0,0.0,0.0,3.3649,3.34,3.467,3.6006,3.7128,3.8036,3.9159,3.9412,3.91,3.91,3.8953,3.8798,3.8504,3.8388,3.8321,3.8321,3.7929,3.7569,3.7956,3.8223,3.8437,3.8651,3.8798,3.874,3.825,3.7849,3.7529,3.7448,3.6794,3.6366,3.6981,3.7021,3.7008,3.7315,3.7529,3.7489,3.6981,3.4942,3.3906,3.5576,0.0,0.0,0.0,0.0,0.0,0.0,0.0,2.4796,2.1742,0.0,0.0,0.0,0.0,0.0,0.0,0.0,0.0,0.0,0.0,0.0,0.0,2.0051,2.0397,2.0476,2.0476,2.0422,2.0334,2.0334,2.0334,2.0334,2.0334,2.0471,2.0614,2.0496,2.051,2.0614,2.0496,2.0476,2.0496,2.0716,2.0845,2.0967,7.1342,7.2411,7.4421,7.721,7.8088,7.9018,8.0698,8.0974,8.1604,8.3261,8.2985,8.2432,8.1855,8.0348,7.9369,7.9369,7.834,7.7687,7.7687,7.7687,7.7436,0.0,0.0,7.5307,7.1917,7.0768,6.6695,5.949,0.0,0.0,4.8053,0.0,3.9846,3.9897,3.6612,3.5164,3.5297,3.7048,3.7969,3.8388,3.9239,3.9412,3.91,3.91,3.91,3.906,3.8766,3.8504,3.8321,3.8321,3.8076,3.7916,3.8504,3.866,3.8718,3.8718,3.8504,3.8223,3.7889,3.7382,3.6874,3.658,3.6513,3.65,3.6513,3.6727,3.7008,3.7315,3.7849,3.82,3.7849,3.7555,3.7155,3.658,0.0,0.0,0.0,0.0,0.0,0.0,2.6768,2.3542,1.9733,0.0,0.0,0.0,0.0,0.0,0.0,0.0,0.0,1.6517,1.7826,0.0,1.9705,2.0098,2.0397,2.0476,2.0476,2.0476,2.0476,2.0476,2.0476,2.0476,2.0476,2.0627,2.0756,2.0614,2.0627,2.0756,2.0594,2.0476,2.0496,2.0716,2.077,2.0824,7.3024,7.4448,7.623,7.7486,7.849,7.9419,8.0323,8.08,8.1478,8.2759,8.2838,8.2734,8.2934,8.1503,8.0223,0.0,7.7236,7.5528,0.0,7.3168,7.185,7.1065,7.1018,7.0369,6.8952,6.8238,6.5565,6.0885,0.0,0.0,0.0,4.4585,4.208,4.1848,3.7842,3.654,3.7342,3.8317,3.9012,3.9519,4.0,4.0027,3.9687,3.9687,3.9567,3.9452,3.9346,3.9265,3.9132,3.8945,3.8798,3.866,3.8718,3.8584,3.8437,3.8651,3.8651,3.8464,3.7956,3.7382,3.6901,3.6779,3.6353,3.6112,3.6914,3.7342,3.7448,3.7099,3.7555,3.7849,3.7569,3.7595,3.7635,3.7422,0.0,0.0,0.0,0.0,0.0,0.0,0.0,2.4335,0.0,1.8615,0.0,0.0,0.0,0.0,0.0,0.0,0.0,0.0,1.8036,0.0,1.98,2.0153,2.0397,2.0476,2.0476,2.0476,2.0476,2.0476,2.0476,2.0476,2.0476,2.051,2.0614,2.056,2.051,2.0614,2.056,2.0476,2.0539,2.0594,2.0682,2.0811,7.4619,7.5804,7.731,7.7637,7.8641,7.957,8.0122,8.0675,8.1428,8.2533,8.1811,8.1325,8.1725,7.9608,0.0,7.8349,7.5245,7.2989,7.2285,7.0722,6.9402,6.8619,6.8395,6.7603,6.6052,0.0,0.0,6.037,5.7603,5.388,4.9151,4.475,4.2682,4.2523,3.904,3.7956,3.8798,3.9265,3.9647,4.004,4.0214,4.0147,3.9853,3.9853,3.9746,3.9599,3.9599,3.9599,3.9559,3.9372,3.9273,3.9265,3.8913,3.8758,3.8611,3.8691,3.8651,3.8477,3.8076,3.7555,3.7088,3.6912,3.6485,3.6313,3.7048,3.7595,3.7849,3.7326,3.7742,3.8103,3.7929,3.8036,3.8103,3.7996,0.0,0.0,0.0,0.0,0.0,0.0,0.0,0.0,0.0,2.0017,0.0,0.0,0.0,0.0,0.0,0.0,0.0,1.7575,1.8477,0.0,2.0031,2.0295,2.0388,2.0476,2.0476,2.0476,2.0476,2.0476,2.0476,2.0476,2.0476,2.0476,2.0476,2.0476,2.0476,2.0476,2.0476,2.0476,2.0539,2.0614,2.0682,2.0811,7.61,7.6657,7.7762,0.0,7.8666,0.0,8.0072,8.065,8.1297,8.2189,8.0233,7.8685,7.8597,7.5256,7.3847,7.5901,0.0,0.0,0.0,6.9646,6.907,6.8527,6.8092,6.6372,6.3188,6.2895,6.1201,5.789,5.3402,4.9662,4.671,4.3392,4.2065,4.232,4.0113,3.9346,3.964,3.986,3.9967,3.9967,3.9967,3.9986,3.9969,3.9969,4.0101,4.0306,4.0069,3.9996,3.9936,3.9699,3.964,3.9559,3.9265,3.9127,3.906,3.8766,3.8504,3.829,3.8321,3.8006,3.7621,3.7048,3.6981,3.6952,3.6925,3.7635,3.8183,3.7889,3.829,3.8691,3.8691,3.866,3.8611,3.8348,3.7969,3.7235,3.5805,0.0,0.0,0.0,0.0,0.0,0.0,2.1618,2.2958,0.0,0.0,0.0,0.0,0.0,1.7792,1.7956,1.914,1.9922,2.0349,2.0442,2.051,2.051,2.056,2.0496,2.0496,2.0539,2.0476,2.0476,2.0476,2.0476,2.0476,2.0476,2.0476,2.0476,2.0476,2.0476,2.0496,2.0716,2.077,2.0875,0.0,0.0,7.8314,7.8314,7.8917,7.9419,7.957,8.0398,8.0432,7.8795,7.8648,7.7991,7.6158,7.2346,7.0149,7.0705,6.8865,6.7512,6.7185,6.4936,6.3314,6.2469,6.2327,6.1643,6.0199,5.7866,5.5064,5.1871,5.0396,4.9336,4.8538,4.5111,4.3581,4.3526,4.074,3.9666,3.992,4.0,3.9967,3.9967,3.9967,4.138,4.3503,4.3503,4.5093,4.7053,4.4669,4.3823,4.3409,4.0797,3.992,3.9893,3.9599,3.9493,3.9386,3.8865,3.8691,3.8544,3.8388,3.97,4.0536,3.7901,3.7448,3.7555,3.7342,3.7782,3.8183,3.7889,3.8103,3.837,3.837,3.8584,3.8611,3.8348,3.7635,3.6672,3.5471,0.0,0.0,0.0,2.7649,2.6588,2.4498,2.4913,2.5613,0.0,0.0,2.1943,2.2543,2.0078,1.8586,1.8375,1.9535,2.0329,2.0668,2.0824,2.0892,2.0892,2.077,2.0716,2.0716,2.0594,2.0476,2.0476,2.0476,2.0476,2.0476,2.0476,2.0476,2.0476,2.0476,2.0476,2.0496,2.0716,2.077,2.0875,7.914,7.8745,7.8515,7.8515,7.8992,7.9394,7.9394,7.8949,7.8208,7.7074,7.5456,7.3993,7.2621,6.9424,6.7236,6.6809,6.555,6.4676,6.4449,6.2568,6.1133,6.0449,6.0197,5.9863,5.918,5.6119,5.2257,4.7641,4.7582,4.6766,4.5171,4.3423,4.2564,4.2377,4.0765,4.008,4.0214,4.0214,4.0147,3.9967,3.9893,4.1688,4.4515,4.4515,4.6638,4.9227,4.618,4.5085,4.4609,4.1338,4.1163,4.2038,4.0298,4.0785,4.1534,3.9488,3.8905,3.9129,4.0216,4.1468,4.1932,4.0022,3.8786,3.7929,3.7635,3.8036,3.8397,3.8076,3.825,3.8477,3.8477,3.8611,3.8544,3.7969,3.7128,3.6086,3.4776,3.3005,0.0,2.9598,2.8894,2.8566,2.8603,2.9322,3.0058,3.0705,2.7112,0.0,2.4808,2.1442,1.9359,1.9061,2.001,2.0648,2.0878,2.0967,2.1001,2.1001,2.0912,2.0878,2.0878,2.0716,2.0648,2.0648,2.051,2.0476,2.0476,2.0476,2.0476,2.0539,2.0614,2.0648,2.0668,2.0892,2.0967,2.1001,8.1431,7.9899,7.854,7.8641,7.9143,7.9339,7.89,7.7217,7.5817,7.5203,7.1862,6.9358,6.888,6.681,6.5176,6.4375,6.3282,6.2539,6.2422,6.1621,6.0957,6.0449,6.0098,5.9462,5.8525,5.4928,5.0247,4.4459,4.4738,4.3409,4.0615,4.0802,4.0762,4.0548,4.0508,4.0481,4.0481,4.0481,4.0294,3.99,3.9746,4.1817,4.4986,4.5032,4.7493,5.0414,4.7017,4.5798,4.5323,4.224,4.2919,4.4699,4.2263,4.3307,4.4841,4.1549,4.0619,4.103,4.2735,4.2864,4.2465,4.2238,4.0222,3.8223,3.7996,3.8357,3.8691,3.8504,3.8651,3.8798,3.8838,3.8766,3.8504,3.7595,3.6647,3.5525,3.4148,0.0,3.0257,3.0751,2.9637,2.9949,3.2816,3.3981,3.4918,3.5751,3.1512,2.8399,2.7293,2.269,2.001,1.9902,2.0492,2.0912,2.1068,2.1068,2.1068,2.1109,2.1055,2.1055,2.1055,2.0858,2.077,2.077,2.0614,2.0476,2.0476,2.0476,2.0476,2.0496,2.0716,2.077,2.0811,2.1109,2.1211,2.1231,8.1721,7.9849,7.8666,7.9168,7.9721,7.9187,7.6554,7.6669,7.5227,7.0056,6.9477,6.8502,6.5922,6.5226,6.4824,6.4375,6.3808,6.3164,6.2422,6.1894,6.125,6.0431,6.0314,5.8691,5.5306,4.9557,4.4936,4.1562,4.1603,4.1493,4.1203,4.1016,4.0869,4.0842,4.0588,4.0481,4.0481,4.0481,4.0207,3.968,3.9893,4.3284,4.8236,4.8505,5.2373,5.6892,5.1108,4.909,4.8596,4.5412,4.4683,4.5486,4.7609,4.86,4.8762,4.7547,4.7473,4.7134,4.4054,4.2947,4.2637,4.2618,4.0449,3.833,3.8544,3.8651,3.8838,3.9306,3.9239,3.91,3.9412,3.9207,3.874,3.7889,3.658,3.5364,3.4389,0.0,3.3743,3.4321,3.5451,3.6489,3.7282,3.7532,3.787,3.8473,3.2125,2.8553,2.933,2.3464,2.0261,2.0594,2.0946,2.1211,2.1367,2.1367,2.1441,2.1564,2.1299,2.1245,2.1353,2.0946,2.077,2.077,2.0614,2.0476,2.0476,2.0476,2.0476,2.0496,2.0716,2.077,2.0811,2.1109,2.1211,2.1231,8.1682,8.0055,7.8792,7.967,8.0047,7.9252,7.6443,7.5101,7.2932,6.8636,6.7263,6.621,6.5005,6.488,6.4821,6.4648,6.4082,6.3398,6.2754,6.2305,6.1601,6.0431,5.8786,5.5283,4.9547,4.6596,4.3722,4.0909,4.1056,4.1203,4.1274,4.1376,4.1203,4.0909,4.0762,4.0615,4.0481,4.0294,4.0,3.9764,4.1291,4.4618,4.8599,4.8889,5.2032,5.5484,4.9449,4.7244,4.6773,4.3698,4.4847,4.7582,4.7347,4.9573,5.1888,4.9696,4.991,5.0087,4.6519,4.5477,4.4912,4.3034,4.0632,3.874,3.8886,3.9092,3.9265,3.9533,3.9493,3.9393,3.9559,3.9346,3.8846,3.8183,3.6687,0.0,0.0,3.479,3.5124,3.6086,3.7555,3.866,3.9159,3.7583,3.6407,3.6232,3.0116,2.6556,2.6892,2.2794,2.0668,2.1123,2.1265,2.1408,2.1564,2.1564,2.1638,2.1774,2.1564,2.1496,2.155,2.1177,2.0967,2.0892,2.0736,2.0614,2.0476,2.0476,2.0476,2.056,2.0804,2.0892,2.0933,2.1231,2.1333,2.1353,8.1314,7.9926,7.8641,7.9645,8.0147,7.924,7.5853,7.3726,7.1217,6.7676,6.5569,6.4531,6.4765,6.4765,6.4704,6.4648,6.414,6.3574,6.293,6.2598,6.1777,6.0431,5.6562,5.1484,4.5219,4.4371,4.2969,4.0909,4.1203,4.1314,4.1394,4.1603,4.1456,4.1016,4.0869,4.0695,4.0502,4.0147,3.9853,3.9856,4.26,4.5118,4.7349,4.8439,5.0425,5.2119,4.6943,4.5085,4.4743,4.2346,4.4743,4.8388,4.6698,4.9498,5.2877,5.0167,5.026,5.0764,4.864,4.7396,4.5971,4.2672,4.0505,3.9207,3.9287,3.9493,3.964,3.9786,3.9746,3.9706,3.9786,3.9559,3.9092,3.829,0.0,0.0,0.0,3.4924,3.4948,3.6078,3.6697,3.7235,3.7752,3.5483,3.373,3.3056,2.8104,2.5051,2.4794,2.2343,2.1123,2.153,2.1509,2.155,2.1672,2.1672,2.174,2.1882,2.174,2.1672,2.1719,2.1353,2.1157,2.1034,2.0858,2.0702,2.0594,2.0496,2.0476,2.051,2.0878,2.1001,2.1034,2.1267,2.1375,2.1375,8.0473,7.9078,7.7938,7.854,7.9895,7.8943,7.3072,7.3176,7.1711,6.5388,6.477,6.4704,6.4375,6.4375,6.4199,6.3808,6.4082,6.373,6.2539,6.2422,6.1777,6.0431,5.3902,4.8628,4.516,4.2272,4.0858,4.0909,4.1203,4.1483,4.175,4.1483,4.1274,4.1269,4.0762,4.0508,4.0502,4.0147,3.9853,3.9837,4.2846,4.4079,4.4502,4.7873,4.9401,4.9327,4.6236,4.5085,4.5085,4.4847,4.5085,4.5886,4.8596,4.979,5.0014,4.9377,4.9021,4.883,4.9195,4.683,4.3648,4.0574,3.9664,3.964,3.986,3.9773,3.9746,4.0294,4.0187,4.0067,4.0361,4.0174,3.9493,3.8076,0.0,0.0,3.6126,3.4054,3.2948,3.3828,3.2055,3.0895,3.1143,3.109,3.1005,3.0912,2.7786,2.5934,2.587,2.2965,2.153,2.1848,2.1726,2.1719,2.1672,2.1672,2.174,2.1882,2.174,2.1672,2.1719,2.1353,2.1211,2.1177,2.0892,2.077,2.0736,2.0594,2.0476,2.051,2.0878,2.1001,2.1034,2.1267,2.1375,2.1375,7.8142,7.7986,7.7988,7.8892,7.9871,7.8669,7.3179,7.286,7.1146,6.5442,6.4824,6.4821,6.4707,6.4646,6.4531,6.4101,6.4199,6.3867,6.2871,6.2539,5.9946,5.4506,4.9526,4.5457,4.2332,4.1121,4.0615,4.0909,4.1203,4.1483,4.179,4.167,4.1523,4.1274,4.0909,4.0655,4.0441,3.996,3.9706,3.9829,4.2266,4.3321,4.3612,4.5142,4.5912,4.5796,4.3166,4.224,4.224,4.224,4.3533,4.5323,4.6521,4.8212,4.9757,4.9599,4.8041,4.6416,4.6658,4.544,4.3372,4.0329,3.9746,3.9893,4.0,4.008,4.0214,4.0441,4.0401,4.0334,4.0502,4.0214,3.986,3.9533,0.0,3.7233,3.5233,3.4023,3.2795,3.1222,3.067,3.0499,3.0642,2.8838,2.765,2.765,2.4814,2.3095,2.314,2.2307,2.1862,2.1882,2.1828,2.1794,2.1794,2.1794,2.1828,2.1882,2.174,2.1672,2.1672,2.1455,2.1299,2.1211,2.1089,2.0946,2.077,2.0702,2.0627,2.056,2.077,2.0912,2.1021,2.1231,2.1421,2.1584,7.6607,7.7059,7.7737,7.8691,7.8694,7.7193,7.3067,7.1885,6.9882,6.5319,6.4821,6.4824,6.4529,6.4648,6.4529,6.414,6.4258,6.3904,6.3026,6.1304,5.7408,5.0813,4.7964,4.4669,4.0602,4.0481,4.0615,4.0909,4.1203,4.1483,4.179,4.167,4.1523,4.1274,4.0949,4.0655,4.0441,3.996,3.9746,3.9904,4.2078,4.2573,4.2021,4.316,4.3224,4.2493,4.0915,4.0401,4.0481,4.0481,4.1925,4.3638,4.3638,4.5145,4.6906,4.6906,4.5323,4.3638,4.3638,4.3306,4.2457,4.039,4.004,4.0174,4.0174,4.0334,4.0481,4.0481,4.0481,4.0481,4.0481,4.0294,4.0147,4.0067,3.8525,3.6626,3.4536,3.2597,3.0577,2.8574,2.7927,2.7677,2.7677,2.5645,2.4348,2.4348,2.2435,2.1367,2.1564,2.1971,2.2127,2.2025,2.2025,2.1991,2.1882,2.1828,2.1815,2.1815,2.1726,2.1652,2.1597,2.1496,2.1321,2.1279,2.1231,2.1089,2.0899,2.0811,2.0702,2.0627,2.0736,2.0858,2.1021,2.1157,2.1408,2.1672,7.6055,7.6507,7.7059,7.7536,7.6171,7.4266,7.21,7.0156,6.7782,6.4702,6.4668,6.4609,6.3789,6.4082,6.414,6.373,6.4082,6.3904,6.3026,5.847,5.424,5.0662,4.9988,4.6847,4.0636,4.0481,4.0615,4.0909,4.1203,4.1483,4.179,4.1483,4.1274,4.131,4.0735,4.0481,4.0502,4.0147,3.9967,4.02,4.2571,4.1774,3.9425,4.2426,4.1901,3.964,3.992,4.0214,4.0481,4.0481,4.0481,4.0481,4.0481,4.0481,4.0481,4.0481,4.0481,4.0481,4.0481,4.0481,4.0481,4.0481,4.0481,4.0481,4.0481,4.0481,4.0481,4.0481,4.0481,4.0481,4.0481,4.0481,4.0187,3.9247,3.6936,3.5077,3.4443,2.9263,2.5625,2.5937,2.3031,2.1001,2.1001,2.1123,2.1211,2.1211,2.1353,2.1564,2.1862,2.2181,2.2268,2.2268,2.2268,2.2201,2.1882,2.174,2.1672,2.1672,2.1672,2.1584,2.1375,2.1375,2.1375,2.1375,2.1279,2.1211,2.1197,2.0892,2.077,2.077,2.077,2.0858,2.1021,2.1157,2.1408,2.1672,7.3082,7.5158,7.6332,7.4531,7.4316,7.3005,6.8895,6.806,6.7002,6.4582,6.4433,6.4316,6.375,6.3808,6.3691,6.3262,6.334,6.293,6.1719,5.9783,5.6064,5.0238,4.7763,4.4609,4.0602,4.0695,4.0842,4.0909,4.1416,4.171,4.179,4.171,4.1523,4.1274,4.0949,4.0655,4.0502,4.0147,3.9967,4.0033,4.0301,3.988,3.9231,4.0113,3.9948,3.9273,3.964,3.992,4.0174,4.0174,4.0294,4.0481,4.0481,4.0481,4.0481,4.0481,4.0481,4.0481,4.0481,4.0481,4.0481,4.0481,4.0481,4.0481,4.0481,4.0481,4.0481,4.0481,4.0481,4.0481,4.0481,4.0655,4.0695,4.0428,3.7877,3.5084,3.2495,2.8623,2.5145,2.287,2.1731,2.1143,2.1143,2.1197,2.1211,2.1211,2.155,2.1828,2.2038,2.2323,2.2479,2.2479,2.2289,2.2079,2.1882,2.174,2.1618,2.1509,2.1509,2.1496,2.1375,2.1375,2.1375,2.1375,2.1387,2.1319,2.1211,2.1123,2.0967,2.079,2.0892,2.0967,2.1021,2.1157,2.1475,2.1815,7.161,7.3449,7.4424,7.296,7.2183,7.0609,6.7088,6.5736,6.4835,6.3932,6.3789,6.3633,6.3223,6.334,6.3262,6.2812,6.2577,6.2109,6.1152,5.9112,5.5497,5.0039,4.6773,4.3638,4.0542,4.0762,4.0909,4.0909,4.1497,4.179,4.179,4.179,4.167,4.1497,4.1203,4.0909,4.0615,4.0468,4.026,4.0147,3.9559,3.9287,3.941,4.0353,4.0818,4.106,4.244,4.3109,4.3224,4.2139,4.1237,4.0481,4.0481,4.0481,4.0481,4.0481,4.0481,4.0481,4.0481,4.0548,4.0655,4.0655,4.0655,4.0615,4.0508,4.0548,4.0615,4.0508,4.0481,4.0481,4.0481,4.0722,4.0466,3.9075,3.6324,3.3178,2.9785,2.6539,2.3744,2.1659,2.1387,2.1374,2.1299,2.1299,2.1299,2.1299,2.1672,2.1916,2.2025,2.2357,2.2534,2.2466,2.2235,2.2038,2.1882,2.1686,2.153,2.1375,2.1321,2.1321,2.1375,2.1375,2.1375,2.1375,2.1375,2.1321,2.1299,2.1231,2.1109,2.0946,2.098,2.1034,2.1089,2.1177,2.1496,2.1882,7.056,7.1228,7.1496,7.1837,6.966,6.7374,6.5819,6.3316,6.1953,6.2754,6.2812,6.2695,6.2246,6.2578,6.2637,6.2246,6.1777,6.1367,6.1034,5.7237,5.3489,4.9939,4.6804,4.3667,4.0582,4.0802,4.0949,4.0949,4.1537,4.1817,4.1817,4.1817,4.1817,4.179,4.1497,4.1203,4.0909,4.0909,4.0735,4.0441,3.9893,3.9831,4.0229,4.2468,4.354,4.4308,4.7099,4.82,4.8048,4.5395,4.2751,4.0481,4.0481,4.0481,4.0481,4.0481,4.0481,4.0481,4.0481,4.0655,4.0869,4.0909,4.0909,4.0842,4.0588,4.0695,4.0802,4.0548,4.0481,4.0407,4.0104,4.0281,3.936,3.5846,3.2944,3.0019,2.688,2.3814,2.1815,2.1686,2.1672,2.1618,2.1389,2.1375,2.1375,2.1375,2.1706,2.1862,2.1882,2.2358,2.2479,2.2337,2.2201,2.2038,2.1882,2.1584,2.1355,2.1355,2.1279,2.1279,2.1355,2.1355,2.1421,2.1375,2.1375,2.1375,2.1421,2.1285,2.1231,2.1231,2.1109,2.1143,2.1245,2.1265,2.155,2.1903,6.509,6.6986,6.7875,6.5809,6.5164,6.4198,6.1951,6.1399,6.1308,6.1484,6.1484,6.1367,6.0898,6.0899,6.0957,6.084,6.0449,6.0156,6.0098,5.6642,5.319,4.9964,4.7021,4.3984,4.0876,4.1096,4.1229,4.1229,4.1795,4.2111,4.2111,4.2111,4.2004,4.179,4.171,4.139,4.0909,4.0909,4.0735,4.0481,4.0334,4.1408,4.3197,4.3733,4.5098,4.6824,4.7496,4.7894,4.7796,4.5318,4.2751,4.0481,4.0481,4.0481,4.0481,4.0481,4.0481,4.0481,4.0481,4.0508,4.0615,4.0842,4.0909,4.0909,4.0842,4.0695,4.0548,4.0542,4.0481,3.9726,3.7102,3.6914,3.6093,3.2741,2.9649,2.7479,2.6852,2.391,2.1706,2.1672,2.1672,2.1618,2.1389,2.1375,2.1375,2.1375,2.1618,2.176,2.1882,2.2201,2.2378,2.2268,2.2201,2.2038,2.1882,2.1475,2.1265,2.1265,2.1231,2.1231,2.1265,2.1265,2.1267,2.1375,2.1375,2.1375,2.1375,2.1341,2.1387,2.1341,2.1496,2.155,2.1584,2.1686,2.1882,2.2059,6.2519,6.3943,6.4527,6.3056,6.3112,6.2577,6.0177,6.0215,6.0566,6.0742,6.0781,6.0683,6.0449,6.0372,6.0372,6.0372,6.0039,5.9163,5.7684,5.4229,5.0852,4.7715,4.4859,4.2565,4.0909,4.135,4.1483,4.1274,4.1777,4.2071,4.2218,4.2218,4.2218,4.2255,4.2044,4.167,4.1061,4.1061,4.0869,4.0636,4.1952,4.3118,4.439,4.7168,4.9026,5.0248,5.1469,5.0248,4.7899,4.6634,4.3533,4.0254,4.0254,4.0361,4.0481,4.0481,4.0481,4.0481,4.0481,4.0588,4.0722,4.0869,4.0909,4.0909,4.0909,4.0802,4.0655,4.0508,3.9214,3.7604,3.5842,3.4579,3.2689,2.9262,2.7634,2.6224,2.4612,2.2913,2.174,2.1739,2.1672,2.1618,2.1389,2.1375,2.1341,2.1333,2.155,2.1672,2.1672,2.195,2.2127,2.2127,2.1971,2.1862,2.1781,2.1475,2.1279,2.1211,2.1211,2.1245,2.1319,2.1319,2.1301,2.1375,2.1375,2.1375,2.1441,2.1509,2.155,2.1564,2.1706,2.1794,2.1692,2.1828,2.1937,2.2004,6.0922,6.1402,6.1402,6.1402,6.166,6.1189,5.9295,5.9297,5.9707,6.0021,6.0156,6.0215,6.0215,6.0215,6.0215,6.0215,5.9373,5.7817,5.515,5.1212,4.7817,4.5189,4.2412,4.0949,4.0976,4.1456,4.1603,4.1416,4.175,4.2071,4.2298,4.2325,4.2472,4.2659,4.2405,4.1964,4.1354,4.1314,4.0994,4.0811,4.3646,4.4795,4.5461,5.0785,5.3127,5.3731,5.5821,5.2909,4.8019,4.7527,4.4055,3.9967,3.9967,4.0254,4.0481,4.0481,4.0481,4.0481,4.0481,4.0655,4.0842,4.0909,4.0869,4.0842,4.0909,4.0426,3.994,3.9657,3.6968,3.4491,3.3914,3.1839,2.916,2.5714,2.56,2.4964,2.212,2.1774,2.1794,2.1686,2.1652,2.1564,2.1355,2.1341,2.1333,2.1197,2.1408,2.1509,2.1341,2.1652,2.1815,2.1848,2.1794,2.1672,2.1672,2.1509,2.1367,2.1245,2.1245,2.1299,2.1341,2.1341,2.1355,2.1375,2.1375,2.1389,2.1496,2.1584,2.1672,2.176,2.1815,2.1815,2.176,2.1848,2.1862,2.1862,5.8377,5.8486,5.8486,5.8486,5.8546,5.8441,5.8102,5.8418,5.8711,5.8769,5.9121,5.9355,5.9355,5.9355,5.9355,5.9355,5.6797,5.5058,5.4583,4.9005,4.556,4.5145,4.2412,4.1016,4.1269,4.1314,4.1497,4.171,4.2321,4.2616,4.2619,4.2846,4.2873,4.2723,4.2619,4.2321,4.171,4.1394,4.1101,4.1107,4.3935,4.6191,4.8277,5.1793,5.4393,5.6158,5.6494,5.2909,4.7697,4.5098,4.2335,3.9967,3.9967,4.0254,4.0481,4.0481,4.0481,4.0481,4.0481,4.0508,4.0588,4.0842,4.0735,4.0588,4.0842,3.849,3.622,3.6148,3.3505,3.0316,2.7405,2.6713,2.5467,2.2183,2.1862,2.1881,2.1705,2.1692,2.1692,2.1672,2.155,2.1408,2.1265,2.1245,2.1177,2.1034,2.1068,2.1143,2.1231,2.1408,2.1564,2.1692,2.1686,2.1672,2.1672,2.1509,2.1421,2.1341,2.1341,2.1353,2.1245,2.1245,2.1319,2.1375,2.1375,2.1509,2.1638,2.1509,2.1706,2.2025,2.1794,2.1848,2.2038,2.1916,2.1815,2.1706,5.4644,5.6008,5.7148,5.7148,5.7344,5.75,5.75,5.7851,5.8144,5.8144,5.8375,5.8493,5.8493,5.8652,5.8218,5.6704,5.5326,5.3005,4.9498,4.667,4.434,4.2587,4.1453,4.0976,4.1096,4.1208,4.1483,4.179,4.2044,4.2469,4.2913,4.2873,4.2873,4.2913,4.2803,4.2338,4.175,4.1456,4.2134,4.3797,4.6572,4.9219,5.1766,5.469,5.6451,5.7103,5.5168,5.0522,4.5161,4.3852,4.1672,3.95,3.9746,4.0,4.0254,4.0441,4.0481,4.0481,4.0481,4.0481,4.0508,4.0628,4.0588,4.0508,4.0628,3.6551,3.374,3.7543,3.411,3.0065,2.8671,2.5536,2.2679,2.1356,2.1245,2.1387,2.153,2.155,2.155,2.155,2.1408,2.1285,2.1211,2.1143,2.1034,2.0878,2.0946,2.098,2.0967,2.119,2.1353,2.1408,2.1496,2.155,2.155,2.1409,2.1375,2.1375,2.1375,2.1341,2.1333,2.1421,2.1509,2.1564,2.1564,2.1597,2.1672,2.1597,2.1686,2.1862,2.1815,2.1862,2.1971,2.1815,2.1774,2.1498]},{"header":{"parameterUnit":"m.s-1","parameterCategory":1,"la1":30.6,"la2":28.766,"lo1":-90.7593,"lo2":-88.6598,"dy":0.0162,"dx":0.0183,"nx":116,"ny":114,"refTime":"2023-04-11T06:00:00:Z","depth":0,"parameterNumber":3,"parameterNumberName":"V-component_of_WINDS"},"data":[0.0,0.0,0.0,0.0,0.0,0.0,0.0,0.0,0.0,0.0,0.0,0.0,0.0,0.0,0.0,0.0,0.0,0.0,0.0,0.0,0.0,0.0,0.0,0.0,0.0,0.0,0.0,0.0,0.0,0.0,0.0,0.0,0.0,0.0,0.0,0.0,0.0,0.0,0.0,0.0,0.0,0.0,0.0,0.0,0.0,0.0,0.0,0.0,0.0,0.0,0.0,0.0,0.0,0.0,0.0,0.0,0.0,0.0,0.0,0.0,0.0,0.0,0.0,0.0,0.0,0.0,0.0,0.0,0.0,0.0,0.0,0.0,0.0,0.0,0.0,0.0,0.0,0.0,0.0,0.0,0.0,0.0,0.0,0.0,0.0,0.0,0.0,0.0,0.0,0.0,0.0,0.0,0.0,0.0,0.0,0.0,0.0,0.0,0.0,0.0,0.0,0.0,0.0,0.0,0.0,0.0,0.0,0.0,0.0,0.0,0.0,0.0,0.0,0.0,0.0,0.0,0.0,0.0,0.0,0.0,0.0,0.0,0.0,0.0,0.0,0.0,0.0,0.0,0.0,0.0,0.0,0.0,0.0,0.0,0.0,0.0,0.0,0.0,0.0,0.0,0.0,0.0,0.0,0.0,0.0,0.0,0.0,0.0,0.0,0.0,0.0,0.0,0.0,0.0,0.0,0.0,0.0,0.0,0.0,0.0,0.0,0.0,0.0,0.0,0.0,0.0,0.0,0.0,0.0,0.0,0.0,0.0,0.0,0.0,0.0,0.0,0.0,0.0,0.0,0.0,0.0,0.0,0.0,0.0,0.0,0.0,0.0,0.0,0.0,0.0,0.0,0.0,0.0,0.0,0.0,0.0,0.0,0.0,0.0,0.0,0.0,0.0,0.0,0.0,0.0,0.0,0.0,0.0,0.0,0.0,0.0,0.0,0.0,0.0,0.0,0.0,0.0,0.0,0.0,0.0,0.0,0.0,0.0,0.0,0.0,0.0,0.0,0.0,0.0,0.0,0.0,0.0,0.0,0.0,0.0,0.0,0.0,0.0,0.0,0.0,0.0,0.0,0.0,0.0,0.0,0.0,0.0,0.0,0.0,0.0,0.0,0.0,0.0,0.0,0.0,0.0,0.0,0.0,0.0,0.0,0.0,0.0,0.0,0.0,0.0,0.0,0.0,0.0,0.0,0.0,0.0,0.0,0.0,0.0,0.0,0.0,0.0,0.0,0.0,0.0,0.0,0.0,0.0,0.0,0.0,0.0,0.0,0.0,0.0,0.0,0.0,0.0,0.0,0.0,0.0,0.0,0.0,0.0,0.0,0.0,0.0,0.0,0.0,0.0,0.0,0.0,0.0,0.0,0.0,0.0,0.0,0.0,0.0,0.0,0.0,0.0,0.0,0.0,0.0,0.0,0.0,0.0,0.0,0.0,0.0,0.0,0.0,0.0,0.0,0.0,0.0,0.0,0.0,0.0,0.0,0.0,0.0,0.0,0.0,0.0,0.0,0.0,0.0,0.0,0.0,0.0,0.0,0.0,0.0,0.0,0.0,0.0,0.0,0.0,0.0,0.0,0.0,0.0,0.0,0.0,0.0,0.0,0.0,0.0,0.0,0.0,0.0,0.0,0.0,0.0,0.0,0.0,0.0,0.0,0.0,0.0,0.0,0.0,0.0,0.0,0.0,0.0,0.0,0.0,0.0,0.0,0.0,0.0,0.0,0.0,0.0,0.0,0.0,0.0,0.0,0.0,0.0,0.0,0.0,0.0,0.0,0.0,0.0,0.0,0.0,0.0,0.0,0.0,0.0,0.0,0.0,0.0,0.0,0.0,0.0,0.0,0.0,0.0,0.0,0.0,0.0,0.0,0.0,0.0,0.0,0.0,0.0,0.0,0.0,0.0,0.0,0.0,0.0,0.0,0.0,0.0,0.0,0.0,0.0,0.0,0.0,0.0,0.0,0.0,0.0,0.0,0.0,0.0,0.0,0.0,0.0,0.0,0.0,0.0,0.0,0.0,0.0,0.0,0.0,0.0,0.0,0.0,0.0,0.0,0.0,0.0,0.0,0.0,0.0,0.0,0.0,0.0,0.0,0.0,0.0,0.0,0.0,0.0,0.0,0.0,0.0,0.0,0.0,0.0,0.0,0.0,0.0,0.0,0.0,0.0,0.0,0.0,0.0,0.0,0.0,0.0,0.0,0.0,0.0,0.0,0.0,0.0,0.0,0.0,0.0,0.0,0.0,0.0,0.0,0.0,0.0,0.0,0.0,0.0,0.0,0.0,0.0,0.0,0.0,0.0,0.0,0.0,0.0,0.0,0.0,0.0,0.0,0.0,0.0,0.0,0.0,0.0,0.0,0.0,0.0,0.0,0.0,0.0,0.0,0.0,0.0,0.0,0.0,0.0,0.0,0.0,0.0,0.0,0.0,0.0,0.0,0.0,0.0,0.0,0.0,0.0,0.0,0.0,0.0,0.0,0.0,0.0,0.0,0.0,0.0,0.0,0.0,0.0,0.0,0.0,0.0,0.0,0.0,0.0,0.0,0.0,0.0,0.0,0.0,0.0,0.0,0.0,0.0,0.0,0.0,0.0,0.0,0.0,0.0,0.0,0.0,0.0,0.0,0.0,0.0,0.0,0.0,0.0,0.0,0.0,0.0,0.0,0.0,0.0,0.0,0.0,0.0,0.0,0.0,0.0,0.0,0.0,0.0,0.0,0.0,0.0,0.0,0.0,0.0,0.0,0.0,0.0,0.0,0.0,0.0,0.0,0.0,0.0,0.0,0.0,0.0,0.0,0.0,0.0,0.0,0.0,0.0,0.0,0.0,0.0,0.0,0.0,0.0,0.0,0.0,0.0,0.0,0.0,0.0,0.0,0.0,0.0,0.0,0.0,0.0,0.0,0.0,0.0,0.0,0.0,0.0,0.0,0.0,0.0,0.0,0.0,0.0,0.0,0.0,0.0,0.0,0.0,0.0,0.0,0.0,0.0,0.0,0.0,0.0,0.0,0.0,0.0,0.0,0.0,0.0,0.0,0.0,0.0,0.0,0.0,0.0,0.0,0.0,0.0,0.0,0.0,0.0,0.0,0.0,0.0,0.0,0.0,0.0,0.0,0.0,0.0,0.0,0.0,0.0,0.0,0.0,0.0,0.0,0.0,0.0,0.0,0.0,0.0,0.0,0.0,0.0,0.0,0.0,0.0,0.0,0.0,0.0,0.0,0.0,0.0,0.0,0.0,0.0,0.0,0.0,0.0,0.0,0.0,0.0,0.0,0.0,0.0,0.0,0.0,0.0,0.0,0.0,0.0,0.0,0.0,0.0,0.0,0.0,0.0,0.0,0.0,0.0,0.0,0.0,0.0,0.0,0.0,0.0,0.0,0.0,0.0,0.0,0.0,0.0,0.0,0.0,0.0,0.0,0.0,0.0,0.0,0.0,0.0,0.0,0.0,0.0,0.0,0.0,0.0,0.0,0.0,0.0,0.0,0.0,0.0,0.0,0.0,0.0,0.0,0.0,0.0,0.0,0.0,0.0,0.0,0.0,0.0,0.0,0.0,0.0,0.0,0.0,0.0,0.0,0.0,0.0,0.0,0.0,0.0,0.0,0.0,0.0,0.0,0.0,0.0,0.0,0.0,0.0,0.0,0.0,0.0,0.0,0.0,0.0,0.0,0.0,0.0,0.0,0.0,0.0,0.0,0.0,0.0,0.0,0.0,0.0,0.0,0.0,0.0,0.0,0.0,0.0,0.0,0.0,0.0,0.0,0.0,0.0,0.0,0.0,0.0,0.0,0.0,0.0,0.0,0.0,0.0,0.0,0.0,0.0,0.0,0.0,0.0,0.0,0.0,0.0,0.0,0.0,0.0,0.0,0.0,0.0,0.0,0.0,0.0,0.0,0.0,0.0,0.0,0.0,0.0,0.0,0.0,0.0,0.0,0.0,0.0,0.0,0.0,0.0,0.0,0.0,0.0,0.0,0.0,0.0,0.0,0.0,0.0,0.0,0.0,0.0,0.0,0.0,0.0,0.0,0.0,0.0,0.0,0.0,0.0,0.0,0.0,0.0,0.0,0.0,0.0,0.0,0.0,0.0,0.0,0.0,0.0,0.0,0.0,0.0,0.0,0.0,0.0,0.0,0.0,0.0,0.0,0.0,0.0,0.0,0.0,0.0,0.0,0.0,0.0,0.0,0.0,0.0,0.0,0.0,0.0,0.0,0.0,0.0,0.0,0.0,0.0,0.0,0.0,0.0,0.0,0.0,0.0,0.0,0.0,0.0,0.0,0.0,0.0,0.0,0.0,0.0,0.0,0.0,0.0,0.0,0.0,0.0,0.0,0.0,0.0,0.0,0.0,0.0,0.0,0.0,0.0,0.0,0.0,0.0,0.0,0.0,0.0,0.0,0.0,0.0,0.0,0.0,0.0,0.0,0.0,0.0,0.0,0.0,0.0,0.0,0.0,0.0,0.0,0.0,0.0,0.0,0.0,0.0,0.0,0.0,0.0,0.0,0.0,0.0,0.0,0.0,0.0,0.0,0.0,0.0,0.0,0.0,0.0,0.0,0.0,0.0,0.0,0.0,0.0,0.0,0.0,0.0,0.0,0.0,0.0,0.0,0.0,0.0,0.0,0.0,0.0,0.0,0.0,0.0,0.0,0.0,0.0,0.0,0.0,0.0,0.0,0.0,0.0,0.0,0.0,0.0,0.0,0.0,0.0,0.0,0.0,0.0,0.0,0.0,0.0,0.0,0.0,0.0,0.0,0.0,0.0,0.0,0.0,0.0,0.0,0.0,0.0,0.0,0.0,0.0,0.0,0.0,0.0,0.0,0.0,0.0,0.0,0.0,0.0,0.0,0.0,0.0,0.0,0.0,0.0,0.0,0.0,0.0,0.0,0.0,0.0,0.0,0.0,0.0,0.0,0.0,0.0,0.0,0.0,0.0,0.0,0.0,0.0,0.0,0.0,0.0,0.0,0.0,0.0,0.0,0.0,0.0,0.0,0.0,0.0,0.0,0.0,0.0,0.0,0.0,0.0,0.0,0.0,0.0,0.0,0.0,0.0,0.0,0.0,0.0,0.0,0.0,0.0,0.0,0.0,0.0,0.0,0.0,0.0,0.0,0.0,0.0,0.0,0.0,0.0,0.0,0.0,0.0,0.0,0.0,0.0,0.0,0.0,0.0,0.0,0.0,0.0,0.0,0.0,0.0,0.0,0.0,0.0,0.0,0.0,0.0,0.0,0.0,0.0,0.0,0.0,0.0,0.0,0.0,0.0,0.0,0.0,0.0,0.0,0.0,0.0,0.0,0.0,0.0,0.0,0.0,0.0,0.0,0.0,0.0,0.0,0.0,0.0,0.0,0.0,0.0,0.0,0.0,0.0,0.0,0.0,0.0,0.0,0.0,0.0,0.0,0.0,0.0,0.0,0.0,0.0,0.0,0.0,0.0,0.0,0.0,0.0,0.0,0.0,0.0,0.0,0.0,0.0,0.0,0.0,0.0,0.0,0.0,0.0,0.0,0.0,0.0,0.0,0.0,0.0,0.0,0.0,0.0,0.0,0.0,0.0,0.0,0.0,0.0,0.0,0.0,0.0,0.0,0.0,0.0,0.0,0.0,0.0,0.0,0.0,0.0,0.0,0.0,0.0,0.0,0.0,0.0,0.0,0.0,0.0,0.0,0.0,0.0,0.0,0.0,0.0,0.0,0.0,0.0,0.0,0.0,0.0,0.0,0.0,0.0,0.0,0.0,0.0,0.0,0.0,0.0,0.0,0.0,0.0,0.0,0.0,0.0,0.0,0.0,0.0,0.0,0.0,0.0,0.0,0.0,0.0,0.0,0.0,0.0,0.0,0.0,0.0,0.0,0.0,0.0,0.0,0.0,0.0,0.0,0.0,0.0,0.0,0.0,0.0,0.0,0.0,0.0,0.0,0.0,0.0,0.0,0.0,0.0,0.0,0.0,0.0,0.0,0.0,0.0,0.0,0.0,0.0,0.0,0.0,0.0,0.0,0.0,0.0,0.0,0.0,0.0,0.0,0.0,0.0,0.0,0.0,0.0,0.0,0.0,0.0,0.0,0.0,0.0,0.0,0.0,0.0,0.0,0.0,5.3063,0.0,0.0,0.0,0.0,0.0,0.0,0.0,0.0,0.0,0.0,0.0,0.0,0.0,0.0,0.0,0.0,0.0,0.0,0.0,0.0,0.0,0.0,0.0,0.0,0.0,0.0,0.0,0.0,0.0,0.0,0.0,0.0,0.0,0.0,0.0,0.0,0.0,0.0,3.8841,3.9212,3.972,4.0385,4.1182,4.1328,4.0924,0.0,0.0,0.0,0.0,0.0,0.0,0.0,0.0,0.0,0.0,0.0,0.0,0.0,0.0,0.0,0.0,0.0,0.0,0.0,0.0,0.0,0.0,0.0,0.0,0.0,0.0,0.0,0.0,0.0,0.0,0.0,0.0,0.0,0.0,0.0,0.0,0.0,0.0,0.0,0.0,0.0,0.0,0.0,0.0,0.0,0.0,0.0,0.0,0.0,0.0,0.0,0.0,0.0,0.0,0.0,0.0,0.0,0.0,0.0,0.0,0.0,0.0,0.0,0.0,0.0,0.0,0.0,0.0,0.0,0.0,0.0,5.5299,0.0,0.0,0.0,0.0,0.0,0.0,0.0,0.0,0.0,0.0,0.0,0.0,0.0,0.0,0.0,0.0,0.0,0.0,0.0,0.0,0.0,0.0,0.0,3.1673,3.1946,3.2334,3.3462,3.4111,0.0,0.0,0.0,0.0,0.0,0.0,3.8571,3.8691,3.929,4.0397,4.0098,4.0658,4.2006,4.2922,4.273,4.162,4.1935,0.0,0.0,0.0,0.0,0.0,0.0,0.0,0.0,0.0,0.0,0.0,0.0,0.0,0.0,0.0,0.0,0.0,0.0,0.0,0.0,0.0,0.0,0.0,0.0,0.0,0.0,0.0,0.0,0.0,0.0,0.0,0.0,0.0,0.0,0.0,0.0,0.0,0.0,0.0,0.0,0.0,0.0,0.0,0.0,0.0,0.0,0.0,0.0,0.0,0.0,0.0,0.0,0.0,0.0,0.0,0.0,0.0,0.0,0.0,0.0,0.0,0.0,0.0,6.6876,6.8211,6.9247,6.9206,6.971,7.025,6.4285,6.0136,5.7484,0.0,0.0,0.0,0.0,0.0,0.0,0.0,0.0,0.0,0.0,0.0,0.0,0.0,0.0,0.0,0.0,0.0,0.0,0.0,0.0,3.2162,3.1356,3.1983,3.2172,3.1462,3.3521,3.4635,3.4053,0.0,0.0,0.0,0.0,3.9182,3.9272,3.9858,4.0217,4.0397,4.1463,4.283,4.4458,4.516,4.5833,4.6424,4.5239,4.4845,4.5091,0.0,0.0,0.0,0.0,0.0,0.0,0.0,0.0,0.0,0.0,0.0,0.0,0.0,0.0,0.0,0.0,0.0,0.0,0.0,0.0,0.0,0.0,0.0,0.0,0.0,0.0,0.0,0.0,0.0,0.0,0.0,0.0,0.0,0.0,0.0,0.0,0.0,0.0,0.0,0.0,0.0,5.3414,5.4932,0.0,0.0,0.0,0.0,0.0,0.0,0.0,0.0,0.0,0.0,0.0,0.0,0.0,6.8129,7.0343,7.2758,7.4063,7.4201,7.5849,7.6357,7.5852,7.5852,7.6657,7.799,7.6372,0.0,6.3856,6.1054,0.0,0.0,0.0,0.0,0.0,0.0,0.0,0.0,0.0,0.0,0.0,0.0,0.0,0.0,0.0,0.0,0.0,0.0,0.0,0.0,0.0,3.1577,3.2211,3.1808,3.477,3.6234,3.5171,3.7884,0.0,0.0,3.926,3.996,3.996,4.0606,4.1343,4.2073,4.44,4.5926,4.6691,4.8482,4.9562,4.9996,4.9898,4.8878,4.7182,4.65,0.0,0.0,0.0,0.0,0.0,0.0,0.0,0.0,0.0,0.0,0.0,0.0,0.0,0.0,0.0,0.0,0.0,0.0,0.0,0.0,0.0,0.0,0.0,0.0,0.0,0.0,0.0,0.0,0.0,0.0,0.0,0.0,0.0,0.0,0.0,0.0,0.0,0.0,0.0,5.654,5.8076,5.6551,5.7972,5.8216,0.0,0.0,0.0,0.0,0.0,0.0,0.0,0.0,0.0,7.2865,7.4136,7.5756,7.7757,7.9755,8.1233,8.2089,8.3721,8.4715,8.5186,8.4708,8.5105,8.6122,8.4371,8.1214,7.6816,6.9533,6.5177,6.289,0.0,0.0,0.0,0.0,6.1377,6.273,0.0,0.0,0.0,0.0,0.0,0.0,0.0,0.0,0.0,0.0,0.0,0.0,3.0643,3.2244,3.3377,3.353,3.6729,3.8186,3.6848,3.9055,3.9888,3.8691,3.9619,4.0217,4.0397,4.1825,4.3326,4.487,4.7774,4.945,4.9923,5.2109,5.3246,5.3551,5.4087,5.2457,4.9244,4.8515,4.8003,4.7533,0.0,0.0,0.0,0.0,0.0,0.0,0.0,0.0,0.0,0.0,0.0,0.0,0.0,0.0,0.0,0.0,0.0,0.0,0.0,0.0,0.0,0.0,0.0,0.0,0.0,0.0,0.0,0.0,0.0,0.0,0.0,0.0,0.0,0.0,0.0,0.0,0.0,6.0164,6.158,5.8397,6.1383,6.2406,0.0,0.0,0.0,0.0,0.0,0.0,7.4018,7.6211,7.8735,8.1913,8.2824,8.4144,8.6007,8.7467,8.8801,8.9943,9.1392,9.2501,9.3357,9.2686,9.2752,9.3249,9.0693,8.9101,8.7546,7.7929,7.1948,6.8614,6.6313,6.5325,6.5228,6.5818,6.7271,6.8901,0.0,0.0,0.0,0.0,0.0,0.0,0.0,0.0,0.0,0.0,0.0,3.1615,3.2879,3.5022,3.6598,3.7175,3.9376,4.0193,3.8919,3.9823,4.0098,3.9391,3.9421,3.975,4.0397,4.3943,4.6784,4.8806,5.1276,5.3344,5.5028,5.5812,5.6687,5.7556,5.6916,5.4814,5.1684,5.0999,4.9761,4.8194,4.7548,0.0,0.0,0.0,0.0,0.0,0.0,0.0,0.0,0.0,0.0,0.0,0.0,0.0,0.0,0.0,0.0,0.0,0.0,0.0,0.0,0.0,0.0,0.0,0.0,0.0,0.0,0.0,0.0,0.0,0.0,0.0,0.0,0.0,0.0,0.0,0.0,0.0,0.0,6.1118,6.5793,0.0,0.0,0.0,0.0,7.2439,7.4251,7.7617,8.316,8.4345,8.6997,9.1657,9.2696,9.4331,9.6693,9.7757,9.8255,9.8193,9.9115,9.9163,9.8414,9.8375,9.8375,9.8308,9.5867,9.3881,9.1754,8.4442,8.0466,7.8704,7.6239,7.4866,7.4264,7.43,7.4806,7.54,0.0,0.0,0.0,0.0,0.0,0.0,0.0,0.0,3.003,3.062,3.1739,3.3234,3.5174,3.778,3.9791,4.0883,4.2655,4.3018,4.1301,4.1501,4.1014,3.9481,4.0217,4.1912,4.4588,4.6854,4.9322,5.2038,5.455,5.6336,5.743,5.8341,5.8968,5.9302,5.9032,5.8002,5.631,5.366,5.2482,5.2152,5.0009,4.9111,0.0,0.0,0.0,0.0,0.0,0.0,0.0,0.0,0.0,0.0,0.0,0.0,0.0,0.0,0.0,0.0,0.0,0.0,0.0,0.0,0.0,0.0,0.0,0.0,0.0,0.0,0.0,0.0,0.0,0.0,0.0,0.0,0.0,0.0,0.0,0.0,0.0,7.0485,7.4724,0.0,7.3641,7.4752,7.6979,8.0096,8.2674,8.6861,9.3208,9.4868,9.7423,10.1279,10.181,10.2386,10.3202,10.3615,10.3692,10.3712,10.3405,10.321,10.2811,10.1178,10.0486,10.0302,9.7863,9.6469,9.5647,9.2576,8.7609,8.1722,7.9911,7.9065,7.8867,7.9396,8.041,8.1495,0.0,0.0,0.0,0.0,0.0,0.0,0.0,3.0062,3.0514,3.1137,3.3298,3.5634,3.7811,4.105,4.36,4.4934,4.5903,4.5697,4.3931,4.3537,4.264,4.1058,4.2554,4.4936,4.8147,5.0756,5.3571,5.6612,5.9209,6.0985,6.1936,6.237,6.2715,6.2993,6.244,6.1905,6.1269,5.8323,5.6131,5.4397,5.2131,5.1217,5.1032,0.0,0.0,0.0,0.0,0.0,0.0,0.0,0.0,0.0,0.0,0.0,0.0,0.0,0.0,0.0,0.0,0.0,0.0,0.0,0.0,0.0,0.0,0.0,0.0,0.0,0.0,0.0,0.0,0.0,0.0,0.0,0.0,0.0,0.0,0.0,7.6496,7.7979,8.2517,8.4688,8.2431,8.3572,8.5875,8.9305,9.1939,9.598,10.1904,10.3289,10.5213,10.801,10.8087,10.8021,10.7713,10.7713,10.7405,10.678,10.629,10.5821,10.5515,10.3501,10.2598,10.2507,9.9751,9.8567,9.8476,9.7108,9.2907,8.7169,8.5925,8.5112,8.4756,8.5563,8.6554,8.7435,0.0,0.0,0.0,0.0,0.0,0.0,2.9837,3.0601,3.1204,3.1278,3.5246,3.8813,4.0784,4.4824,4.7943,4.9284,4.8962,4.81,4.6739,4.5715,4.4898,4.4272,4.6317,4.8546,5.0849,5.5624,5.9543,6.2502,6.5163,6.7222,6.8713,6.7879,6.795,6.866,6.7117,6.6391,6.6337,6.4877,6.0686,5.4923,5.4025,5.2755,5.1417,0.0,0.0,0.0,0.0,0.0,0.0,0.0,0.0,0.0,0.0,0.0,0.0,0.0,0.0,0.0,0.0,0.0,0.0,0.0,0.0,0.0,0.0,0.0,0.0,0.0,0.0,0.0,0.0,0.0,0.0,0.0,0.0,0.0,7.1218,7.7389,8.2282,8.3248,8.9005,9.2249,9.0586,9.3432,9.6788,10.0106,10.1904,10.4713,10.879,10.9098,10.9906,11.1588,11.1588,11.1214,11.0291,11.0291,10.9483,10.7905,10.7905,10.7395,10.6584,10.5708,10.5206,10.4987,10.1823,10.0421,10.0202,9.7801,9.6355,9.555,9.4619,9.3262,9.1987,9.2831,9.3125,9.3015,0.0,0.0,0.0,0.0,0.0,0.0,3.0195,3.0782,3.1701,3.3035,3.687,4.046,4.3068,4.6789,4.9849,5.1676,4.9695,4.8134,4.7734,4.5625,4.5301,4.7358,4.8628,5.1932,5.7569,6.0705,6.3799,6.6936,6.8684,6.9581,6.9582,6.9777,6.978,6.9529,6.9103,6.8926,6.8855,6.7841,6.6115,6.3597,5.8843,5.6641,5.5969,0.0,0.0,0.0,0.0,0.0,0.0,0.0,0.0,0.0,0.0,0.0,0.0,0.0,0.0,0.0,0.0,0.0,0.0,0.0,0.0,0.0,0.0,0.0,0.0,0.0,0.0,0.0,0.0,0.0,0.0,0.0,0.0,8.1815,8.109,8.5896,9.096,9.4878,9.9086,10.1712,10.1818,10.3289,10.4789,10.6405,10.8098,11.0098,11.2483,11.3214,11.3791,11.4214,11.4291,11.3791,11.2983,11.2983,11.2714,11.2291,11.1598,11.1212,11.0908,10.948,10.8496,10.7789,10.5075,10.3601,10.2787,10.029,9.9181,9.8724,9.6142,9.4504,9.3639,9.3859,9.3969,9.3932,0.0,0.0,0.0,0.0,0.0,0.0,3.0643,3.1322,3.2435,3.4197,3.8525,4.2287,4.4465,4.825,5.0943,5.1783,5.0205,4.8749,4.7786,4.7316,4.8443,5.1591,5.4017,5.7844,6.3235,6.6567,6.9346,7.1499,7.308,7.3834,7.3823,7.3479,7.3672,7.4314,7.3317,7.2927,7.2891,7.2127,7.1171,6.978,6.5414,6.2297,5.9881,5.6972,5.6145,5.6259,5.464,5.4181,5.3995,5.2244,0.0,0.0,0.0,0.0,0.0,0.0,0.0,0.0,0.0,0.0,0.0,0.0,0.0,0.0,0.0,0.0,0.0,0.0,0.0,0.0,0.0,0.0,0.0,0.0,8.589,9.1325,9.4057,9.5788,9.8365,10.2789,10.5597,10.7598,10.8521,10.929,11.0291,11.1483,11.2483,11.3714,11.4984,11.5484,11.5803,11.5803,11.5803,11.5407,11.4599,11.4484,11.4407,11.3984,11.3483,11.3189,11.3214,11.1913,11.1014,0.0,10.7886,10.6415,10.5411,10.3204,10.191,0.0,0.0,0.0,0.0,0.0,9.5571,9.5252,0.0,0.0,0.0,0.0,0.0,0.0,3.1106,3.2118,3.3329,3.4946,3.9931,4.3808,4.5109,4.9061,5.1394,5.0814,5.0587,4.9736,4.8019,5.0214,5.3197,5.6767,6.1082,6.4981,6.8384,7.2742,7.5383,7.6268,7.7925,7.9082,7.9683,7.8239,7.8697,8.0585,7.8563,7.7676,7.7619,7.6936,7.5836,7.4368,7.2665,6.8691,6.3602,6.1899,6.1126,6.0767,5.8994,5.799,5.707,5.4083,0.0,0.0,0.0,0.0,0.0,0.0,0.0,0.0,0.0,0.0,0.0,0.0,0.0,0.0,0.0,0.0,0.0,0.0,0.0,0.0,0.0,0.0,0.0,0.0,9.421,10.0289,10.7521,10.602,10.529,10.8213,10.9906,11.1291,11.2291,11.3022,11.4099,11.5599,11.5715,11.5984,11.6803,0.0,0.0,0.0,0.0,11.6418,11.5715,11.5484,11.5099,11.4407,11.4291,11.4291,11.4319,11.3495,11.3095,11.2916,11.062,10.9015,10.7997,10.6192,10.4484,10.2777,10.0387,9.9504,9.9414,9.8738,9.7962,9.7304,0.0,0.0,0.0,0.0,0.0,0.0,3.1474,3.2848,3.434,3.6005,3.9934,4.3201,4.4722,4.8247,5.1008,5.2255,5.0974,5.0755,5.2269,5.3355,5.6756,6.3061,6.613,6.9966,7.4873,7.7189,7.9392,8.1529,8.2391,8.2613,8.2312,8.2445,8.221,8.1673,8.1261,8.111,8.114,8.0378,7.9874,7.9396,7.7069,7.3157,6.842,6.5555,6.4072,6.3185,6.0876,6.0412,6.056,5.8548,5.8182,5.8233,5.595,5.4521,0.0,0.0,0.0,0.0,0.0,0.0,0.0,0.0,0.0,0.0,0.0,0.0,0.0,0.0,0.0,0.0,0.0,0.0,0.0,9.4848,10.1789,10.8213,11.3099,11.3791,11.3791,11.3791,11.4687,11.5907,11.7484,11.7792,11.7984,11.8292,11.8407,11.8407,11.86,11.86,11.86,11.86,11.7907,11.7792,11.8407,11.6984,11.6484,11.71,0.0,0.0,11.5984,11.5794,11.5402,11.4702,11.3515,11.2114,11.0499,10.8197,10.6176,10.4486,10.2813,10.2125,10.2102,10.1898,10.1699,10.1498,0.0,0.0,0.0,0.0,0.0,0.0,3.2003,3.3231,3.4712,3.6688,3.993,4.2603,4.405,4.7243,4.935,4.9501,4.9447,5.1086,5.4965,5.7358,6.1618,6.8395,7.1692,7.5372,7.9661,8.1695,8.3302,8.4551,8.5303,8.5495,8.521,8.4711,8.4632,8.4732,8.3661,8.3425,8.3824,8.2695,8.2207,8.206,8.0424,7.8295,7.5659,7.1224,6.8749,6.7399,6.5871,6.498,6.4353,6.2828,6.231,6.1858,5.9074,5.7661,5.6678,0.0,0.0,0.0,0.0,0.0,0.0,0.0,0.0,0.0,0.0,0.0,0.0,0.0,0.0,7.7374,0.0,0.0,9.7008,10.2298,10.7482,11.2099,11.5984,11.6907,11.7215,11.7215,11.76,11.81,11.8985,11.91,11.91,11.91,11.91,11.91,11.91,11.91,11.91,11.91,11.8715,11.8715,11.91,11.8215,11.7984,11.8407,11.76,11.7215,11.71,11.6676,11.6303,11.5896,11.5018,11.3924,11.2509,11.0006,10.819,10.7023,10.6579,10.5498,10.4086,10.41,10.3785,10.3412,0.0,0.0,0.0,0.0,0.0,0.0,0.0,3.3567,3.5003,3.6973,3.9585,4.1744,4.2958,4.5758,4.726,4.6564,4.8369,5.1922,5.7556,6.1597,6.6726,7.3313,7.7058,8.0373,8.3305,8.5347,8.6594,8.7094,8.7786,8.8209,8.8355,8.7102,8.7187,8.827,8.632,8.5848,8.643,8.4972,8.4335,8.4262,8.3287,8.281,8.2113,7.7209,7.4144,7.2352,7.1363,6.9573,6.7566,6.6585,6.5438,6.3973,6.1513,6.0474,5.9685,5.7099,5.6664,0.0,0.0,0.0,0.0,0.0,0.0,0.0,0.0,6.5392,6.9851,7.3935,7.9987,8.6323,9.2161,9.8219,10.3982,10.929,11.2291,11.5022,11.81,11.8523,11.8908,11.9908,11.9792,11.9715,11.9985,12.01,12.01,12.01,12.01,11.9985,11.9792,11.9792,11.9792,11.96,11.9408,11.9408,11.96,11.9292,11.9215,11.9292,11.8484,11.8023,11.7792,11.71,11.6688,11.6484,11.559,11.4617,11.3294,11.1113,10.982,10.9183,10.9695,10.8588,10.6714,10.6411,10.5784,10.5302,0.0,0.0,0.0,0.0,0.0,0.0,0.0,0.0,3.5644,3.6507,3.8482,4.0211,4.1183,4.3247,4.5388,4.7379,5.0204,5.4783,6.1507,6.5761,7.1073,7.796,8.1431,8.4003,8.5672,8.6722,8.8363,9.0633,9.0748,9.1171,9.1941,9.1733,9.1433,9.0933,9.002,8.9761,8.9827,8.8307,8.7655,8.7545,8.6004,8.4976,8.4095,8.2039,7.9789,7.7453,7.5037,7.1863,6.8806,6.9235,6.7329,6.4812,6.5305,6.4349,6.2469,5.949,5.822,5.7442,5.5987,5.6166,5.7423,6.0211,6.1695,6.3997,0.0,7.4205,7.9083,8.5874,9.1397,9.6741,10.2399,10.7192,11.1214,11.4099,11.6715,11.8985,12.0908,12.1189,12.1793,12.3408,12.2216,12.1908,12.3408,12.3485,12.3485,12.3485,12.3485,12.3216,12.2524,12.2485,12.21,12.1293,12.06,12.0485,12.1304,11.9792,11.9485,12.0216,11.9292,11.8523,11.7792,11.7715,11.7215,11.65,11.5613,11.3912,11.1588,11.0507,11.0088,10.9981,10.9306,11.0187,11.168,11.0182,10.9612,10.9397,0.0,0.0,0.0,0.0,0.0,0.0,0.0,0.0,3.5878,3.6985,3.8356,3.9655,4.0861,4.2235,4.3946,4.6118,4.9666,5.5075,6.2806,6.8372,7.4506,8.1537,8.446,8.6682,8.8278,8.9171,9.0364,9.1979,9.2441,9.2826,9.321,9.2804,9.2463,9.2115,9.0939,9.0715,9.1093,8.9561,8.916,8.9491,8.8353,8.7675,8.7124,8.4572,8.15,7.8092,7.4695,7.1342,0.0,6.8589,6.8321,6.7887,6.7629,6.6791,6.5356,6.248,6.117,6.0491,5.9412,6.0072,6.1581,6.3925,6.7524,7.1748,7.6408,8.1595,8.6997,9.2504,9.8618,10.4396,10.8695,11.2599,11.5715,0.0,11.8792,12.0216,12.142,12.1612,12.1985,12.3293,12.2793,12.2985,12.4716,12.4909,12.4909,12.4909,12.4409,12.3985,12.3601,12.3216,12.2716,12.2408,12.1985,12.1716,12.1612,12.1408,12.1216,12.0985,12.0216,11.9408,11.8484,11.8011,11.7292,11.6511,11.6102,11.5102,11.3605,11.2706,11.2113,11.1597,11.0691,11.1323,11.2588,11.139,11.0598,11.0214,0.0,0.0,0.0,0.0,0.0,0.0,0.0,0.0,0.0,0.0,3.8229,3.9375,4.0638,4.1695,4.301,4.4845,4.8898,5.4798,6.2955,6.9224,7.5774,8.2939,8.5908,8.8094,8.9556,9.0864,9.1979,9.2826,9.3672,9.4181,9.4394,9.3923,9.3573,9.3335,9.2048,9.1693,9.1971,9.0612,9.0408,9.0886,9.028,8.951,8.8372,8.5159,8.0961,7.6385,7.3369,6.9763,6.6512,6.6679,6.6911,6.7171,6.7456,6.6946,6.5882,6.4069,6.2997,6.2545,6.3131,6.4452,6.6455,6.9679,7.4622,7.974,8.3736,8.9047,9.4531,9.9445,10.501,11.0079,11.3795,11.6484,11.86,11.9908,12.0793,12.1677,12.2485,12.2408,12.2293,12.2216,12.2216,12.2716,12.3909,12.4793,12.5486,12.5678,12.5216,12.4716,12.4486,12.3909,12.3485,12.3204,12.3204,12.2908,12.2293,12.2908,12.2793,12.1985,12.1293,12.0485,11.9408,11.8292,11.7484,11.6792,11.6611,11.5801,11.4515,11.3792,11.3091,11.2213,11.1294,11.1806,11.2887,11.2086,11.1407,11.0983,0.0,0.0,0.0,0.0,0.0,0.0,0.0,0.0,0.0,0.0,0.0,3.9216,4.0033,4.1441,4.2804,4.4113,4.859,5.4544,6.2145,6.7801,7.4086,8.127,8.5341,8.7825,8.8718,9.1171,9.2864,9.3672,9.4527,9.5412,9.6211,9.6192,9.5805,9.5089,9.4322,9.3625,9.2902,9.2068,9.173,9.1767,9.173,8.9858,8.6721,8.3508,7.8187,7.2407,7.1696,6.7337,6.2153,6.3696,6.2082,6.0107,6.3918,6.3918,6.2715,6.3447,6.2708,6.2489,6.6448,6.8698,7.163,7.8771,8.3054,8.6978,9.2629,9.7077,10.1899,10.8505,11.1299,11.3811,11.81,11.8985,11.9908,12.2408,12.3485,12.4293,12.5178,12.4601,12.3101,12.0716,12.0408,12.0408,0.0,12.3485,12.5794,12.6614,12.6601,12.6306,12.5409,12.5293,12.4909,12.4101,12.4101,12.4101,12.3985,12.4101,12.3716,12.2908,12.2781,12.1908,12.0216,11.86,11.7792,11.7715,11.6907,11.5011,11.2689,11.2694,11.2096,11.1319,11.0386,11.1604,11.3799,11.2998,11.2601,11.2588,0.0,0.0,0.0,0.0,0.0,0.0,0.0,0.0,0.0,0.0,0.0,0.0,0.0,0.0,0.0,0.0,4.8377,5.3289,5.9722,6.6464,7.2614,7.8006,8.2673,8.5969,8.7786,8.9787,9.1748,9.371,9.4566,9.5451,9.6288,9.6288,9.6155,9.5872,9.4668,9.3963,9.3648,9.2365,9.1803,9.1657,9.0041,8.8757,8.7288,8.246,7.6551,7.0483,0.0,6.3425,5.9116,5.8729,5.8888,5.9589,6.1346,6.2235,6.2728,6.3008,6.5032,6.7744,7.02,7.5207,8.0954,8.6082,9.0629,9.5034,9.9622,10.2988,10.6107,10.9525,11.0605,11.1788,11.4407,11.5396,11.6595,11.9119,12.1589,12.3793,12.5216,12.5601,12.4486,12.0716,12.1293,0.0,0.0,0.0,0.0,12.5678,12.6421,12.6614,12.6294,12.6306,12.5909,12.4986,12.4986,12.4986,12.4986,12.4986,12.4486,12.3716,12.1985,12.0908,12.0216,11.86,11.7494,11.6888,11.6008,11.4798,11.3387,11.2804,11.2677,11.2908,11.1973,11.2905,11.4715,11.4486,11.4401,11.4291,0.0,0.0,0.0,0.0,0.0,0.0,0.0,0.0,0.0,0.0,0.0,0.0,0.0,0.0,0.0,0.0,0.0,5.173,5.7367,6.2954,6.8243,7.3136,7.7169,8.0259,8.2314,8.4047,8.5848,8.7763,8.8912,9.0243,9.163,9.1926,9.2213,9.2497,9.1805,9.1375,9.1074,9.0086,8.916,8.8169,8.604,8.4132,8.2076,7.7283,7.1832,0.0,6.3137,5.9756,5.6611,5.5993,5.6626,5.7952,5.9423,6.1239,6.3073,6.4586,6.8014,7.234,7.6888,8.3008,8.93,9.4218,9.8666,10.2593,10.5507,10.7291,10.8712,10.949,10.9007,10.8778,10.9893,11.0103,11.1506,11.5701,11.8292,12.0985,12.4909,12.4793,12.3408,12.06,12.0485,11.9715,0.0,0.0,0.0,12.4716,12.5678,12.6486,12.7101,12.7409,12.7294,12.6794,12.6794,12.6794,12.6794,12.6409,12.5601,12.4101,12.21,12.11,12.0716,11.9017,11.7719,11.6902,11.5686,11.4518,11.3416,11.2701,11.2889,11.3286,11.2683,11.3599,11.5224,11.5224,11.5205,11.5099,0.0,0.0,0.0,0.0,0.0,0.0,0.0,0.0,0.0,0.0,0.0,0.0,0.0,0.0,0.0,0.0,0.0,0.0,5.4993,5.7589,6.1367,6.6844,6.9375,7.1406,7.3007,7.4753,7.6042,7.6931,7.8522,8.0509,8.2827,8.3599,8.4431,8.5286,8.6026,8.5955,8.5317,8.5267,8.3895,8.1624,7.9989,7.6509,7.1955,6.8743,6.4613,6.0326,5.8735,5.6624,5.4711,5.5466,5.5367,5.5484,5.8502,6.1178,6.4035,6.8196,7.1805,7.6512,8.5998,9.1754,9.6569,10.2791,10.6898,10.9405,10.9975,11.0088,10.9715,10.8895,10.6584,10.468,10.4693,10.3603,10.5094,11.2599,11.4099,11.6984,12.4486,12.2793,12.0793,0.0,0.0,0.0,0.0,0.0,0.0,12.3909,0.0,12.6217,12.7897,12.8794,12.9217,12.9217,12.9217,12.9217,12.9294,12.8409,12.6589,12.4101,12.3293,12.2408,12.1512,11.9782,11.8504,11.7603,11.5897,11.4112,11.2505,11.2507,11.2491,11.2586,11.2606,11.3701,11.5318,11.5318,11.5319,11.5215,0.0,0.0,0.0,0.0,0.0,0.0,0.0,0.0,0.0,0.0,0.0,0.0,0.0,0.0,0.0,0.0,0.0,0.0,5.1248,5.4762,5.8065,6.1052,6.5175,6.8084,6.9617,7.1294,7.2868,7.4348,7.4814,7.5979,7.7769,7.7986,7.8523,7.9282,7.8916,7.8674,7.8466,7.7923,7.7003,7.5754,7.3556,7.1535,6.9525,6.632,6.2844,5.9641,5.9201,5.7137,5.4711,5.5466,5.7584,6.0244,6.2221,6.5742,6.9921,7.3976,7.9599,8.5859,9.2031,9.889,10.5004,10.79,11.0714,11.2387,11.1208,10.9603,10.7516,10.491,10.0511,9.703,9.6842,9.9136,10.3311,11.0084,11.5907,0.0,12.7409,12.7986,0.0,12.4409,0.0,12.3985,12.1485,12.1985,0.0,0.0,12.5601,12.6409,12.8705,12.9717,12.991,12.9217,12.9217,12.9487,13.0217,12.8717,12.6589,12.4101,12.3293,12.2408,12.16,12.0396,11.9111,11.7508,11.5802,11.4123,11.2384,11.2509,11.2907,11.3603,11.4301,11.5186,11.6176,11.6176,11.6205,11.611,0.0,0.0,0.0,0.0,0.0,0.0,0.0,0.0,0.0,0.0,0.0,0.0,0.0,0.0,0.0,0.0,0.0,0.0,0.0,5.1599,5.3782,5.5983,5.8951,6.11,6.2316,6.3545,6.4991,6.6635,6.6673,6.79,7.0155,7.0155,7.0968,7.2422,7.2017,7.2041,7.2369,7.1586,7.0407,0.0,0.0,6.5043,6.346,6.1285,5.9155,5.7387,5.8073,5.8245,5.858,6.1128,6.3245,6.5382,6.8422,7.2459,7.7142,8.261,8.7638,9.2866,9.9644,10.5592,11.0515,11.2909,11.4307,11.3998,11.018,10.741,10.3797,9.7613,9.3529,9.0804,8.9816,9.3518,9.9162,10.672,11.3407,12.0292,12.7602,12.8102,12.7486,0.0,12.7602,0.0,12.4793,12.5293,12.6294,0.0,12.6986,12.7486,12.9717,13.0602,13.0794,13.0294,13.0294,13.0217,12.991,12.8602,12.6589,12.4101,12.3293,12.2408,12.16,12.0695,11.9514,11.8091,0.0,11.4807,11.362,11.3206,11.3692,11.4481,11.5017,11.569,11.6495,11.6495,11.6495,11.6418,0.0,0.0,0.0,0.0,0.0,0.0,0.0,0.0,0.0,0.0,0.0,0.0,0.0,0.0,0.0,0.0,0.0,0.0,0.0,0.0,4.9833,5.1909,5.274,5.3459,5.412,5.4793,5.58,5.708,5.708,5.8616,6.1565,6.1565,6.2821,6.5075,6.5076,6.548,6.6151,6.543,6.3891,6.1781,6.0387,5.8481,5.6382,0.0,5.5054,5.4837,5.647,5.9389,6.3333,6.8799,7.0521,7.1188,7.6147,8.0572,8.5343,9.2317,9.5621,9.8772,10.72,11.1288,11.3822,11.6683,11.6722,11.4316,10.7714,10.3812,9.894,8.9516,8.6591,8.5196,8.3561,8.7739,9.449,10.3688,10.972,11.6792,12.6986,12.6486,12.6294,12.9294,12.9102,12.8409,12.7602,12.8217,12.8782,12.9487,12.8782,12.9102,13.0602,13.1295,13.1679,13.1679,13.1679,13.091,12.9217,12.8282,12.6589,12.4101,12.3293,12.2408,12.1589,12.0576,11.9787,11.891,0.0,0.0,11.5001,11.44,11.4481,11.5186,11.5282,11.5817,11.6495,11.6495,11.6495,11.6418,0.0,0.0,0.0,0.0,0.0,0.0,0.0,0.0,0.0,0.0,4.0214,4.0286,0.0,0.0,0.0,0.0,0.0,0.0,0.0,0.0,0.0,5.0355,5.1727,5.2216,5.1718,5.2488,5.2694,5.2302,5.2302,5.323,5.5049,5.5049,5.5941,5.7568,5.7584,5.7683,5.7775,5.7646,5.7007,5.6013,5.5754,5.5003,5.4051,5.3933,0.0,0.0,5.7105,5.9134,6.2169,7.1075,7.5765,7.8854,8.4361,8.9366,9.4245,9.9475,10.2705,10.5617,11.0488,11.3688,11.5601,11.5609,11.44,11.1593,10.5109,9.9063,9.2881,8.5708,8.1436,7.8844,7.8413,8.4631,9.3263,10.3694,11.13,11.9408,12.9602,13.0679,13.091,0.0,13.2795,13.291,13.2,13.1987,0.0,0.0,0.0,13.1179,13.1487,13.1602,13.1679,13.1679,13.1679,13.091,12.9217,12.8282,12.6589,12.4101,12.3293,12.2408,12.16,12.0687,11.9789,11.8781,11.7179,0.0,11.5093,11.5013,11.5098,11.528,11.6005,11.6405,11.6495,11.6495,11.6495,11.6495,0.0,0.0,0.0,0.0,0.0,0.0,0.0,4.0675,4.0811,4.1183,4.0829,4.0602,4.0658,4.0969,4.1607,0.0,0.0,0.0,0.0,0.0,0.0,4.9443,5.0522,5.0926,5.0527,5.1269,5.1878,5.2303,0.0,5.2475,5.3948,5.3559,5.3983,5.5066,5.4665,5.4749,5.5084,5.473,5.4343,5.4009,5.4009,5.4037,5.411,5.4543,0.0,0.0,5.8804,6.116,6.4607,7.1368,7.7776,8.4048,9.058,9.6234,10.109,10.4284,10.7,10.9497,11.2403,11.4689,11.608,11.5801,11.3209,10.8588,10.0296,9.3437,8.6502,7.8734,7.5527,7.4491,7.5596,8.1915,8.9889,9.8858,10.5111,11.3014,12.4902,12.6094,12.7602,13.2423,13.4103,13.4411,13.3115,13.341,13.3103,0.0,0.0,13.1679,13.1679,13.1679,13.1679,13.1679,13.1295,13.0487,12.9217,12.7486,12.5794,12.4101,12.2793,12.1985,12.1612,12.0677,12.0089,11.9508,11.7911,0.0,11.6501,11.6085,11.588,11.5917,11.6293,11.6495,11.6495,11.6495,11.6495,11.6495,0.0,0.0,0.0,0.0,0.0,0.0,0.0,4.0709,4.1097,4.1679,4.1259,4.1049,4.1339,4.0699,4.1036,0.0,0.0,0.0,0.0,0.0,0.0,0.0,0.0,0.0,4.9703,0.0,0.0,0.0,5.2313,0.0,0.0,0.0,0.0,0.0,5.3694,5.3776,5.4343,5.375,5.3518,0.0,0.0,5.4042,0.0,0.0,0.0,0.0,0.0,6.2894,6.641,7.1144,7.7624,8.4976,9.2097,9.8961,10.4614,10.6082,10.8505,11.1088,11.3012,11.4498,11.5592,11.5301,11.1114,10.4727,9.5641,8.8129,8.0739,7.2701,7.105,7.1614,7.3541,7.9087,8.5944,9.3747,9.8452,10.5887,11.9593,12.1385,12.4293,13.2115,13.4603,0.0,13.341,13.391,0.0,0.0,0.0,0.0,13.1679,13.1679,13.1679,13.1679,13.091,13.0102,12.9217,12.6717,12.4986,12.4101,12.2408,12.1612,12.1612,12.0677,12.0216,11.9985,11.8484,0.0,0.0,11.6792,11.6495,11.6495,11.6495,11.6495,11.6495,11.6495,11.6495,11.6495,0.0,0.0,0.0,0.0,0.0,0.0,0.0,3.9169,3.9959,4.0023,4.0385,4.0971,4.1832,4.1273,4.1231,0.0,0.0,0.0,0.0,0.0,0.0,0.0,0.0,0.0,0.0,0.0,0.0,0.0,0.0,0.0,0.0,0.0,0.0,0.0,0.0,5.3533,5.3601,5.3517,0.0,0.0,0.0,0.0,0.0,0.0,0.0,0.0,0.0,6.2205,6.42,7.125,7.5117,7.8148,8.4719,9.3731,10.2008,10.2889,10.5899,10.9518,11.1904,11.3198,11.3515,11.2006,10.6296,9.9321,9.2591,8.4272,7.6481,7.1284,7.022,7.0505,7.1442,7.5706,8.2228,9.1848,9.68,10.4293,11.8484,12.3,12.6909,13.2384,0.0,0.0,13.4295,13.4295,0.0,0.0,0.0,0.0,13.1679,13.1679,13.1679,13.1679,13.091,13.0102,12.9217,12.6717,12.4986,12.4101,12.2408,12.1612,12.1612,12.0677,11.9908,11.9215,0.0,0.0,0.0,11.6484,11.6495,11.6495,11.6495,11.6495,11.6495,11.6495,11.6495,11.6495,0.0,0.0,0.0,0.0,0.0,0.0,3.8439,3.9262,4.0159,4.1006,4.121,4.1611,4.251,4.188,4.1805,4.2822,0.0,0.0,0.0,0.0,0.0,0.0,0.0,0.0,0.0,0.0,0.0,5.0958,0.0,0.0,0.0,0.0,0.0,0.0,0.0,0.0,5.3518,5.3518,0.0,0.0,0.0,0.0,0.0,0.0,0.0,0.0,0.0,0.0,6.3943,6.6329,6.9853,7.3215,7.3413,8.0351,8.9839,9.6979,10.2301,10.6486,10.9386,11.1882,11.3006,11.0414,10.4284,9.7016,9.0078,8.1195,7.3325,6.9449,6.7871,6.8041,7.0793,7.3272,7.7603,8.5828,8.8029,9.3616,10.7803,11.1296,11.6407,12.7191,13.0217,0.0,0.0,0.0,13.2987,0.0,0.0,0.0,13.1679,13.1679,13.1487,13.0987,13.0217,12.9294,12.8397,12.5909,12.4409,12.4101,12.2408,12.1612,12.1612,12.0677,12.01,11.9715,0.0,0.0,0.0,11.6676,11.6495,11.6495,11.6495,11.6495,11.6495,11.6495,11.6792,11.7292,0.0,0.0,0.0,0.0,0.0,3.7556,3.785,3.878,3.9801,4.0822,4.1548,4.2258,4.2921,4.2469,4.2427,4.3289,4.3895,0.0,0.0,0.0,0.0,0.0,0.0,0.0,0.0,0.0,4.8464,5.0682,5.0682,0.0,0.0,0.0,0.0,0.0,0.0,0.0,0.0,0.0,0.0,0.0,0.0,0.0,0.0,0.0,0.0,0.0,0.0,0.0,0.0,0.0,0.0,6.9032,6.6206,7.0477,7.8641,8.9014,9.6685,10.2485,10.6009,10.99,11.2102,10.8909,10.2412,9.496,8.7912,7.914,7.1578,6.8361,6.699,6.7307,7.0389,7.1798,7.4596,8.1014,8.2486,8.7324,10.0191,10.3677,10.9406,12.1408,12.4486,12.7217,0.0,13.2179,13.2423,0.0,0.0,0.0,13.1679,13.1679,13.141,13.091,12.9794,12.8909,12.8282,12.5486,12.4101,12.4101,12.2408,12.1497,12.1177,12.06,11.9985,11.9485,0.0,0.0,0.0,11.6803,11.6495,11.6484,11.6792,11.6676,11.6611,11.7111,11.7484,11.7781,0.0,0.0,0.0,0.0,0.0,0.0,3.5651,3.7169,3.8427,3.8427,4.0916,4.2788,4.2985,4.2988,4.309,4.328,4.3784,0.0,0.0,0.0,0.0,0.0,0.0,0.0,0.0,0.0,4.8667,5.0397,5.0397,5.0416,5.0435,5.0435,0.0,0.0,0.0,0.0,0.0,0.0,0.0,0.0,0.0,0.0,5.9559,0.0,0.0,0.0,0.0,0.0,0.0,0.0,0.0,0.0,0.0,6.7013,7.0624,7.8772,8.8573,9.764,10.1714,10.689,11.0487,10.7183,10.0283,9.2611,8.6114,7.8332,7.1578,6.8361,6.8311,6.9119,6.9963,7.1431,7.4002,7.8603,8.2824,8.8988,9.8749,10.4482,10.9906,11.5918,11.8792,12.1716,12.5178,12.9294,0.0,0.0,0.0,0.0,13.1679,13.1679,13.1679,13.1679,13.0102,12.9217,12.9217,12.5794,12.4101,12.4101,12.2408,12.11,12.0292,12.0292,11.9408,0.0,0.0,0.0,0.0,11.6495,11.6495,11.6611,11.7407,11.7292,11.6688,11.8407,11.8484,11.7907,0.0,0.0,0.0,0.0,0.0,0.0,0.0,3.6776,3.7883,3.835,4.0501,4.2258,4.2921,4.2988,4.3231,4.3734,4.3412,0.0,0.0,0.0,0.0,0.0,0.0,0.0,0.0,0.0,4.7599,4.9316,4.9316,4.9675,5.0397,5.0397,5.093,0.0,0.0,0.0,0.0,0.0,0.0,0.0,0.0,5.8132,5.9515,0.0,0.0,0.0,0.0,0.0,0.0,0.0,0.0,0.0,0.0,0.0,0.0,6.9339,7.85,8.8482,9.2519,9.6575,9.8851,9.5621,9.0758,8.5583,8.0702,7.5065,7.0403,6.8825,6.8274,6.8641,7.0573,7.2239,7.5412,8.174,8.4814,8.9219,9.7212,10.3712,11.0098,11.6599,12.4793,13.0102,0.0,0.0,0.0,0.0,0.0,0.0,13.1679,13.1179,13.091,13.091,12.9794,12.8602,12.7486,12.5216,12.3793,12.3293,12.21,12.1497,12.1189,12.06,0.0,0.0,0.0,0.0,0.0,11.6715,11.6907,11.7407,11.7715,11.7984,11.8292,11.8908,11.9292,11.9485,0.0,0.0,0.0,0.0,0.0,0.0,0.0,3.6497,3.7644,3.8302,4.0385,4.2016,4.2473,4.26,4.2777,4.3139,4.2173,0.0,0.0,0.0,0.0,0.0,0.0,0.0,0.0,4.5082,4.6497,4.8231,4.8506,4.8954,4.9601,4.9882,5.0385,5.1128,5.1128,0.0,0.0,0.0,0.0,0.0,5.6101,5.7779,5.981,0.0,0.0,0.0,0.0,0.0,0.0,0.0,0.0,0.0,0.0,0.0,0.0,0.0,7.1527,7.9124,8.4702,8.9271,9.1803,8.9143,8.5473,8.1399,7.7326,7.3362,7.0257,6.9119,6.8752,6.9229,7.1344,7.2826,7.5509,8.1063,8.4412,8.86,9.5166,10.2212,10.9598,11.7407,12.5794,0.0,0.0,13.1295,0.0,0.0,0.0,0.0,13.1679,13.1179,13.0794,13.0487,12.9294,12.8102,12.669,12.4986,12.3716,12.2908,12.1677,12.0997,12.06,11.9792,0.0,0.0,0.0,0.0,0.0,11.6676,11.6984,11.7781,11.8215,11.86,11.9215,11.9792,12.0177,12.0292,0.0,0.0,0.0,0.0,0.0,0.0,0.0,3.6426,3.7674,3.8362,4.0503,4.1942,4.1807,4.1903,4.1909,4.1703,0.0,0.0,0.0,0.0,0.0,0.0,0.0,0.0,4.433,4.4585,4.5508,4.7309,4.7967,4.8319,4.8319,4.8977,4.9486,4.9791,4.9791,5.0545,0.0,0.0,0.0,0.0,5.5659,5.7541,0.0,0.0,0.0,0.0,0.0,0.0,0.0,0.0,0.0,0.0,0.0,0.0,0.0,0.0,0.0,0.0,0.0,8.4042,8.7822,8.6207,8.2994,7.925,7.5417,7.2812,0.0,6.9435,6.9743,7.0807,7.2532,7.3413,7.4899,7.8093,8.2576,8.7601,9.3168,10.0991,10.9483,11.8792,12.3601,0.0,12.6986,12.991,0.0,0.0,0.0,0.0,13.1679,13.1602,13.1179,13.0294,12.8602,12.7409,12.6601,12.4909,12.3601,12.2793,12.11,11.9908,11.9215,11.8215,0.0,0.0,0.0,0.0,0.0,11.6495,11.71,11.8023,11.8792,11.9215,11.9485,12.0985,12.11,12.0496,0.0,0.0,0.0,0.0,0.0,0.0,0.0,0.0,0.0,0.0,4.0677,4.1766,4.1713,4.1745,4.1426,0.0,0.0,0.0,0.0,0.0,0.0,0.0,0.0,0.0,4.2418,4.4287,4.5879,4.7309,4.7967,4.8319,4.8319,4.8977,4.9486,4.9791,4.9791,5.0145,0.0,0.0,0.0,0.0,5.4329,5.6427,0.0,0.0,0.0,0.0,6.2793,6.2793,0.0,0.0,0.0,0.0,0.0,0.0,0.0,0.0,6.6292,6.7614,7.0146,0.0,7.6093,7.4478,7.3377,7.2422,0.0,7.077,7.0624,7.1468,7.1798,7.2789,7.5637,7.5821,7.7552,8.364,8.6252,8.9637,9.5742,10.7713,11.8792,12.6909,13.0987,13.241,13.0679,13.1795,0.0,0.0,0.0,13.1679,13.1679,13.0487,12.941,12.8512,12.6909,12.5909,12.5678,12.3985,12.2793,12.1908,12.0793,12.0216,11.9985,11.8484,0.0,0.0,0.0,0.0,11.6495,11.6495,11.7407,11.8792,11.8985,11.9908,12.1112,12.1497,12.1497,12.14,0.0,0.0,0.0,0.0,0.0,0.0,0.0,0.0,0.0,0.0,0.0,4.2027,4.1595,4.1937,0.0,0.0,0.0,0.0,0.0,0.0,0.0,0.0,0.0,3.9997,4.1766,4.3329,4.5191,4.7309,4.8289,4.8768,4.8768,4.9726,4.9952,4.9539,4.9427,4.9458,0.0,0.0,0.0,5.2506,5.3631,0.0,0.0,0.0,0.0,0.0,6.3246,6.3126,0.0,6.4112,6.4495,6.4592,0.0,0.0,0.0,0.0,6.522,6.5868,6.5909,6.8342,7.0807,7.0697,7.0367,7.0183,7.0587,7.0954,7.1468,7.2312,7.3083,7.4243,7.6371,7.6958,7.8829,8.4155,8.7326,9.2699,10.3006,11.3214,12.2485,13.0102,13.2679,13.3487,0.0,0.0,0.0,0.0,0.0,13.1679,13.1679,13.0487,12.9217,12.7897,12.6294,12.4986,12.4293,12.2985,12.1908,12.0985,11.9715,11.9215,11.91,11.7792,0.0,0.0,0.0,0.0,11.6495,11.6495,11.7484,11.91,11.91,12.01,12.1612,12.1612,12.1612,12.1616,0.0,0.0,0.0,0.0,0.0,0.0,0.0,0.0,0.0,0.0,0.0,0.0,0.0,0.0,0.0,0.0,0.0,0.0,0.0,0.0,0.0,0.0,3.6984,3.8642,4.1471,4.2186,4.4031,4.7167,4.8499,4.9305,4.9606,5.09,5.081,4.9561,4.8962,4.8707,0.0,0.0,0.0,5.2686,5.3393,0.0,0.0,0.0,0.0,0.0,0.0,0.0,0.0,6.4333,6.4769,6.4881,6.5676,0.0,0.0,0.0,0.0,0.0,6.4741,6.688,6.939,7.0338,7.0234,7.0116,7.0912,7.1821,7.2569,7.2826,7.4059,7.5462,7.6736,7.8045,8.0114,8.3861,8.9032,9.7521,11.1698,11.7715,12.3408,13.0679,13.1987,0.0,13.3795,0.0,0.0,0.0,0.0,13.1679,13.1679,13.0679,12.941,12.7794,12.5986,12.4216,12.2524,12.1793,12.0997,12.01,11.8523,11.7792,11.7792,11.6907,11.6495,0.0,0.0,0.0,11.6495,11.6495,11.7484,11.91,11.91,12.01,12.1612,12.1612,12.1708,12.1887,0.0,0.0,0.0,0.0,0.0,0.0,0.0,0.0,0.0,0.0,0.0,0.0,0.0,0.0,0.0,0.0,0.0,0.0,0.0,0.0,0.0,3.6405,3.7337,3.8597,4.0153,4.1244,4.3359,4.6546,4.7816,4.9321,5.096,5.2276,5.2187,5.084,4.9134,4.838,4.8473,0.0,0.0,5.0991,5.345,0.0,0.0,0.0,0.0,0.0,0.0,0.0,0.0,6.3676,6.3986,6.41,6.4912,0.0,0.0,0.0,0.0,0.0,6.7975,6.953,6.9892,6.7688,6.8051,6.9159,7.0065,7.1431,7.2899,7.4243,7.527,7.698,8.0462,8.1383,8.37,9.0157,9.7761,10.641,11.6704,12.06,12.4486,12.9987,0.0,13.4218,13.2295,0.0,0.0,0.0,0.0,13.1679,0.0,12.9487,12.7909,12.6909,12.4486,12.2485,12.0716,12.06,12.01,11.9292,11.8292,11.7792,11.7792,11.6907,11.6495,0.0,0.0,11.6495,11.6495,11.6495,11.7484,11.91,11.91,12.01,12.1612,12.1612,12.2205,12.3105,0.0,0.0,0.0,0.0,0.0,0.0,0.0,0.0,0.0,0.0,0.0,0.0,0.0,0.0,0.0,0.0,0.0,0.0,0.0,0.0,3.6531,3.6808,3.7588,3.8602,3.987,4.1008,4.3506,4.7418,4.8716,5.051,5.2821,5.2725,5.2127,5.1116,4.9546,4.8828,4.8923,5.0355,5.1177,5.1713,0.0,0.0,0.0,0.0,0.0,0.0,0.0,0.0,0.0,0.0,6.3396,6.3194,6.3954,0.0,0.0,0.0,0.0,0.0,6.4828,6.6283,6.7655,6.8183,7.0378,7.2488,7.2658,7.3597,7.4918,7.657,7.7524,7.9176,8.2708,8.5562,9.0477,9.9911,10.6999,11.3417,11.96,12.2216,12.5293,0.0,0.0,13.2679,13.241,0.0,0.0,0.0,0.0,0.0,0.0,0.0,12.6909,12.5986,12.3485,12.1408,11.9715,11.9215,11.8792,11.8407,11.7484,11.71,11.71,11.6688,11.6495,11.6495,0.0,11.6803,11.7215,11.7215,11.8288,12.0003,11.9801,12.061,12.1915,12.1915,12.2596,12.3593,0.0,0.0,0.0,0.0,0.0,0.0,0.0,0.0,0.0,0.0,0.0,0.0,0.0,0.0,0.0,0.0,0.0,0.0,0.0,0.0,3.6632,3.7185,3.7588,3.8405,3.9653,4.1039,4.3699,4.7734,4.9646,5.2071,5.485,5.3204,5.2157,5.1618,5.0152,4.9516,4.9614,5.1047,5.1977,5.2664,0.0,0.0,0.0,0.0,0.0,0.0,0.0,0.0,0.0,0.0,0.0,0.0,0.0,0.0,0.0,6.1529,6.1903,6.2557,6.2593,6.3935,6.6111,6.9548,7.2486,7.4875,7.6062,7.6827,7.7818,7.9874,8.0771,8.2149,8.5292,9.1163,9.8651,10.8315,11.4598,11.9408,12.2601,12.4409,12.6717,13.0602,13.1102,13.1602,13.2885,0.0,0.0,0.0,0.0,0.0,0.0,0.0,12.5794,12.5101,12.2601,12.06,11.91,11.8215,11.7715,11.7484,11.6792,11.6495,11.6495,11.6495,11.6495,11.6495,11.6495,11.6907,11.7484,11.7715,11.8786,12.0391,12.028,12.0995,12.2004,12.239,12.3096,12.3886,0.0,0.0,0.0,0.0,0.0,0.0,0.0,0.0,0.0,0.0,0.0,0.0,0.0,0.0,0.0,0.0,0.0,0.0,0.0,0.0,3.6632,3.7185,3.7261,3.7812,3.8944,4.1063,4.3443,4.6058,4.9886,5.3536,5.6825,5.4306,5.3109,5.2989,5.0996,5.0159,5.0259,5.1758,5.2433,5.2761,5.5532,0.0,0.0,0.0,0.0,0.0,0.0,0.0,0.0,0.0,0.0,0.0,0.0,0.0,6.2295,6.1521,6.183,6.3013,6.5772,6.6681,6.7666,7.101,7.1634,7.3036,7.9169,8.0608,8.1525,8.4646,8.5323,8.6295,8.9393,9.9047,10.79,11.1889,11.8701,12.4486,12.7089,0.0,12.9794,13.25,13.2808,13.2885,0.0,0.0,0.0,0.0,0.0,0.0,0.0,0.0,0.0,12.4216,12.1716,11.9985,11.91,11.8215,11.7407,11.6611,11.6484,11.6495,11.6495,11.6495,11.6495,11.6495,11.6495,11.6484,11.6688,11.7484,11.8392,11.9311,12.0008,12.0789,12.1816,12.3201,12.3701,12.3919,0.0,0.0,0.0,0.0,0.0,0.0,0.0,0.0,0.0,0.0,0.0,0.0,0.0,0.0,0.0,0.0,0.0,0.0,0.0,3.6708,3.7135,3.7663,3.8065,3.8617,3.9396,4.1557,4.484,4.9191,5.2389,5.4515,5.5486,5.3406,5.2505,5.2516,5.1355,5.0817,5.0919,5.247,5.3405,5.4025,5.65,5.8186,0.0,0.0,0.0,0.0,0.0,0.0,0.0,0.0,6.3058,6.2703,6.2204,6.2203,6.2265,6.1535,6.2233,6.3361,6.4023,6.7252,7.0907,7.3166,7.5878,7.8788,8.1811,8.4058,8.6701,9.0959,9.2244,9.3866,9.8094,10.5419,11.2302,11.6716,12.2507,12.7409,12.991,13.0487,13.1102,13.2102,13.2179,13.2179,0.0,0.0,0.0,0.0,0.0,0.0,0.0,0.0,0.0,12.2485,12.01,11.86,11.8292,11.7407,11.6792,11.6495,11.6495,11.6495,11.6495,11.6495,11.6495,11.6495,11.6495,11.71,11.81,11.8484,11.9515,12.1019,12.129,12.1511,12.1799,12.3301,12.4108,12.4703,0.0,0.0,0.0,0.0,0.0,0.0,0.0,0.0,0.0,0.0,0.0,0.0,0.0,0.0,0.0,0.0,0.0,0.0,3.6658,3.716,3.7688,3.8266,3.8693,3.9472,4.0701,4.2886,4.5984,4.9915,5.3197,5.4559,5.4066,5.2277,5.1712,5.2133,5.1066,5.103,5.1933,5.3528,5.4472,5.5129,5.7601,5.9066,0.0,0.0,0.0,0.0,0.0,0.0,0.0,0.0,6.3456,6.2945,6.2666,6.2713,6.2703,6.1966,6.2712,6.3642,6.3146,6.6683,7.1074,7.3466,7.7989,8.2774,8.6407,8.894,9.195,9.7089,9.878,10.0604,10.4515,10.9989,11.5291,11.96,12.4986,12.941,13.141,13.1679,13.1679,13.1679,13.1487,13.1295,0.0,0.0,0.0,0.0,0.0,0.0,0.0,0.0,0.0,0.0,11.8908,11.7792,11.7792,11.6907,11.6495,11.6495,11.6495,11.6495,11.6495,11.6495,11.6495,11.6495,11.6792,11.76,11.8715,11.9292,12.05,12.1918,12.1609,12.1686,12.2223,12.3417,12.432,12.4987,0.0,0.0,0.0,0.0,0.0,0.0,0.0,0.0,0.0,0.0,0.0,0.0,0.0,0.0,0.0,0.0,0.0,0.0,3.721,3.7688,3.8266,3.8869,3.8894,4.0175,4.2914,4.5146,4.6577,4.7154,5.1663,5.3549,5.2905,5.1059,5.089,5.2085,5.0092,5.0701,5.3332,5.4977,5.5666,5.5899,5.8883,5.9674,0.0,0.0,0.0,0.0,0.0,0.0,0.0,0.0,6.2808,6.1675,6.2466,6.3213,6.3711,6.2946,6.3248,6.387,6.3902,6.5191,6.7468,7.1552,7.6864,8.3654,9.3327,9.5511,9.7163,10.2799,10.4609,10.571,10.7519,11.2604,11.7419,11.9908,12.5986,13.0794,13.1602,13.1679,13.1679,13.1679,13.0987,13.0487,0.0,0.0,0.0,0.0,0.0,0.0,0.0,0.0,0.0,0.0,11.8215,11.7792,11.7792,11.6907,11.6495,11.6495,11.6495,11.6495,11.6495,11.6495,11.6495,11.6484,11.7407,11.7792,11.7907,11.96,12.0793,12.1485,12.06,12.1408,12.302,12.3604,12.4114,12.4619,0.0,0.0,0.0,0.0,0.0,0.0,0.0,0.0,0.0,0.0,0.0,0.0,0.0,0.0,0.0,0.0,0.0,0.0,3.6658,3.7889,3.8542,3.8266,3.9019,3.9823,4.0651,4.3212,4.64,5.0173,5.1176,5.086,4.9312,4.8782,4.8846,4.9474,4.9655,5.1251,5.3837,5.516,5.644,5.7843,6.0066,6.0825,6.0838,0.0,0.0,0.0,0.0,0.0,0.0,0.0,0.0,0.0,6.3819,6.5205,6.6735,6.4858,6.6116,6.7844,6.6776,6.9802,7.3931,7.6891,8.3194,9.0298,9.6612,9.8043,10.0299,10.8395,11.0676,11.1488,11.2012,11.6505,12.0292,12.11,12.5909,13.0102,13.1487,13.1679,13.1487,13.091,13.0602,12.9987,0.0,0.0,0.0,0.0,0.0,0.0,0.0,0.0,0.0,0.0,11.7292,11.6907,11.6907,11.6599,11.6495,11.6495,11.6495,11.6495,11.6495,11.6495,11.6495,11.6484,11.7407,11.81,11.8792,11.9908,12.0793,12.1485,12.06,12.0985,12.2089,12.3117,12.3478,12.3686,0.0,0.0,0.0,0.0,0.0,0.0,0.0,0.0,0.0,0.0,3.8979,3.7926,0.0,0.0,0.0,0.0,0.0,0.0,0.0,3.8542,3.907,3.8693,3.9829,4.0875,4.1746,4.3587,4.5979,4.8891,4.9528,4.8778,4.6753,4.7688,4.863,4.9544,5.0531,5.2842,5.6023,5.695,5.7935,5.9081,6.1292,6.2023,6.2018,0.0,0.0,0.0,0.0,0.0,0.0,0.0,0.0,0.0,6.4651,6.5951,6.7481,6.6397,6.7035,6.8225,6.8887,7.2049,7.6203,8.0608,8.7085,9.4079,10.0503,10.3219,10.6305,11.3114,11.4403,11.4613,11.5683,11.9004,12.1911,12.2911,12.6794,13.0102,13.1102,13.1179,13.091,13.0102,12.941,12.8602,0.0,0.0,0.0,0.0,0.0,0.0,0.0,0.0,0.0,0.0,11.6803,11.6495,11.6495,11.6495,11.6495,11.6495,11.6495,11.6495,11.6495,11.6495,11.6495,11.6484,11.7407,11.8484,11.96,11.9792,12.0292,12.0985,12.0485,12.0985,12.222,12.2991,12.3202,12.3213,0.0,0.0,0.0,0.0,0.0,0.0,0.0,0.0,0.0,0.0,3.7994,3.754,0.0,0.0,0.0,0.0,0.0,0.0,0.0,0.0,3.9724,3.9777,4.1068,4.2643,4.4545,4.5123,4.5149,4.4677,4.7082,4.7066,4.4842,4.7442,4.9499,5.1088,5.2263,5.5118,5.9023,5.9558,5.9772,5.9977,6.2575,6.3247,6.296,6.5315,0.0,0.0,0.0,0.0,0.0,0.0,0.0,0.0,6.505,6.5946,6.6843,6.7517,6.688,6.6793,7.0683,7.3083,7.624,8.3654,9.0005,9.6612,10.4981,10.979,11.3411,11.6495,11.6117,11.59,11.8493,12.059,12.2712,12.5108,12.8295,13.0487,13.0487,13.041,12.9987,12.9102,12.7602,12.6601,0.0,0.0,0.0,0.0,0.0,0.0,0.0,11.7715,0.0,11.6484,11.6495,11.6495,11.6495,11.6495,11.6495,0.0,11.6495,11.6495,11.6495,11.6611,11.6688,11.6803,11.7484,11.8792,12.0216,11.9408,11.96,12.0408,12.0292,12.1293,12.2786,12.3088,12.2997,12.2798,0.0,0.0,0.0,0.0,0.0,0.0,0.0,0.0,0.0,0.0,0.0,0.0,0.0,0.0,0.0,0.0,0.0,0.0,0.0,0.0,3.9956,4.0541,4.218,4.2836,4.233,4.2834,4.3045,4.2939,4.4785,4.4545,4.2436,4.6929,4.8986,4.9223,5.3233,5.6718,5.9604,5.9632,6.0469,6.1961,6.3844,6.4143,6.3725,6.631,0.0,0.0,0.0,0.0,0.0,0.0,0.0,0.0,6.5084,6.6635,6.8311,6.7847,6.9229,7.1541,7.4331,7.7671,8.226,9.0225,9.8393,10.5605,11.0083,11.2286,11.378,11.5214,11.6793,11.8289,11.951,12.2917,12.5583,12.6204,12.8599,13.0487,13.0487,12.991,12.8909,12.7409,12.6921,12.5909,0.0,0.0,0.0,0.0,0.0,0.0,11.7792,11.7215,0.0,11.6495,11.6495,11.6495,11.6495,11.6495,11.6495,0.0,11.6495,11.6495,11.6484,11.7215,11.7907,11.8484,11.8023,11.8792,12.0216,11.9408,11.9985,12.1304,12.06,12.0908,12.1893,12.1915,12.1919,12.1893,0.0,0.0,0.0,0.0,0.0,0.0,0.0,0.0,0.0,0.0,0.0,0.0,0.0,0.0,0.0,0.0,0.0,0.0,0.0,0.0,4.1039,4.2064,4.3006,4.2906,4.1616,4.2121,4.2437,4.2512,4.3623,4.4066,4.3945,4.7964,5.0481,5.1838,5.5728,5.8853,6.1183,6.1469,6.2371,6.3722,6.5318,6.5792,6.5738,6.7485,0.0,6.5712,6.6217,0.0,0.0,0.0,0.0,0.0,0.0,0.0,6.7853,6.8619,6.9743,7.1798,7.657,8.0828,8.6518,9.7383,10.4687,10.9995,11.2396,11.3607,11.4411,11.5284,11.6819,11.8405,11.9683,12.2504,12.4998,12.6314,12.8002,12.9186,12.9206,12.8486,12.7486,12.6178,12.5409,12.4409,0.0,0.0,0.0,0.0,0.0,11.76,11.7215,11.6715,11.6495,11.6495,11.6495,11.6495,11.6495,11.6495,11.6495,11.6495,11.6495,11.6676,11.71,11.7215,11.7715,11.8407,11.76,11.7907,11.91,11.8715,11.8985,11.9792,12.0216,12.06,12.0985,12.1408,12.1612,12.1612,0.0,0.0,0.0,0.0,0.0,0.0,0.0,0.0,0.0,0.0,0.0,0.0,0.0,0.0,0.0,0.0,0.0,0.0,0.0,0.0,0.0,4.3432,4.3504,4.2906,4.1616,4.2227,4.262,4.272,4.3357,4.5114,4.7857,5.0179,5.2902,5.603,5.8895,6.1309,6.3268,6.3686,6.4314,6.5232,6.6751,6.7463,6.7697,0.0,0.0,6.614,6.6002,6.4922,6.367,6.4318,0.0,0.0,0.0,0.0,6.7225,6.9252,6.9778,7.1174,7.7797,8.3728,9.1033,10.3293,10.8799,11.1588,11.3116,11.4011,11.4782,11.5406,11.6323,11.749,11.911,12.0919,12.2923,12.5212,12.6687,12.7397,12.6998,12.6696,12.5988,12.4916,12.349,12.2601,0.0,0.0,0.0,0.0,0.0,11.7292,11.6484,11.6495,11.6495,11.6495,11.6495,11.6495,11.6495,11.6495,11.6495,11.6495,11.6495,11.6907,11.76,11.6792,11.6984,11.7792,11.6907,11.6984,11.7792,11.7984,11.8023,11.8215,11.9908,12.0292,12.0216,12.1177,12.1485,12.142,0.0,0.0,0.0,0.0,0.0,0.0,0.0,0.0,0.0,0.0,3.8848,0.0,0.0,0.0,0.0,0.0,0.0,0.0,0.0,0.0,0.0,4.3432,4.3504,4.2906,4.1616,4.2597,4.3149,4.3278,4.4283,4.7918,5.3915,5.3827,5.5581,5.8877,6.19,6.4054,6.545,6.475,6.5014,6.6016,6.7692,6.8093,6.7697,0.0,0.0,0.0,6.4323,6.3429,6.2585,6.2706,6.3618,0.0,0.0,0.0,6.8481,6.8806,7.0856,7.3891,7.7708,8.7839,9.8778,10.4908,10.8799,11.1405,11.2396,11.3203,11.3813,11.3923,11.5075,11.6406,11.7376,11.9606,12.1487,12.1808,12.4602,12.5894,12.3582,12.4599,12.4699,12.2282,12.1911,12.1485,0.0,0.0,0.0,0.0,11.7215,11.6599,11.6495,11.6495,11.6495,11.6495,11.6495,11.6495,11.6495,11.6495,11.6495,11.6495,11.6495,11.6611,11.6688,11.6611,11.6984,11.7792,11.6907,11.6984,11.7907,11.86,11.8908,11.91,12.0793,12.0485,11.9485,12.0985,12.11,12.06,0.0,0.0,0.0,0.0,0.0,0.0,0.0,0.0,0.0,0.0,0.0,4.0656,0.0,0.0,0.0,0.0,0.0,0.0,0.0,0.0,0.0,4.2398,4.2423,4.1838,4.0541,4.2369,4.3717,4.4577,4.6822,5.1329,5.7896,5.8042,5.9492,6.1978,6.285,6.4014,6.5246,6.4808,6.5391,6.667,6.7466,6.7905,0.0,0.0,0.0,0.0,0.0,0.0,0.0,6.3024,6.3761,6.4776,6.5262,0.0,0.0,0.0,7.1108,7.4845,8.3067,9.1069,9.8778,10.5972,10.9092,11.0891,11.2102,11.2983,11.3593,11.3593,11.4217,11.5002,11.6287,11.7906,11.9407,12.0924,12.2107,12.2905,12.331,12.2412,12.152,12.0922,11.9996,11.9302,0.0,0.0,0.0,0.0,11.6984,11.6495,11.6495,11.6495,11.6495,11.6495,11.6495,11.6495,11.6495,11.6495,11.6495,11.6495,11.6495,11.6495,11.6506,11.6699,11.691,11.71,11.6688,11.6676,11.71,11.7484,11.76,11.7792,11.8985,11.9292,11.9215,12.0408,12.0908,12.11,0.0,0.0,0.0,0.0,0.0,0.0,0.0,0.0,0.0,0.0,0.0,0.0,0.0,0.0,0.0,0.0,0.0,0.0,0.0,0.0,0.0,4.1591,4.1294,4.0668,3.9723,4.2112,4.4329,4.6199,4.9552,5.507,6.2493,6.307,6.5235,6.8595,6.6269,6.5831,6.6763,6.6423,6.7284,6.8724,6.7773,6.7819,0.0,0.0,0.0,0.0,0.0,0.0,0.0,0.0,0.0,6.5244,6.5696,6.6893,0.0,0.0,0.0,7.5322,8.5416,9.0849,9.553,10.3403,10.711,10.9202,11.0781,11.2102,11.2983,11.2983,11.3277,11.3923,11.4892,11.6103,11.7504,11.9485,11.9889,12.0314,12.1386,12.0212,11.9218,11.93,11.8409,11.7713,0.0,0.0,0.0,0.0,11.6907,11.6495,11.6495,11.6495,11.6495,11.6495,11.6495,11.6495,11.6495,11.6495,11.6495,11.6495,11.6495,11.6495,11.6506,11.6808,11.6692,11.6495,11.661,11.6588,11.6495,11.6715,11.6676,11.6611,11.7715,11.8292,11.86,11.9792,12.06,12.0985,0.0,0.0,0.0,0.0,0.0,0.0,0.0,0.0,0.0,0.0,0.0,0.0,0.0,0.0,4.1939,4.2606,0.0,0.0,0.0,0.0,0.0,4.1541,4.044,0.0,3.9697,4.2112,4.4941,4.8041,5.2024,5.9128,6.9008,6.9262,7.3683,8.1137,7.4772,7.2013,7.2126,7.1304,7.192,7.3143,6.959,0.0,0.0,0.0,0.0,0.0,0.0,0.0,0.0,0.0,0.0,0.0,0.0,6.7829,7.0386,0.0,0.0,0.0,8.0277,8.4976,8.9821,9.4906,10.0796,10.5789,10.7498,10.9701,11.1295,11.1295,11.2506,11.3409,11.2689,11.4488,11.6089,11.6195,11.8281,11.8812,11.5687,11.8084,11.9208,11.6796,11.7312,11.7812,11.7812,0.0,0.0,0.0,11.6484,11.6495,11.6495,11.6495,11.6495,11.6495,11.6495,11.6495,11.6495,11.6495,11.6495,11.6495,11.6495,11.6495,11.6495,11.6479,11.6479,11.6479,11.6806,11.6779,11.6611,11.7407,11.7215,11.6688,11.8407,11.81,11.6907,11.9408,11.9792,11.9485,0.0,0.0,0.0,0.0,0.0,0.0,0.0,0.0,0.0,0.0,0.0,0.0,0.0,4.4461,4.3703,4.432,4.2395,0.0,0.0,0.0,0.0,4.0364,3.9929,4.0287,4.154,4.402,4.7112,5.0792,5.4324,5.9933,6.7343,6.93,7.2761,7.7283,7.448,7.377,7.4372,7.0196,6.9024,6.9816,6.7516,0.0,0.0,0.0,0.0,0.0,0.0,0.0,0.0,0.0,0.0,0.0,0.0,0.0,0.0,7.2104,7.4014,7.657,8.0645,8.3398,8.6664,9.3125,9.764,10.12,10.3806,10.7619,11.0508,11.0508,11.1805,11.3008,11.3194,11.3896,11.4598,11.5112,11.6011,11.6408,11.5804,11.629,11.6521,11.5592,11.5911,11.6097,11.6097,0.0,0.0,0.0,0.0,11.6495,11.6495,11.6495,11.6495,11.6495,11.6495,11.6495,11.6495,11.6495,11.6495,11.6495,11.6495,11.6495,11.6506,11.671,11.6719,11.649,11.6912,11.6808,11.6484,11.6792,11.6803,11.6611,11.7188,11.7407,11.7407,11.8407,11.9215,11.9985,0.0,0.0,0.0,0.0,0.0,0.0,0.0,0.0,0.0,0.0,0.0,0.0,0.0,0.0,4.4843,4.4384,4.2462,4.0824,3.9776,3.9697,3.9697,3.9697,3.9697,4.0594,4.2536,4.576,4.9291,5.3123,5.7337,6.2546,6.8618,7.1051,7.4116,7.7505,7.5319,7.5359,7.6703,7.2368,7.0534,7.0297,0.0,0.0,6.863,0.0,0.0,0.0,0.0,0.0,0.0,0.0,0.0,0.0,0.0,0.0,0.0,0.0,7.4615,7.668,7.9396,8.0938,8.3471,9.0482,9.3235,9.5584,10.0723,10.4405,10.72,10.8606,11.0415,11.1889,11.2702,11.2811,11.3093,11.4194,11.4415,11.4619,11.5312,11.5091,11.4997,11.5086,11.5407,11.5612,11.5612,0.0,0.0,0.0,0.0,0.0,11.6495,11.6495,11.6495,11.6495,11.6495,11.6495,11.6495,11.6495,11.6495,11.6495,11.6495,11.6495,11.6506,11.6682,11.6691,11.6517,11.6692,11.668,11.6495,11.6495,11.6495,11.6495,11.6495,11.6907,11.7407,11.8023,11.8908,11.9985,0.0,0.0,0.0,0.0,0.0,0.0,0.0,0.0,0.0,4.5304,0.0,0.0,0.0,0.0,0.0,4.2736,4.1489,4.052,3.975,3.9697,3.9697,3.9697,0.0,0.0,4.2665,4.7125,5.1295,5.5126,6.1052,6.7202,7.3398,7.4897,7.8314,8.3016,7.801,7.7003,7.9026,7.8119,7.6869,7.5188,0.0,6.9564,7.0468,0.0,0.0,0.0,7.1746,7.0966,0.0,0.0,0.0,0.0,0.0,0.0,0.0,0.0,0.0,0.0,0.0,0.0,0.0,8.6371,8.7435,8.9179,9.7933,10.0001,10.1326,10.5397,10.8197,11.011,11.1021,11.1207,11.1698,11.3299,11.3615,11.3594,11.3692,11.4489,11.5183,11.5202,11.5916,11.6495,11.6495,0.0,0.0,0.0,11.6495,11.6495,11.6495,11.6495,11.6495,11.6495,11.6495,11.6495,11.6495,11.6495,11.6495,11.6495,11.6495,11.6495,11.6495,11.6495,11.6495,11.6495,11.6495,11.6495,11.6495,11.6495,11.6495,11.6495,11.6495,11.6495,11.6688,11.8407,11.91,11.9292,0.0,0.0,0.0,0.0,0.0,0.0,4.325,4.4436,4.5304,0.0,0.0,0.0,0.0,0.0,4.5471,4.3388,4.2489,4.1373,3.9801,3.9697,3.9697,3.9697,4.0074,4.1854,4.5285,4.8353,5.2779,5.8641,6.1632,6.5613,7.0364,7.236,7.4661,7.7063,7.7266,7.629,7.4334,7.1776,7.1324,7.2133,6.9334,7.0239,0.0,0.0,0.0,0.0,0.0,7.4272,0.0,0.0,7.4086,7.3163,0.0,0.0,0.0,0.0,0.0,0.0,7.6276,0.0,0.0,0.0,0.0,0.0,8.9711,9.2997,9.6642,10.1884,10.439,10.6884,11.0595,11.1194,11.1272,11.1808,11.2908,11.3512,11.2897,11.4708,11.5776,11.5311,11.5494,11.5599,11.5599,11.5599,0.0,0.0,11.6187,11.6495,11.6495,11.6495,11.6495,11.6495,11.6495,11.6495,11.6495,11.6495,11.6495,11.6495,11.6495,11.6495,11.6495,11.6495,11.6495,11.6495,11.6495,11.6495,11.6495,11.6495,11.6495,11.6495,11.6495,11.6495,11.6599,11.7715,11.86,11.9215,0.0,0.0,0.0,0.0,0.0,4.4278,4.4747,4.5667,4.6499,0.0,0.0,0.0,4.7712,0.0,4.7222,4.4494,4.387,4.2726,4.0507,4.0174,4.0049,4.0049,4.035,4.2346,4.6334,4.9127,5.3652,5.9987,6.22,6.5092,6.8639,7.0263,7.1481,7.2338,7.312,7.2313,7.0178,6.7156,0.0,0.0,7.0121,0.0,0.0,7.5488,7.7229,0.0,0.0,0.0,7.9566,7.8923,7.79,0.0,0.0,0.0,0.0,0.0,0.0,0.0,0.0,0.0,0.0,8.0534,0.0,0.0,8.5987,8.8345,9.1212,9.6877,9.9649,10.2303,10.6412,10.7718,10.8508,10.958,11.1409,11.281,11.311,11.4392,11.5307,11.5281,11.4998,11.4791,11.4791,11.4791,11.4791,11.4791,11.5215,11.5599,11.5995,11.6303,11.6495,11.6495,11.6495,11.6495,11.6495,11.6495,11.6495,11.6495,11.6495,11.6495,11.6495,11.6495,11.6495,11.6495,11.6495,11.6495,11.6495,11.6495,11.6495,11.6495,11.6495,11.6676,11.71,11.7984,11.8908,11.9715,0.0,0.0,4.1402,4.3022,4.4472,4.5745,4.6694,4.7468,4.8273,0.0,4.9309,4.9221,4.9067,0.0,0.0,0.0,4.5492,4.4256,4.1566,4.0951,4.0676,4.0575,4.0783,4.2658,4.6417,4.9935,5.4504,6.0115,6.2879,6.5467,6.7929,6.8808,6.918,6.9035,6.7845,6.7196,6.6822,6.4429,0.0,6.7766,7.1844,7.421,0.0,0.0,8.2676,0.0,8.3706,8.4066,8.4099,8.24,8.0609,0.0,0.0,0.0,0.0,0.0,7.6486,0.0,0.0,0.0,0.0,0.0,0.0,0.0,8.4682,8.5175,8.5856,9.1193,9.4155,9.6783,10.0203,10.2301,10.4209,10.6512,10.921,11.1691,11.3795,11.4091,11.4413,11.5197,11.4407,11.3907,11.3907,11.3907,11.3907,11.3907,11.3907,11.4407,11.5303,11.5995,11.6418,11.6495,11.6495,11.6495,11.6495,11.6495,11.6495,11.6495,11.6495,11.6495,11.6495,11.6495,11.6495,11.6495,11.6495,11.6495,11.6495,11.6495,11.6495,11.6495,11.6495,11.6984,11.7792,11.86,11.9485,12.0292,0.0,0.0,4.1776,4.2546,4.4603,4.6175,4.6406,4.765,4.8759,4.9265,5.1084,5.2719,5.3737,5.2755,0.0,0.0,4.6623,4.4824,4.22,4.1934,4.163,4.1177,4.2653,4.4648,4.7131,5.2312,5.6902,6.0798,6.4475,6.6803,6.7929,6.9316,6.9654,6.9091,6.8805,6.7781,6.6186,6.6204,0.0,6.8402,7.0977,0.0,7.8561,8.1955,8.5513,8.861,8.8093,8.8745,8.9275,0.0,8.4062,8.2338,0.0,0.0,0.0,0.0,0.0,0.0,0.0,0.0,0.0,0.0,0.0,0.0,8.0498,8.1502,8.3549,8.6606,8.8637,9.1246,9.5842,9.9035,10.1113,10.1495,10.548,10.9999,11.4302,11.5013,11.5091,11.528,11.3907,11.2983,11.2983,11.2983,11.2983,11.2983,11.3599,11.4407,11.5303,11.5407,11.5792,11.6495,11.6495,11.6495,11.6495,11.6495,11.6495,11.6495,11.6495,11.6495,11.6495,11.6495,11.6495,11.6495,11.6495,11.6495,11.6495,11.6495,11.6495,11.6495,11.6495,11.6611,11.6907,11.7715,11.86,11.9485,0.0,4.0277,4.2473,4.3338,4.5621,4.7714,4.8857,4.975,5.0894,5.2573,5.4922,5.6108,5.5285,5.4581,0.0,0.0,0.0,0.0,0.0,4.3307,4.2462,4.2158,4.3801,4.5685,4.7797,5.2837,5.7284,6.0999,6.3925,6.6213,6.7929,6.9113,6.8842,6.7434,6.8283,6.7243,6.4955,6.5763,6.6807,6.8306,7.3389,0.0,8.1818,8.6259,8.9579,9.188,9.188,9.2353,9.2218,8.6974,8.6104,0.0,0.0,7.9461,8.0577,0.0,7.8846,7.8369,0.0,0.0,0.0,7.905,0.0,0.0,0.0,7.9036,7.9665,8.1997,8.323,8.5081,8.9126,9.1947,9.4573,9.7338,10.07,10.469,11.0077,11.2717,11.3984,11.3984,11.2906,11.2088,11.2088,11.2088,11.2088,11.2088,11.2906,11.3714,11.4599,11.511,11.5687,11.6495,11.6495,11.6495,11.6495,11.6495,11.6495,11.6495,11.6495,11.6495,11.6495,11.6495,11.6495,11.6495,11.6495,11.6495,11.6495,11.6495,11.6495,11.6495,11.6495,11.6803,11.7292,11.81,11.8985,11.9792,0.0,0.0,4.3211,4.4318,4.6796,4.9357,5.1369,5.2079,5.3459,5.6528,5.8621,5.8983,5.6929,0.0,0.0,0.0,0.0,0.0,0.0,0.0,0.0,4.2992,4.4779,4.6695,4.8647,5.359,5.8014,6.1787,6.4032,6.6144,6.8166,6.9079,6.847,6.6622,6.7513,6.685,6.5061,6.5381,6.6915,6.9784,0.0,8.0912,8.3077,8.9365,9.2353,9.3334,9.4823,9.5161,9.4011,8.7928,0.0,8.9198,8.1568,8.1794,0.0,0.0,0.0,0.0,0.0,0.0,0.0,0.0,0.0,7.9792,0.0,0.0,0.0,7.8714,7.9123,8.0135,8.3048,8.5224,8.8175,9.3271,9.5706,9.8719,0.0,10.7894,0.0,11.1395,11.0588,11.0203,11.0703,11.0588,11.0703,11.1203,11.1598,11.2406,11.3907,11.4714,11.5495,11.6495,11.6495,11.6495,11.6495,11.6495,11.6495,11.6495,11.6495,11.6495,11.6495,11.6495,11.6495,11.6495,11.6495,11.6495,11.6495,11.6495,11.6495,11.6495,11.6495,11.6907,11.7715,11.8484,11.9408,12.0216,3.8793,4.1285,0.0,4.4373,4.7548,5.0265,5.1153,5.3039,5.5564,5.8894,5.9735,6.0611,0.0,0.0,0.0,0.0,0.0,0.0,5.0916,0.0,0.0,4.2918,4.6028,4.849,5.0053,5.687,6.1773,6.4548,6.787,6.9308,6.8977,7.0398,7.0567,6.9586,6.78,6.7904,6.9355,6.7416,7.0164,0.0,8.036,8.0333,0.0,8.6499,9.0324,9.2083,9.6176,9.6785,9.5161,0.0,9.0908,9.0469,0.0,8.4672,0.0,0.0,0.0,0.0,0.0,0.0,0.0,0.0,8.56,0.0,0.0,0.0,8.073,7.9015,0.0,7.8973,0.0,0.0,0.0,0.0,0.0,0.0,9.7344,10.0012,10.3095,10.67,10.5713,10.5713,10.7905,10.7395,10.7905,11.0214,10.9098,10.9906,11.3791,11.4099,11.4907,11.6495,11.6495,11.6495,11.6495,11.6495,11.6495,11.6495,11.6495,11.6495,11.6495,11.6495,11.6495,11.6495,11.6495,11.6495,11.6495,11.6495,11.6495,11.6495,11.6495,11.6611,11.6803,11.76,11.8484,11.9408,3.9842,4.1874,0.0,4.5883,4.8419,5.0817,5.2641,5.6395,5.949,6.0916,6.2523,0.0,0.0,0.0,0.0,0.0,0.0,5.3979,0.0,0.0,0.0,0.0,0.0,0.0,5.3579,5.8892,6.2774,6.4992,6.8047,6.962,6.9755,7.0364,7.0026,6.8876,6.9248,6.9688,7.0251,7.1007,7.3477,0.0,0.0,0.0,0.0,8.9685,9.3909,9.5364,9.6819,9.6954,9.5751,0.0,9.1182,0.0,0.0,0.0,0.0,0.0,0.0,0.0,0.0,0.0,0.0,0.0,0.0,0.0,0.0,0.0,7.9186,0.0,0.0,0.0,0.0,0.0,0.0,0.0,8.7183,0.0,0.0,0.0,9.6722,0.0,0.0,0.0,10.529,10.5213,10.5405,10.6482,10.679,10.8098,11.0906,11.2406,11.3984,11.5715,11.6303,11.6495,11.6495,11.6495,11.6495,11.6495,11.6495,11.6495,11.6495,11.6495,11.6495,11.6495,11.6495,11.6495,11.6495,11.6495,11.6495,11.6495,11.6495,11.6495,11.6688,11.7984,11.8792,11.9292,4.2067,0.0,0.0,0.0,4.8951,5.1236,5.4281,5.8022,0.0,0.0,0.0,0.0,6.646,6.5353,0.0,0.0,0.0,5.9044,0.0,0.0,5.2101,0.0,0.0,0.0,0.0,0.0,6.3627,6.6146,6.8314,6.9789,7.05,7.05,6.9891,6.891,7.077,7.165,7.1887,7.4661,7.7198,7.96,8.2543,8.4809,8.7008,9.2692,9.6176,9.7901,9.7157,9.6854,9.6101,9.1555,9.1944,0.0,9.0316,0.0,0.0,0.0,0.0,0.0,8.7321,0.0,0.0,0.0,0.0,0.0,0.0,0.0,0.0,0.0,0.0,0.0,0.0,0.0,0.0,0.0,0.0,8.588,0.0,0.0,0.0,0.0,0.0,0.0,0.0,10.2597,10.2789,10.3482,10.402,10.5597,10.8406,11.0521,11.2714,11.4907,11.5995,11.6495,11.6495,11.6495,11.6495,11.6495,11.6495,11.6495,11.6495,11.6495,11.6495,11.6495,11.6495,11.6495,11.6495,11.6495,11.6495,11.6495,11.6495,11.6495,11.6688,11.8484,11.91,11.9292,4.5951,4.4744,0.0,0.0,4.8951,5.1535,0.0,0.0,0.0,0.0,0.0,0.0,0.0,0.0,0.0,0.0,0.0,6.1544,6.2521,0.0,5.2627,0.0,0.0,0.0,0.0,0.0,0.0,6.8968,6.9789,7.0534,7.1255,7.1255,7.1222,7.1244,7.2022,7.3544,7.5676,7.7976,8.1494,8.5757,8.8734,9.2522,9.6172,0.0,9.4793,9.7901,9.7157,0.0,0.0,9.3861,9.4281,0.0,0.0,0.0,0.0,0.0,0.0,0.0,0.0,0.0,0.0,0.0,0.0,0.0,0.0,0.0,8.4602,0.0,0.0,0.0,0.0,0.0,0.0,0.0,0.0,0.0,0.0,0.0,0.0,0.0,0.0,0.0,0.0,9.9442,9.9981,10.2481,10.0404,10.1597,10.7405,10.8598,11.0598,11.3907,11.5599,11.6495,11.6495,11.6495,11.6495,11.6495,11.6495,11.6495,11.6495,11.6495,11.6495,11.6495,11.6495,11.6495,11.6495,11.6495,11.6495,11.6495,11.6495,11.6495,11.6688,11.8484,11.91,11.9292,0.0,0.0,0.0,0.0,0.0,0.0,0.0,5.886,0.0,0.0,0.0,0.0,0.0,0.0,7.4659,0.0,0.0,6.9942,6.7652,6.406,0.0,0.0,0.0,5.8889,0.0,0.0,0.0,0.0,6.9884,7.1075,7.1289,7.1289,7.1289,7.1357,7.3105,7.51,7.7468,8.1224,0.0,0.0,0.0,9.4518,9.7529,0.0,0.0,9.7834,9.6616,9.6681,0.0,9.5757,9.5901,9.6611,9.619,9.5609,9.4791,9.3161,9.2729,0.0,0.0,0.0,9.371,8.9525,0.0,0.0,0.0,0.0,0.0,0.0,0.0,0.0,0.0,0.0,0.0,0.0,0.0,0.0,0.0,0.0,0.0,0.0,0.0,0.0,0.0,0.0,0.0,9.7413,9.6759,9.8144,10.2404,10.6097,10.9098,11.1406,11.4214,11.5995,11.6495,11.6495,11.6176,11.5676,11.6176,11.6187,11.5676,11.6303,11.6495,11.6495,11.6495,11.6495,11.6495,11.6495,11.6495,11.6495,11.6495,11.6495,11.6688,11.8484,11.91,11.9292,4.9567,0.0,0.0,0.0,0.0,0.0,0.0,0.0,0.0,0.0,7.1487,0.0,7.8759,0.0,7.9866,0.0,7.837,7.5886,7.0949,6.9482,0.0,6.4485,6.275,0.0,0.0,0.0,0.0,0.0,0.0,7.1289,7.1289,7.1289,7.1289,7.1424,7.4458,7.6927,7.9126,8.4708,8.7922,0.0,0.0,9.6311,0.0,0.0,9.7766,9.7895,0.0,9.7274,9.7657,9.7508,9.7484,9.755,9.7606,9.6598,9.5067,9.3474,9.297,9.2776,9.198,9.3225,0.0,9.1354,9.0846,0.0,8.7135,0.0,0.0,0.0,0.0,0.0,0.0,0.0,0.0,0.0,0.0,0.0,0.0,0.0,0.0,0.0,0.0,0.0,0.0,0.0,9.2556,9.2758,9.3296,9.4874,0.0,10.2904,10.6905,10.9213,11.3214,11.5687,11.6495,11.6495,11.611,11.5291,11.5792,11.5599,11.4907,11.5676,11.611,11.611,11.6418,11.6495,11.6495,11.6495,11.6495,11.6495,11.6495,11.6495,11.6688,11.8484,11.9485,12.01,0.0,0.0,0.0,0.0,5.3992,0.0,0.0,0.0,6.628,0.0,7.421,7.834,8.1691,8.2657,8.3046,8.2986,8.2327,0.0,7.2744,7.3432,0.0,0.0,6.4755,6.501,6.4309,0.0,0.0,0.0,0.0,7.1312,7.1458,7.139,7.1379,7.1548,7.6109,7.8921,8.0691,8.8152,9.2252,9.4007,9.6853,9.8037,9.7969,9.7191,9.7326,9.8018,9.8642,9.8196,9.7569,9.8903,9.8871,9.8123,9.733,9.6204,9.5041,9.4131,9.3075,9.2208,9.2234,9.2347,9.2305,9.1619,0.0,0.0,0.0,0.0,9.512,0.0,0.0,0.0,0.0,0.0,0.0,0.0,0.0,0.0,0.0,0.0,0.0,0.0,0.0,0.0,0.0,0.0,9.1171,8.8872,9.0094,9.171,0.0,9.9211,10.402,10.7482,11.2483,11.561,11.6495,11.6495,11.611,11.5291,11.5303,11.4791,11.3984,11.4907,11.5215,11.5291,11.611,11.6418,11.6418,11.6495,11.6495,11.6495,11.6495,11.6611,11.6803,11.8484,12.0177,12.1612,5.4461,5.4877,5.5157,0.0,5.5768,5.7393,0.0,0.0,0.0,0.0,7.7652,8.1961,8.5761,8.6329,8.624,8.574,8.4175,0.0,0.0,0.0,0.0,7.2029,7.0739,6.9613,6.8483,6.8388,0.0,7.1375,0.0,7.1608,7.3713,7.2843,7.2393,7.2634,7.7674,8.0162,8.0985,8.8239,9.3131,9.6172,9.7461,9.8341,0.0,0.0,9.7018,9.7117,9.6759,9.6738,9.6926,9.7298,9.7537,9.7562,9.6755,9.6632,9.6352,9.404,9.4335,9.5453,9.5527,9.5942,9.6283,9.601,9.5356,9.4292,0.0,0.0,0.0,0.0,0.0,0.0,0.0,0.0,0.0,0.0,0.0,0.0,0.0,0.0,0.0,0.0,0.0,0.0,0.0,0.0,8.7363,8.8603,8.7902,8.8709,9.1672,0.0,10.2299,10.5713,11.0098,11.3791,11.6495,11.5918,11.5495,11.5291,11.4599,11.4214,11.3984,11.4214,11.4291,11.4407,11.5215,11.561,11.5687,11.6303,11.6495,11.6495,11.6495,11.7303,11.8484,11.8908,12.0177,12.1612,5.5957,0.0,0.0,5.6939,0.0,0.0,6.2439,0.0,0.0,7.4629,7.9394,0.0,8.5701,8.7526,8.8274,8.7616,8.5731,0.0,0.0,0.0,0.0,7.6275,7.454,7.3163,7.2179,7.1687,0.0,7.2356,0.0,7.2615,7.3635,7.3043,7.2797,7.3026,7.8127,8.078,8.1878,8.9395,9.4432,9.7428,9.7834,9.824,0.0,9.7357,9.6917,9.6815,9.6041,9.6198,9.6891,9.8142,9.7937,9.7148,9.6982,9.6606,9.597,9.4694,9.5702,9.7266,9.7633,9.8663,9.9547,9.9489,9.9146,9.8296,9.6343,9.7502,9.8877,0.0,0.0,0.0,0.0,0.0,0.0,0.0,0.0,0.0,0.0,0.0,0.0,0.0,0.0,0.0,0.0,0.0,8.4939,8.6371,8.694,8.7594,0.0,0.0,10.0606,10.2799,10.8482,11.2791,11.5407,11.6099,11.5792,11.4714,11.4599,11.4214,11.3407,11.3791,11.3791,11.3483,11.4791,11.5291,11.5418,11.6187,11.6495,11.6495,11.6495,11.7292,11.86,11.8985,12.0177,12.1612,5.7363,0.0,0.0,0.0,0.0,0.0,0.0,6.8563,0.0,7.6514,0.0,8.4145,8.4675,8.7706,8.9452,8.8753,0.0,8.4773,8.232,8.217,8.1063,7.8579,7.7382,7.6455,7.5711,7.5029,0.0,0.0,0.0,7.3632,7.2688,7.2883,7.3037,7.3377,7.8317,8.1621,8.3917,9.1121,9.5534,9.7703,9.7974,9.8086,9.7901,9.7056,9.6937,9.7084,9.6338,9.6256,9.6837,9.9331,9.8483,9.6539,9.7092,9.6216,9.5123,9.5871,9.7098,9.8403,9.9423,10.0904,10.2093,10.2098,10.2389,10.2301,10.0796,10.0503,10.1017,10.2481,10.1696,0.0,0.0,0.0,0.0,0.0,0.0,0.0,0.0,0.0,0.0,0.0,0.0,0.0,0.0,0.0,0.0,8.4101,8.6756,0.0,0.0,0.0,9.8788,10.0221,10.7213,11.2088,11.4484,0.0,11.6484,11.4714,11.4984,11.4291,11.2906,11.3483,11.3407,11.2588,11.4291,11.4984,11.5187,11.5995,11.6418,11.6495,11.6495,11.6984,11.7907,11.8792,12.01,12.1408,0.0,0.0,0.0,0.0,0.0,6.6595,7.0584,7.6423,8.107,8.2918,8.7197,9.01,9.0178,8.989,8.9452,8.8753,8.7387,0.0,0.0,0.0,0.0,8.1998,8.1729,8.104,7.9776,7.7076,7.6219,0.0,0.0,0.0,7.4234,7.4106,7.4396,7.525,8.0103,8.4788,8.9232,9.2609,0.0,9.6018,9.7964,9.847,9.7867,9.6514,9.7081,9.8555,9.7823,9.6481,9.5132,9.5629,9.5444,9.4966,9.4491,9.5332,9.6651,9.7322,9.858,10.0182,10.2674,10.3101,10.2999,10.3391,10.3112,10.2485,10.1494,10.1788,10.2489,10.35,10.2894,10.168,9.9859,0.0,0.0,0.0,0.0,0.0,0.0,0.0,0.0,0.0,0.0,0.0,0.0,0.0,0.0,0.0,0.0,0.0,0.0,0.0,9.6596,0.0,10.579,0.0,0.0,0.0,11.6599,11.8215,11.5484,11.4099,11.3791,11.3214,11.2522,11.1791,11.2714,11.3599,11.4291,11.5187,11.5918,11.6495,11.6495,11.6984,11.7907,11.8792,11.9715,12.06,0.0,0.0,0.0,0.0,0.0,0.0,0.0,8.3222,0.0,8.4983,8.6958,8.8424,8.8065,8.9322,8.992,8.9273,8.7686,8.6689,8.6778,8.5791,8.5252,8.5312,8.4325,0.0,8.2858,0.0,7.8142,7.8262,0.0,0.0,7.3489,7.447,7.5143,7.5699,8.0352,8.5533,9.0819,0.0,0.0,9.729,9.9645,10.0383,10.0081,9.9381,9.9757,10.0496,9.934,9.8281,9.7446,9.7827,9.7723,9.7411,9.7439,9.8202,9.9209,9.9914,10.1408,10.3091,10.4,10.4604,10.4809,10.4599,10.3623,10.2595,10.2191,10.2705,10.3293,10.3293,10.3293,10.2222,9.843,9.3774,0.0,0.0,0.0,0.0,0.0,0.0,0.0,0.0,0.0,0.0,0.0,0.0,0.0,0.0,0.0,0.0,0.0,0.0,9.4826,0.0,0.0,0.0,0.0,0.0,0.0,11.71,11.5907,11.4791,11.3984,11.3599,11.2714,11.1588,11.2791,11.3599,11.4099,11.5407,11.6187,11.6495,11.6495,11.6803,11.7292,11.86,11.9292,11.9908,0.0,6.4675,0.0,0.0,7.2168,0.0,8.1491,8.8351,9.1536,8.7377,8.7257,8.7377,8.6868,8.9191,9.0579,8.992,8.8345,8.7746,8.8634,8.7197,8.6808,8.7856,8.6419,8.5492,8.5342,8.2413,8.0179,0.0,0.0,0.0,0.0,7.4544,7.572,7.6519,8.1332,0.0,0.0,0.0,9.5966,9.8753,10.1304,10.2314,10.2198,10.2021,10.2211,10.2503,10.1105,10.071,10.0824,10.1407,10.0892,10.0012,10.0614,10.1004,10.1496,10.2203,10.3803,10.509,10.4588,10.5283,10.5899,10.4777,10.3602,10.2705,10.2705,10.3182,10.3586,10.3293,10.3403,10.2305,9.7822,9.5105,0.0,0.0,0.0,0.0,0.0,0.0,0.0,0.0,0.0,0.0,0.0,0.0,0.0,0.0,0.0,0.0,8.4601,0.0,0.0,0.0,0.0,10.729,11.2022,0.0,11.6907,0.0,11.6418,11.5676,11.4291,11.4291,11.3483,11.2088,11.3407,11.4214,11.4599,11.5995,11.6599,11.6803,11.6611,11.6495,11.6688,11.8484,11.91,11.9292,0.0,0.0,0.0,0.0,0.0,0.0,8.5093,9.0599,9.4229,9.375,9.375,9.375,9.3691,9.2404,9.1225,9.0567,8.983,8.9213,8.8723,8.8514,8.8454,8.8574,8.8424,8.8035,8.7437,8.474,8.2566,0.0,0.0,0.0,0.0,0.0,0.0,0.0,0.0,0.0,0.0,9.4918,9.7767,9.8542,10.1707,10.2713,10.2092,10.1515,10.2392,10.4023,10.3206,10.3193,10.3494,10.3604,10.201,9.9906,10.0124,10.1019,10.2207,10.291,10.3709,10.4518,10.4902,10.5096,10.4908,10.3293,10.2815,10.2705,10.2705,10.2815,10.3219,10.4593,10.3806,10.1994,9.9194,9.7299,9.5598,0.0,0.0,0.0,0.0,0.0,0.0,0.0,0.0,0.0,0.0,0.0,0.0,0.0,0.0,0.0,0.0,0.0,0.0,9.5027,10.1606,10.7905,11.3714,11.4907,11.6599,11.8715,11.7176,11.5995,11.5187,11.5187,11.4714,11.3791,11.3907,11.4907,11.6303,11.6418,11.6984,11.76,11.6792,11.6495,11.6688,11.8484,11.91,11.9292,0.0,0.0,0.0,0.0,0.0,0.0,0.0,9.3171,9.5456,9.6234,9.6025,9.5486,9.4708,9.39,9.2823,9.1315,9.0997,9.0549,8.989,8.986,8.986,8.986,8.9471,8.9183,8.8903,8.5881,8.3923,0.0,0.0,0.0,0.0,0.0,0.0,0.0,0.0,8.9124,9.217,9.6685,9.9765,10.1906,10.521,10.6107,10.5405,10.5079,10.5194,10.5524,10.4612,10.4491,10.4614,10.4614,10.3305,10.17,10.2194,10.3099,10.411,10.4881,10.5692,10.6086,10.5295,10.4703,10.421,10.3586,10.2008,10.0887,10.2412,10.2301,10.2301,10.3382,10.3089,10.2109,10.0088,9.8756,9.7569,0.0,0.0,0.0,0.0,0.0,0.0,0.0,0.0,0.0,0.0,0.0,0.0,0.0,0.0,0.0,0.0,0.0,0.0,9.5634,0.0,10.5184,11.1714,11.4099,11.611,11.7484,11.6803,11.611,11.5291,11.5291,11.5099,11.4791,11.4791,11.5407,11.6495,11.6495,11.6676,11.6984,11.6599,11.6495,11.6599,11.7907,11.8715,11.9292,7.7785,0.0,8.1039,0.0,8.6266,8.8101,9.3651,9.5277,9.6414,9.791,9.7551,9.6713,9.5576,9.4947,9.405,9.2613,9.2135,9.1716,9.1195,9.1165,9.1075,9.0896,9.0489,0.0,9.084,8.8117,8.6779,8.6884,8.3156,0.0,0.0,0.0,0.0,0.0,8.8089,9.1767,9.5254,9.8924,10.2008,10.4504,10.7587,10.8285,10.7609,10.7609,10.7205,10.6596,10.5789,10.529,10.5107,10.5107,10.421,10.3219,10.4284,10.5018,10.5605,10.6192,10.6596,10.6617,10.5091,10.399,10.3109,10.2889,10.109,9.9916,10.1604,10.1714,10.1677,10.2522,10.3109,10.2999,10.1604,10.0588,9.9705,9.8748,0.0,0.0,0.0,0.0,0.0,0.0,0.0,8.5419,8.407,0.0,0.0,0.0,0.0,0.0,0.0,0.0,0.0,0.0,0.0,0.0,0.0,11.3714,11.5676,11.6495,11.6495,11.6187,11.5687,11.5687,11.5687,11.5687,11.5687,11.6099,11.6907,11.6611,11.6688,11.6907,11.6611,11.6495,11.6611,11.7484,11.8215,11.8908,8.3162,8.62,8.8593,9.1913,9.3062,9.4169,9.6278,9.6607,9.7252,9.9226,9.8897,9.8239,9.7551,9.5755,9.4588,9.4588,9.3361,9.2583,9.2583,9.2583,9.2284,0.0,0.0,9.2171,9.3512,9.2227,9.1904,9.271,0.0,0.0,8.3441,0.0,8.5938,8.6173,9.3392,9.6612,9.6979,10.1788,10.432,10.529,10.7807,10.8285,10.7609,10.7609,10.7609,10.7498,10.6691,10.5789,10.5107,10.5107,10.4614,10.4173,10.5789,10.6397,10.6376,10.6376,10.5789,10.5018,10.41,10.2705,10.131,10.0503,10.0319,10.0283,10.0319,10.0907,10.1677,10.2522,10.399,10.4777,10.399,10.3182,10.2081,10.0503,0.0,0.0,0.0,0.0,0.0,0.0,9.2778,9.1028,8.6769,0.0,0.0,0.0,0.0,0.0,0.0,0.0,0.0,9.3672,10.1096,0.0,11.1395,11.3984,11.5676,11.6495,11.6495,11.6495,11.6495,11.6495,11.6495,11.6495,11.6495,11.6984,11.7715,11.6907,11.6984,11.7715,11.6792,11.6495,11.6611,11.7484,11.7792,11.81,8.5784,8.8723,9.0848,9.2344,9.3541,9.4648,9.5725,9.6294,9.7102,9.8628,9.8613,9.8598,9.8837,9.7132,9.5606,0.0,9.5485,9.57,0.0,9.6439,9.6989,9.582,9.5757,9.5751,9.5671,9.4789,9.4621,9.5111,0.0,0.0,0.0,8.9423,9.0758,9.1037,9.6686,10.0393,10.2595,10.5275,10.7183,10.8578,10.99,10.9973,10.9224,10.9224,10.8894,10.8395,10.8101,10.7881,10.7514,10.7,10.6596,10.6397,10.6376,10.6009,10.5605,10.6192,10.6192,10.5678,10.4284,10.2705,10.1384,10.122,9.9879,9.9218,10.142,10.2595,10.2889,10.2101,10.3182,10.399,10.3219,10.3293,10.3403,10.2815,0.0,0.0,0.0,0.0,0.0,0.0,0.0,8.6647,0.0,8.7814,0.0,0.0,0.0,0.0,0.0,0.0,0.0,0.0,10.2289,0.0,11.2291,11.4291,11.5676,11.6495,11.6495,11.6495,11.6495,11.6495,11.6495,11.6495,11.6495,11.6688,11.6907,11.6599,11.6688,11.6907,11.6599,11.6495,11.6484,11.6792,11.7292,11.8023,8.7658,9.0339,9.2135,9.2524,9.3721,9.4828,9.5486,9.6144,9.7042,9.8359,9.9466,10.0317,10.0697,10.0193,0.0,9.6645,9.795,9.8527,9.7687,9.892,9.9232,9.8111,9.7791,9.7676,9.7696,0.0,0.0,9.8155,9.6224,9.4509,9.3051,9.5288,9.6574,9.7071,10.1208,10.4284,10.6596,10.7881,10.9114,11.001,11.0487,11.0304,10.9496,10.9496,10.9202,10.8799,10.8799,10.8799,10.8688,10.8175,10.8086,10.7881,10.7095,10.6486,10.6082,10.6302,10.6192,10.5715,10.4614,10.3182,10.1898,10.1587,10.0413,9.9769,10.1788,10.3293,10.399,10.2726,10.3696,10.4687,10.421,10.4504,10.4687,10.4394,0.0,0.0,0.0,0.0,0.0,0.0,0.0,0.0,0.0,8.9828,0.0,0.0,0.0,0.0,0.0,0.0,0.0,9.9673,10.4789,0.0,11.3599,11.5099,11.5995,11.6495,11.6495,11.6495,11.6495,11.6495,11.6495,11.6495,11.6495,11.6495,11.6495,11.6495,11.6495,11.6495,11.6495,11.6495,11.6484,11.6907,11.7292,11.8023,8.8807,9.1357,9.2673,0.0,9.375,0.0,9.5426,9.6114,9.7101,9.8493,10.1093,10.2893,10.301,10.4417,10.3889,10.0495,0.0,0.0,0.0,10.0395,9.9796,9.9127,9.8383,9.8517,9.9665,9.9804,10.0485,10.1801,10.0302,10.0291,10.1614,10.2226,10.2822,10.3604,10.6401,10.8101,10.8909,10.9701,10.9995,10.9995,10.9995,10.9489,10.8705,10.8705,10.8698,10.8705,10.8793,10.8778,10.88,10.8887,10.8909,10.8688,10.7881,10.7682,10.7498,10.6691,10.5789,10.5201,10.5107,10.3891,10.2493,10.1788,10.1604,10.1698,10.1624,10.3403,10.4908,10.41,10.5201,10.6302,10.6302,10.6397,10.6082,10.518,10.432,10.2301,9.8374,0.0,0.0,0.0,0.0,0.0,0.0,9.3871,9.4718,0.0,0.0,0.0,0.0,0.0,10.0904,10.151,10.8203,11.2983,11.5407,11.6303,11.6688,11.6688,11.6599,11.6611,11.6611,11.6484,11.6495,11.6495,11.6495,11.6495,11.6495,11.6495,11.6495,11.6495,11.6495,11.6495,11.6611,11.7484,11.7792,11.8011,0.0,0.0,9.3332,9.3332,9.405,9.4648,9.4828,9.5815,9.7464,9.9839,10.169,10.3615,10.579,10.6879,10.7122,10.6193,10.4787,10.3712,10.3086,10.4425,10.4595,10.3326,10.3092,10.2592,10.1816,10.2801,10.4108,10.5474,10.4628,10.4312,10.4685,10.5315,10.5704,10.5896,10.7709,10.8982,10.9679,10.99,10.9995,10.9995,10.9995,10.9221,10.8013,10.8013,10.7699,10.7411,10.8509,10.8979,10.8977,10.9481,10.9679,10.9606,10.8799,10.8505,10.8211,10.678,10.6302,10.5899,10.529,10.3591,10.209,10.239,10.2889,10.3182,10.2595,10.3806,10.4908,10.41,10.4687,10.5422,10.5422,10.6009,10.6082,10.518,10.3403,10.0927,9.7456,0.0,0.0,0.0,9.1867,9.2342,9.2029,9.4627,9.6219,0.0,0.0,9.8723,10.039,10.3898,10.5405,10.4212,11.0791,11.5291,11.7215,11.81,11.8484,11.8484,11.7792,11.7484,11.7484,11.6792,11.6495,11.6495,11.6495,11.6495,11.6495,11.6495,11.6495,11.6495,11.6495,11.6495,11.6611,11.7484,11.7792,11.8011,8.9944,9.2097,9.3571,9.3571,9.4139,9.4618,9.4618,9.6307,9.8211,9.9993,10.35,10.6412,10.7919,10.9633,11.0394,10.9693,10.7625,10.619,10.5688,10.6087,10.5885,10.4701,10.4395,10.3686,10.2502,10.3898,10.5676,10.7793,10.7819,10.7877,10.8216,10.9013,10.91,10.8796,10.9577,11.012,11.0487,11.0487,11.0304,10.9995,10.9606,10.8601,10.7304,10.7304,10.6783,10.6476,10.8299,10.9013,10.9209,11.0197,11.0095,10.9513,10.9416,10.8902,10.82,10.7217,10.689,10.66,10.5108,10.3611,10.2496,10.2419,10.3394,10.421,10.3403,10.4504,10.5495,10.4614,10.5091,10.5715,10.5715,10.6082,10.5899,10.432,10.2008,9.9145,9.5547,9.3527,0.0,9.2119,9.4142,9.567,9.5985,9.899,9.9871,9.7383,10.0307,0.0,10.2107,10.7491,10.979,10.8098,11.3483,11.71,11.8407,11.8908,11.91,11.91,11.86,11.8407,11.8407,11.7484,11.71,11.71,11.6688,11.6495,11.6495,11.6495,11.6495,11.6484,11.6907,11.71,11.7215,11.8484,11.8908,11.91,8.8672,9.1409,9.3601,9.3721,9.4319,9.4868,9.5183,9.7402,9.948,10.0824,10.5791,10.9397,10.9698,11.2019,11.2888,11.1501,10.947,10.8185,10.7982,10.6731,10.558,10.4701,10.4092,10.3512,10.2787,10.4401,10.6689,10.9523,11.0211,11.0909,11.1588,11.2102,11.1992,11.1405,11.1295,11.1221,11.1221,11.1221,11.0707,10.9811,10.9202,10.7882,10.6302,10.641,10.5892,10.5399,10.7811,10.8716,10.8915,11.0398,11.001,10.9088,10.9385,10.8723,10.7592,10.719,10.7212,10.6887,10.4784,10.3803,10.2995,10.2286,10.3598,10.5018,10.4394,10.5385,10.6302,10.5789,10.6192,10.6596,10.6706,10.6691,10.5789,10.3293,10.0686,9.7603,9.3822,0.0,9.2604,9.4292,9.7509,9.9904,10.0809,10.4003,10.3981,9.8726,10.388,10.5987,10.321,10.9988,11.3483,11.2511,11.6215,11.86,11.9485,11.9485,11.9485,11.9715,11.9408,11.9408,11.9408,11.8292,11.7792,11.7792,11.6907,11.6495,11.6495,11.6495,11.6495,11.6611,11.7484,11.7792,11.8023,11.9715,12.0292,12.0408,8.8405,9.1452,9.375,9.4349,9.5007,9.6061,9.7875,9.9467,10.1779,10.5592,10.7884,11.0027,11.1774,11.2407,11.2279,11.1501,11.0519,10.9403,10.8118,10.7204,10.6088,10.4802,10.4598,10.4399,10.4289,10.6883,10.9497,11.1906,11.2016,11.2473,11.3203,11.2689,11.2286,11.2212,11.1515,11.1221,11.1221,11.1221,11.0282,10.9019,10.9606,10.7807,10.4782,10.5518,10.4615,10.3299,10.6106,10.7098,10.7409,10.8793,10.9221,10.8804,10.7721,10.7106,10.6689,10.5396,10.5387,10.571,10.4576,10.3684,10.3093,10.289,10.4013,10.5311,10.5899,10.6192,10.6706,10.7991,10.7807,10.7609,10.8285,10.7902,10.6617,10.41,10.0503,9.7163,9.4483,0.0,9.4467,9.6085,10.0285,10.3399,10.4195,10.4894,10.5478,10.5883,10.5694,10.6795,10.9701,11.2501,11.4907,11.6792,11.8792,12.0292,12.1177,12.1177,12.16,12.2293,12.0793,12.0485,12.11,11.8792,11.7792,11.7792,11.6907,11.6495,11.6495,11.6495,11.6495,11.6611,11.7484,11.7792,11.8023,11.9715,12.0292,12.0408,8.9238,9.1688,9.39,9.4947,9.5396,9.6462,9.895,10.0802,10.3196,10.6707,10.9095,11.1013,11.2309,11.2517,11.2415,11.1974,11.0993,10.9809,10.8693,10.7915,10.6697,10.4802,10.5509,10.6199,10.7016,10.8291,11.0114,11.2396,11.28,11.3203,11.3593,11.3681,11.3203,11.2396,11.1992,11.1588,11.1221,11.0707,10.99,10.8697,10.7917,10.6076,10.3924,10.4694,10.4217,10.3531,10.6803,10.801,10.8215,10.9703,10.9111,10.7819,10.7922,10.6918,10.5509,10.5222,10.3908,10.2694,10.3117,10.2898,10.2677,10.3097,10.4822,10.6617,10.7021,10.7404,10.7881,10.8615,10.8505,10.8416,10.8688,10.8101,10.6911,10.4908,10.0796,0.0,0.0,9.5584,9.6502,9.8978,10.3182,10.6397,10.7587,10.8189,10.822,10.7701,10.8596,11.0084,11.2012,11.4591,11.7215,11.9792,12.06,12.1408,12.2293,12.2293,12.2716,12.3485,12.2293,12.1908,12.2216,12.01,11.8908,11.8484,11.76,11.6907,11.6495,11.6495,11.6495,11.6599,11.7984,11.8484,11.8715,12.0408,12.0985,12.11,8.952,9.1541,9.3721,9.4917,9.5516,9.6877,10.0091,10.2294,10.4718,10.778,11.0212,11.1771,11.2177,11.2177,11.2212,11.1974,11.1095,11.0114,10.8997,10.8286,10.7001,10.4802,10.6099,10.7485,10.9,10.9306,11.0494,11.2396,11.3203,11.3703,11.3923,11.4305,11.3901,11.2689,11.2286,11.1808,11.1089,11.0304,10.9496,10.858,10.6608,10.5015,10.3899,10.4473,10.4397,10.4392,10.78,10.9013,10.9196,11.0315,10.9196,10.7417,10.8204,10.691,10.5192,10.5474,10.3479,10.1401,10.2696,10.3104,10.3405,10.4304,10.621,10.7902,10.8123,10.8505,10.8909,10.9312,10.9202,10.9092,10.9312,10.8688,10.7404,10.5201,0.0,0.0,0.0,9.7944,9.9551,10.2591,10.6388,10.93,11.0816,11.1686,11.1412,10.9616,11.2198,11.3879,11.3895,11.6987,11.9792,12.21,12.1985,12.2216,12.2908,12.2908,12.3293,12.4101,12.3293,12.2908,12.2781,12.11,11.9985,11.9292,11.8292,11.7407,11.6792,11.6611,11.6495,11.6688,11.8407,11.91,11.9292,12.0997,12.1612,12.1612,8.8014,9.057,9.2883,9.3601,9.532,9.7923,10.209,10.4506,10.7071,11.0592,11.1904,11.2212,11.1501,11.1501,11.1196,11.0519,11.0993,11.0384,10.8185,10.7982,10.7001,10.4802,10.6074,10.748,10.9025,11.0302,11.1499,11.2396,11.3203,11.3974,11.4708,11.3974,11.3593,11.3387,11.1992,11.1295,11.1089,11.0304,10.9496,10.8712,10.7225,10.609,10.5319,10.5506,10.549,10.5783,10.8105,10.9013,10.9013,10.9111,10.9013,10.8594,10.7409,10.6774,10.6497,10.5889,10.4977,10.442,10.5198,10.5802,10.669,10.798,10.8609,10.8909,10.9701,10.9276,10.9202,11.0707,11.0414,11.0083,11.0891,11.0377,10.8505,10.4614,0.0,0.0,9.9255,10.1593,10.4499,10.6884,11.0198,11.2596,11.35,11.4284,11.4712,11.4615,11.6297,11.7284,11.7298,11.989,12.21,12.3909,12.3216,12.2781,12.2908,12.2908,12.3293,12.4101,12.3293,12.2908,12.2781,12.11,12.0292,12.01,11.8484,11.7792,11.76,11.6792,11.6495,11.6688,11.8407,11.91,11.9292,12.0997,12.1612,12.1612,9.009,9.1512,9.2943,9.402,9.5187,9.7692,10.283,10.4297,10.6603,11.1376,11.2279,11.2415,11.2076,11.2111,11.1771,11.1027,11.1196,11.0621,10.8896,10.8321,10.7591,10.6687,10.7585,10.8901,11.0279,11.0903,11.1588,11.2396,11.3203,11.3974,11.4818,11.4488,11.4084,11.3593,11.2396,11.1698,11.1111,10.979,10.9092,10.8507,10.5606,10.4586,10.4803,10.5387,10.5906,10.6594,10.9409,11.0398,11.0398,11.0398,10.9811,10.8915,10.8281,10.7496,10.6703,10.6518,10.6802,10.739,10.7626,10.7213,10.7013,10.8405,10.9202,10.9606,10.99,11.012,11.0487,11.1111,11.1001,11.0817,11.1089,11.0487,10.9701,10.8615,0.0,10.4419,10.5111,10.6289,10.7899,10.9787,11.2495,11.4322,11.4607,11.5396,11.6008,11.6008,11.8005,11.9507,12.0095,12.2596,12.3985,12.4101,12.3793,12.3601,12.3601,12.3601,12.3793,12.4101,12.3293,12.2908,12.2908,12.1677,12.0793,12.0292,11.96,11.8792,11.7792,11.7407,11.6984,11.6599,11.7792,11.86,11.9215,12.0408,12.1485,12.2408,9.1195,9.1835,9.2643,9.378,9.5252,9.7919,10.291,10.4593,10.6969,11.1584,11.2415,11.2279,11.1908,11.1974,11.1908,11.1095,11.1298,11.0825,10.9302,10.8217,10.7684,10.7891,10.8205,10.9185,11.1177,11.1221,11.1588,11.2396,11.3203,11.3974,11.4818,11.4488,11.4084,11.3593,11.2506,11.1698,11.1111,10.979,10.9202,10.8895,10.5302,10.4386,10.5325,10.5497,10.6315,10.7702,10.9979,11.1001,11.1221,11.1221,11.0476,10.9727,10.9727,10.8989,10.82,10.82,10.8915,10.9727,10.9727,10.8892,10.8303,10.9299,11.001,11.0377,11.0377,11.0817,11.1221,11.1221,11.1221,11.1221,11.1221,11.0707,11.0304,11.0083,10.8603,10.7898,10.9118,11.0487,11.1913,11.3288,11.5218,11.6403,11.6403,11.7187,11.7703,11.7703,11.9593,12.1177,12.2293,12.4601,12.5486,12.4909,12.4909,12.4716,12.4101,12.3793,12.3716,12.3716,12.3216,12.2793,12.2485,12.1908,12.1304,12.0677,12.0408,11.96,11.8523,11.8023,11.7407,11.6984,11.76,11.8292,11.9215,11.9985,12.1408,12.2908,9.0638,9.1177,9.1835,9.2506,9.5439,9.889,10.2493,10.5994,10.9003,11.1085,11.2008,11.1906,11.0486,11.0993,11.1095,11.0384,11.0993,11.0825,10.9302,10.7689,10.7173,10.7875,10.7199,10.8225,11.1081,11.1221,11.1588,11.2396,11.3203,11.3974,11.4818,11.3974,11.3593,11.3497,11.1919,11.1221,11.1089,11.0304,10.9995,10.9702,10.6704,10.6389,10.7407,10.6005,10.6885,10.8909,10.9679,11.0487,11.1221,11.1221,11.1221,11.1221,11.1221,11.1221,11.1221,11.1221,11.1221,11.1221,11.1221,11.1221,11.1221,11.1221,11.1221,11.1221,11.1221,11.1221,11.1221,11.1221,11.1221,11.1221,11.1221,11.1221,11.0414,10.8012,11.0391,11.2101,11.0498,11.3919,11.6792,11.7603,11.8485,11.91,11.91,11.9792,12.0292,12.0292,12.11,12.2293,12.3985,12.5794,12.669,12.669,12.669,12.5909,12.4101,12.3293,12.2908,12.2908,12.2908,12.2408,12.1612,12.1612,12.1612,12.1612,12.0677,12.0292,12.0216,11.8484,11.7792,11.7792,11.7792,11.8292,11.9215,11.9985,12.1408,12.2908,9.2704,9.2091,9.2086,9.3699,9.5657,9.8661,10.3597,10.5684,10.7878,11.1019,11.1602,11.1399,11.0418,11.0519,11.0316,10.9572,10.9708,10.8997,10.69,10.5397,10.5302,10.7125,10.791,10.9209,11.1177,11.1808,11.2212,11.2396,11.3791,11.4598,11.4818,11.4598,11.4084,11.3593,11.2506,11.1698,11.1089,11.0304,10.9995,10.9805,10.779,10.7197,10.7603,10.711,10.738,10.8086,10.8909,10.9679,11.0377,11.0377,11.0707,11.1221,11.1221,11.1221,11.1221,11.1221,11.1221,11.1221,11.1221,11.1221,11.1221,11.1221,11.1221,11.1221,11.1221,11.1221,11.1221,11.1221,11.1221,11.1221,11.1221,11.1698,11.1808,11.1074,11.2794,11.4307,11.4501,11.6697,11.8614,11.9392,11.9803,11.9908,11.9908,12.0216,12.0292,12.0292,12.2216,12.3793,12.4986,12.6601,12.7486,12.7486,12.6409,12.5216,12.4101,12.3293,12.2601,12.1985,12.1985,12.1908,12.1612,12.1612,12.1612,12.1612,12.1293,12.0908,12.0292,11.9792,11.8908,11.7907,11.8484,11.8908,11.9215,11.9985,12.1793,12.3716,9.3747,9.2961,9.2834,9.4336,9.6008,9.8762,10.3801,10.5583,10.7373,11.0177,11.0486,11.0215,10.9505,10.9708,10.9572,10.8794,10.8524,10.7576,10.5919,10.5014,10.5204,10.6701,10.8215,10.9727,11.1199,11.1992,11.2396,11.2396,11.4011,11.4818,11.4818,11.4818,11.4488,11.4011,11.3203,11.2396,11.1588,11.1184,11.0803,11.0304,10.8688,10.8123,10.7911,10.6686,10.6509,10.6792,10.6714,10.7204,10.7999,10.8888,11.0109,11.1221,11.1221,11.1221,11.1221,11.1221,11.1221,11.1221,11.1221,11.1405,11.1698,11.1698,11.1698,11.1588,11.1295,11.1405,11.1588,11.1295,11.1221,11.1221,11.1221,11.1882,11.2514,11.2881,11.4985,11.6906,11.7817,11.971,12.1092,12.1284,12.1293,12.1216,12.0793,12.0793,12.0793,12.0793,12.2908,12.4293,12.4909,12.6794,12.7794,12.7409,12.6101,12.4986,12.4101,12.2985,12.21,12.1612,12.1304,12.1304,12.1612,12.1612,12.1612,12.1612,12.1612,12.1304,12.0793,12.0408,11.9715,11.8792,11.8985,11.9292,11.96,12.01,12.1908,12.4101,9.4491,9.3989,9.4129,9.49,9.6653,9.9301,10.3315,10.5506,10.7306,10.8693,10.893,10.8591,10.7813,10.8388,10.849,10.7813,10.7001,10.6291,10.5581,10.5692,10.5977,10.6791,10.8287,10.9799,11.1309,11.2102,11.2506,11.2506,11.4121,11.4892,11.4892,11.4892,11.4892,11.4818,11.4011,11.3203,11.2396,11.2396,11.1919,11.1111,10.9606,10.888,10.8317,10.5609,10.4791,10.502,10.3798,10.3809,10.4825,10.7105,10.9404,11.1221,11.1221,11.1221,11.1221,11.1221,11.1221,11.1221,11.1221,11.1698,11.2286,11.2396,11.2396,11.2212,11.1515,11.1808,11.2102,11.1405,11.1221,11.1207,11.1316,11.2,11.2906,11.3907,11.681,11.9288,12.0315,12.2511,12.3716,12.2985,12.2908,12.2601,12.1689,12.1612,12.1612,12.1612,12.3101,12.3985,12.4101,12.6397,12.7486,12.6678,12.5909,12.4986,12.4101,12.2408,12.1497,12.1497,12.0677,12.0677,12.1497,12.1497,12.1485,12.1612,12.1612,12.1612,12.1485,12.0716,12.0408,12.0408,11.9715,11.9908,12.0485,12.06,12.2216,12.4216,9.834,9.7011,9.6486,9.8142,9.9273,10.1013,10.4001,10.5414,10.6189,10.6494,10.6494,10.6291,10.5479,10.5614,10.558,10.5377,10.4701,10.4193,10.4092,10.4593,10.5384,10.6693,10.8789,11.0598,11.2117,11.291,11.3277,11.3277,11.5025,11.5699,11.5699,11.5699,11.5406,11.4818,11.4598,11.3717,11.2396,11.2396,11.1919,11.1221,11.0817,10.9294,10.7084,10.6402,10.4811,10.2894,10.2585,10.3003,10.4124,10.6925,10.9404,11.1221,11.1221,11.1221,11.1221,11.1221,11.1221,11.1221,11.1221,11.1295,11.1588,11.2212,11.2396,11.2396,11.2212,11.1808,11.1405,11.1199,11.1221,11.141,11.2105,11.3401,11.4689,11.5609,11.8092,12.022,12.1121,12.2294,12.3101,12.2908,12.2908,12.2601,12.1689,12.1612,12.1612,12.1612,12.2601,12.3408,12.4101,12.5909,12.6909,12.669,12.5909,12.4986,12.4101,12.1793,12.06,12.06,12.0408,12.0408,12.06,12.06,12.0997,12.1612,12.1612,12.1612,12.1612,12.142,12.1293,12.142,12.1908,12.2216,12.2408,12.2985,12.4101,12.5101,9.8609,9.7645,9.726,9.8266,9.9065,10.051,10.3188,10.4295,10.4904,10.5208,10.5276,10.5107,10.4701,10.47,10.47,10.47,10.399,10.3908,10.4602,10.5293,10.6315,10.7803,10.9993,11.1612,11.2396,11.3607,11.3974,11.3593,11.4782,11.5589,11.5993,11.5993,11.5993,11.5897,11.5516,11.4488,11.3006,11.3006,11.2286,11.1081,11.0006,10.842,10.651,10.471,10.3075,10.1614,10.0606,10.1614,10.3604,10.5205,10.7917,11.0597,11.0597,11.0891,11.1221,11.1221,11.1221,11.1221,11.1221,11.1515,11.1882,11.2286,11.2396,11.2396,11.2396,11.2102,11.1698,11.1295,11.1509,11.198,11.2392,11.4216,11.5908,11.682,11.9102,12.1099,12.1995,12.2882,12.3293,12.2897,12.2908,12.2601,12.1689,12.1612,12.142,12.0985,12.2216,12.2908,12.2908,12.4486,12.5486,12.5486,12.4601,12.3985,12.3524,12.1793,12.0677,12.0292,12.0292,12.0485,12.0908,12.0908,12.1189,12.1612,12.1612,12.1612,12.16,12.1985,12.2216,12.2293,12.3101,12.3204,12.3024,12.3793,12.4409,12.4793,9.8089,9.7789,9.7789,9.7789,9.8319,9.9485,10.1803,10.2705,10.3415,10.4091,10.4193,10.4295,10.4295,10.4295,10.4295,10.4295,10.4013,10.4305,10.5519,10.6619,10.7715,10.8928,11.121,11.2506,11.2579,11.3901,11.4305,11.3791,11.4708,11.5589,11.6213,11.6287,11.669,11.7204,11.6507,11.5296,11.3813,11.3703,11.2822,11.1184,10.8882,10.7315,10.5973,10.2699,10.1111,10.0392,9.8663,10.0298,10.3419,10.3689,10.6523,10.9995,10.9995,11.0597,11.1221,11.1221,11.1221,11.1221,11.1221,11.1698,11.2212,11.2396,11.2286,11.2212,11.2396,11.2404,11.2205,11.1601,11.2109,11.2814,11.2907,11.4807,11.6685,11.7812,11.9795,12.1684,12.2709,12.3485,12.3601,12.2985,12.2793,12.2293,12.1497,12.142,12.0985,12.0216,12.1408,12.1985,12.142,12.2793,12.3716,12.3909,12.3204,12.2908,12.2908,12.1985,12.1177,12.0485,12.0485,12.0793,12.142,12.142,12.1497,12.1612,12.1612,12.1689,12.1908,12.2408,12.2908,12.3408,12.3716,12.3716,12.3408,12.3909,12.3985,12.3985,9.9851,9.9787,9.9787,9.9787,9.9888,10.0085,10.0508,10.1183,10.169,10.1792,10.2401,10.2806,10.2806,10.2806,10.2806,10.2806,10.3796,10.4509,10.4714,10.7222,10.8816,10.8989,11.121,11.2689,11.3387,11.3703,11.4011,11.4598,11.608,11.6887,11.7094,11.7718,11.7792,11.7181,11.7094,11.608,11.4598,11.3923,11.3116,11.199,10.9776,10.719,10.472,10.2895,10.0702,9.8381,9.8098,10.0298,10.3611,10.4811,10.7302,10.9995,10.9995,11.0597,11.1221,11.1221,11.1221,11.1221,11.1221,11.1295,11.1515,11.2212,11.1919,11.1515,11.2212,11.238,11.2517,11.2294,11.3111,11.3885,11.4701,11.5706,11.6986,11.8607,11.9779,12.1006,12.2704,12.3024,12.3024,12.2908,12.2216,12.1408,12.06,12.0485,12.01,11.9292,11.9485,11.9908,12.0408,12.1408,12.2293,12.3024,12.2985,12.2908,12.2908,12.1985,12.1485,12.142,12.142,12.11,12.0485,12.0485,12.0908,12.1612,12.1612,12.1985,12.2716,12.1985,12.3101,12.4909,12.3601,12.3909,12.4986,12.4293,12.3716,12.3101,10.0121,9.9499,9.8984,9.8984,9.9322,9.9593,9.9593,10.0202,10.0709,10.0709,10.0982,10.1185,10.1185,10.1589,10.2378,10.3625,10.419,10.5303,10.691,10.8302,10.9403,11.0223,11.1613,11.2579,11.291,11.3409,11.3974,11.4818,11.5516,11.6484,11.7902,11.7792,11.7792,11.7902,11.7401,11.6323,11.4708,11.3901,11.2693,11.1008,10.8726,10.6307,10.3826,10.1917,10.0415,9.928,9.9655,10.1609,10.4018,10.4576,10.6471,10.871,10.9202,10.99,11.0597,11.1111,11.1221,11.1221,11.1221,11.1221,11.1295,11.1625,11.1515,11.1295,11.1625,11.2492,11.3,11.2,11.2889,11.4194,11.4995,11.6691,11.8394,11.9592,12.0485,12.1293,12.21,12.2216,12.2216,12.2216,12.1408,12.0716,12.0292,11.9908,11.9292,11.8407,11.8792,11.8985,11.8908,12.0177,12.11,12.1408,12.1908,12.2216,12.2216,12.1804,12.1612,12.1612,12.1612,12.142,12.0985,12.1485,12.1985,12.2293,12.2293,12.2485,12.2908,12.2485,12.2985,12.3985,12.3716,12.3985,12.4601,12.3716,12.3485,12.3494]}]]